<?xml version="1.0" encoding="UTF-8" standalone="no" ?>
<gpx xmlns="http://www.topografix.com/GPX/1/1" xmlns:xsi="http://www.w3.org/2001/XMLSchema-instance" xsi:schemaLocation="http://www.topografix.com/GPX/1/1 http://www.topografix.com/GPX/1/1/gpx.xsd" version="1.1" creator="VisuGPX - https://www.visugpx.com">
  <metadata>
    <name>Mont Ceint (CAF)</name>
    <desc><![CDATA[Sortie CAF au pic des 3 seigneurs remplacée par le Mont Ceint à la dernière minute car manque de neige sur les 3 Seigneurs.]]></desc>
  </metadata>
  <trk>
    <name><![CDATA[3SEIGN-11 15:08:22]]></name>
    <trkseg>
      <trkpt lat="42.80631" lon="1.41156">
        <ele>1516.62</ele>
        <time>2011-02-26T08:03:42Z</time>
      </trkpt>
      <trkpt lat="42.80632" lon="1.41156">
        <ele>1516.62</ele>
        <time>2011-02-26T08:04:04Z</time>
      </trkpt>
      <trkpt lat="42.80632" lon="1.41156">
        <ele>1512.29</ele>
        <time>2011-02-26T08:04:05Z</time>
      </trkpt>
      <trkpt lat="42.80632" lon="1.41156">
        <ele>1519.02</ele>
        <time>2011-02-26T08:04:06Z</time>
      </trkpt>
      <trkpt lat="42.80632" lon="1.41156">
        <ele>1516.62</ele>
        <time>2011-02-26T08:04:19Z</time>
      </trkpt>
      <trkpt lat="42.80633" lon="1.41158">
        <ele>1517.58</ele>
        <time>2011-02-26T08:04:28Z</time>
      </trkpt>
      <trkpt lat="42.80633" lon="1.41158">
        <ele>1518.06</ele>
        <time>2011-02-26T08:04:29Z</time>
      </trkpt>
      <trkpt lat="42.80633" lon="1.41158">
        <ele>1519.02</ele>
        <time>2011-02-26T08:04:42Z</time>
      </trkpt>
      <trkpt lat="42.80632" lon="1.41159">
        <ele>1517.1</ele>
        <time>2011-02-26T08:05:02Z</time>
      </trkpt>
      <trkpt lat="42.80631" lon="1.41159">
        <ele>1518.54</ele>
        <time>2011-02-26T08:05:17Z</time>
      </trkpt>
      <trkpt lat="42.80631" lon="1.41159">
        <ele>1517.58</ele>
        <time>2011-02-26T08:05:30Z</time>
      </trkpt>
      <trkpt lat="42.8063" lon="1.41159">
        <ele>1518.06</ele>
        <time>2011-02-26T08:05:53Z</time>
      </trkpt>
      <trkpt lat="42.80631" lon="1.41159">
        <ele>1517.58</ele>
        <time>2011-02-26T08:06:02Z</time>
      </trkpt>
      <trkpt lat="42.8063" lon="1.41158">
        <ele>1518.06</ele>
        <time>2011-02-26T08:06:25Z</time>
      </trkpt>
      <trkpt lat="42.8063" lon="1.41158">
        <ele>1518.54</ele>
        <time>2011-02-26T08:06:27Z</time>
      </trkpt>
      <trkpt lat="42.8063" lon="1.41158">
        <ele>1517.1</ele>
        <time>2011-02-26T08:06:30Z</time>
      </trkpt>
      <trkpt lat="42.80629" lon="1.41158">
        <ele>1517.1</ele>
        <time>2011-02-26T08:06:46Z</time>
      </trkpt>
      <trkpt lat="42.80629" lon="1.41158">
        <ele>1517.1</ele>
        <time>2011-02-26T08:06:47Z</time>
      </trkpt>
      <trkpt lat="42.80629" lon="1.41158">
        <ele>1522.87</ele>
        <time>2011-02-26T08:06:58Z</time>
      </trkpt>
      <trkpt lat="42.80629" lon="1.41158">
        <ele>1519.98</ele>
        <time>2011-02-26T08:06:59Z</time>
      </trkpt>
      <trkpt lat="42.80629" lon="1.41158">
        <ele>1518.54</ele>
        <time>2011-02-26T08:07:02Z</time>
      </trkpt>
      <trkpt lat="42.80628" lon="1.41157">
        <ele>1518.06</ele>
        <time>2011-02-26T08:07:11Z</time>
      </trkpt>
      <trkpt lat="42.80627" lon="1.41156">
        <ele>1518.54</ele>
        <time>2011-02-26T08:07:28Z</time>
      </trkpt>
      <trkpt lat="42.80625" lon="1.41156">
        <ele>1519.98</ele>
        <time>2011-02-26T08:07:33Z</time>
      </trkpt>
      <trkpt lat="42.80624" lon="1.41152">
        <ele>1520.46</ele>
        <time>2011-02-26T08:07:40Z</time>
      </trkpt>
      <trkpt lat="42.80624" lon="1.41152">
        <ele>1518.06</ele>
        <time>2011-02-26T08:07:44Z</time>
      </trkpt>
      <trkpt lat="42.80625" lon="1.41152">
        <ele>1519.98</ele>
        <time>2011-02-26T08:07:51Z</time>
      </trkpt>
      <trkpt lat="42.80625" lon="1.41152">
        <ele>1519.98</ele>
        <time>2011-02-26T08:07:58Z</time>
      </trkpt>
      <trkpt lat="42.80623" lon="1.4115">
        <ele>1519.02</ele>
        <time>2011-02-26T08:08:10Z</time>
      </trkpt>
      <trkpt lat="42.80622" lon="1.41148">
        <ele>1519.5</ele>
        <time>2011-02-26T08:08:24Z</time>
      </trkpt>
      <trkpt lat="42.80616" lon="1.41141">
        <ele>1520.46</ele>
        <time>2011-02-26T08:08:46Z</time>
      </trkpt>
      <trkpt lat="42.80606" lon="1.4113">
        <ele>1519.5</ele>
        <time>2011-02-26T08:08:58Z</time>
      </trkpt>
      <trkpt lat="42.80603" lon="1.41128">
        <ele>1519.5</ele>
        <time>2011-02-26T08:09:12Z</time>
      </trkpt>
      <trkpt lat="42.80602" lon="1.41128">
        <ele>1519.5</ele>
        <time>2011-02-26T08:09:30Z</time>
      </trkpt>
      <trkpt lat="42.80598" lon="1.41126">
        <ele>1519.5</ele>
        <time>2011-02-26T08:09:56Z</time>
      </trkpt>
      <trkpt lat="42.80595" lon="1.41124">
        <ele>1520.46</ele>
        <time>2011-02-26T08:09:59Z</time>
      </trkpt>
      <trkpt lat="42.80588" lon="1.41118">
        <ele>1521.42</ele>
        <time>2011-02-26T08:10:12Z</time>
      </trkpt>
      <trkpt lat="42.80588" lon="1.41118">
        <ele>1521.42</ele>
        <time>2011-02-26T08:10:33Z</time>
      </trkpt>
      <trkpt lat="42.80588" lon="1.41118">
        <ele>1521.42</ele>
        <time>2011-02-26T08:10:56Z</time>
      </trkpt>
      <trkpt lat="42.80587" lon="1.41116">
        <ele>1521.42</ele>
        <time>2011-02-26T08:11:02Z</time>
      </trkpt>
      <trkpt lat="42.80582" lon="1.41114">
        <ele>1521.9</ele>
        <time>2011-02-26T08:11:07Z</time>
      </trkpt>
      <trkpt lat="42.80579" lon="1.41113">
        <ele>1522.39</ele>
        <time>2011-02-26T08:11:11Z</time>
      </trkpt>
      <trkpt lat="42.80575" lon="1.41112">
        <ele>1521.9</ele>
        <time>2011-02-26T08:11:15Z</time>
      </trkpt>
      <trkpt lat="42.80565" lon="1.41109">
        <ele>1521.9</ele>
        <time>2011-02-26T08:11:28Z</time>
      </trkpt>
      <trkpt lat="42.80562" lon="1.41106">
        <ele>1522.87</ele>
        <time>2011-02-26T08:11:32Z</time>
      </trkpt>
      <trkpt lat="42.80558" lon="1.41107">
        <ele>1523.35</ele>
        <time>2011-02-26T08:11:36Z</time>
      </trkpt>
      <trkpt lat="42.8055" lon="1.41106">
        <ele>1523.35</ele>
        <time>2011-02-26T08:11:43Z</time>
      </trkpt>
      <trkpt lat="42.80545" lon="1.41106">
        <ele>1523.35</ele>
        <time>2011-02-26T08:11:47Z</time>
      </trkpt>
      <trkpt lat="42.80529" lon="1.41101">
        <ele>1523.35</ele>
        <time>2011-02-26T08:12:02Z</time>
      </trkpt>
      <trkpt lat="42.80523" lon="1.411">
        <ele>1523.83</ele>
        <time>2011-02-26T08:12:07Z</time>
      </trkpt>
      <trkpt lat="42.80509" lon="1.41097">
        <ele>1523.35</ele>
        <time>2011-02-26T08:12:19Z</time>
      </trkpt>
      <trkpt lat="42.80498" lon="1.41096">
        <ele>1525.27</ele>
        <time>2011-02-26T08:12:30Z</time>
      </trkpt>
      <trkpt lat="42.80497" lon="1.41095">
        <ele>1525.75</ele>
        <time>2011-02-26T08:12:31Z</time>
      </trkpt>
      <trkpt lat="42.80496" lon="1.41095">
        <ele>1525.75</ele>
        <time>2011-02-26T08:12:33Z</time>
      </trkpt>
      <trkpt lat="42.80482" lon="1.41091">
        <ele>1525.75</ele>
        <time>2011-02-26T08:12:47Z</time>
      </trkpt>
      <trkpt lat="42.8047" lon="1.41085">
        <ele>1523.83</ele>
        <time>2011-02-26T08:12:58Z</time>
      </trkpt>
      <trkpt lat="42.80455" lon="1.41079">
        <ele>1523.35</ele>
        <time>2011-02-26T08:13:10Z</time>
      </trkpt>
      <trkpt lat="42.80454" lon="1.41078">
        <ele>1523.83</ele>
        <time>2011-02-26T08:13:11Z</time>
      </trkpt>
      <trkpt lat="42.8045" lon="1.41077">
        <ele>1523.35</ele>
        <time>2011-02-26T08:13:15Z</time>
      </trkpt>
      <trkpt lat="42.80443" lon="1.41074">
        <ele>1522.87</ele>
        <time>2011-02-26T08:13:21Z</time>
      </trkpt>
      <trkpt lat="42.80425" lon="1.4107">
        <ele>1519.02</ele>
        <time>2011-02-26T08:13:29Z</time>
      </trkpt>
      <trkpt lat="42.8042" lon="1.41069">
        <ele>1518.06</ele>
        <time>2011-02-26T08:13:32Z</time>
      </trkpt>
      <trkpt lat="42.80411" lon="1.41065">
        <ele>1518.54</ele>
        <time>2011-02-26T08:13:39Z</time>
      </trkpt>
      <trkpt lat="42.80404" lon="1.41061">
        <ele>1519.98</ele>
        <time>2011-02-26T08:13:47Z</time>
      </trkpt>
      <trkpt lat="42.80399" lon="1.4106">
        <ele>1519.5</ele>
        <time>2011-02-26T08:13:52Z</time>
      </trkpt>
      <trkpt lat="42.80395" lon="1.41058">
        <ele>1519.5</ele>
        <time>2011-02-26T08:14:03Z</time>
      </trkpt>
      <trkpt lat="42.80395" lon="1.41058">
        <ele>1519.98</ele>
        <time>2011-02-26T08:14:27Z</time>
      </trkpt>
      <trkpt lat="42.80395" lon="1.41058">
        <ele>1518.06</ele>
        <time>2011-02-26T08:14:38Z</time>
      </trkpt>
      <trkpt lat="42.80395" lon="1.41057">
        <ele>1519.5</ele>
        <time>2011-02-26T08:14:40Z</time>
      </trkpt>
      <trkpt lat="42.80395" lon="1.41057">
        <ele>1519.5</ele>
        <time>2011-02-26T08:15:18Z</time>
      </trkpt>
      <trkpt lat="42.80386" lon="1.41054">
        <ele>1520.94</ele>
        <time>2011-02-26T08:15:31Z</time>
      </trkpt>
      <trkpt lat="42.80385" lon="1.41054">
        <ele>1520.94</ele>
        <time>2011-02-26T08:15:34Z</time>
      </trkpt>
      <trkpt lat="42.80377" lon="1.41055">
        <ele>1522.87</ele>
        <time>2011-02-26T08:15:47Z</time>
      </trkpt>
      <trkpt lat="42.80376" lon="1.4105">
        <ele>1525.27</ele>
        <time>2011-02-26T08:15:58Z</time>
      </trkpt>
      <trkpt lat="42.80374" lon="1.41044">
        <ele>1527.67</ele>
        <time>2011-02-26T08:16:07Z</time>
      </trkpt>
      <trkpt lat="42.80369" lon="1.41045">
        <ele>1528.15</ele>
        <time>2011-02-26T08:16:14Z</time>
      </trkpt>
      <trkpt lat="42.80365" lon="1.41047">
        <ele>1528.15</ele>
        <time>2011-02-26T08:16:18Z</time>
      </trkpt>
      <trkpt lat="42.80359" lon="1.41055">
        <ele>1528.63</ele>
        <time>2011-02-26T08:16:26Z</time>
      </trkpt>
      <trkpt lat="42.80351" lon="1.41068">
        <ele>1529.11</ele>
        <time>2011-02-26T08:16:39Z</time>
      </trkpt>
      <trkpt lat="42.8035" lon="1.41071">
        <ele>1529.11</ele>
        <time>2011-02-26T08:16:42Z</time>
      </trkpt>
      <trkpt lat="42.80346" lon="1.41075">
        <ele>1528.63</ele>
        <time>2011-02-26T08:16:46Z</time>
      </trkpt>
      <trkpt lat="42.80339" lon="1.41087">
        <ele>1531.04</ele>
        <time>2011-02-26T08:17:00Z</time>
      </trkpt>
      <trkpt lat="42.80337" lon="1.41089">
        <ele>1531.52</ele>
        <time>2011-02-26T08:17:05Z</time>
      </trkpt>
      <trkpt lat="42.80334" lon="1.41097">
        <ele>1532.48</ele>
        <time>2011-02-26T08:17:13Z</time>
      </trkpt>
      <trkpt lat="42.80333" lon="1.41099">
        <ele>1532.48</ele>
        <time>2011-02-26T08:17:15Z</time>
      </trkpt>
      <trkpt lat="42.80333" lon="1.41101">
        <ele>1532.48</ele>
        <time>2011-02-26T08:17:17Z</time>
      </trkpt>
      <trkpt lat="42.80327" lon="1.41109">
        <ele>1532.96</ele>
        <time>2011-02-26T08:17:29Z</time>
      </trkpt>
      <trkpt lat="42.80326" lon="1.4111">
        <ele>1533.44</ele>
        <time>2011-02-26T08:17:32Z</time>
      </trkpt>
      <trkpt lat="42.80323" lon="1.41116">
        <ele>1534.88</ele>
        <time>2011-02-26T08:17:43Z</time>
      </trkpt>
      <trkpt lat="42.80322" lon="1.41107">
        <ele>1535.84</ele>
        <time>2011-02-26T08:17:55Z</time>
      </trkpt>
      <trkpt lat="42.80317" lon="1.41104">
        <ele>1537.29</ele>
        <time>2011-02-26T08:18:06Z</time>
      </trkpt>
      <trkpt lat="42.80315" lon="1.41105">
        <ele>1537.77</ele>
        <time>2011-02-26T08:18:09Z</time>
      </trkpt>
      <trkpt lat="42.8031" lon="1.41102">
        <ele>1539.21</ele>
        <time>2011-02-26T08:18:19Z</time>
      </trkpt>
      <trkpt lat="42.80311" lon="1.41095">
        <ele>1541.13</ele>
        <time>2011-02-26T08:18:30Z</time>
      </trkpt>
      <trkpt lat="42.80313" lon="1.41089">
        <ele>1542.09</ele>
        <time>2011-02-26T08:18:39Z</time>
      </trkpt>
      <trkpt lat="42.80318" lon="1.41081">
        <ele>1544.01</ele>
        <time>2011-02-26T08:18:52Z</time>
      </trkpt>
      <trkpt lat="42.80318" lon="1.41077">
        <ele>1544.98</ele>
        <time>2011-02-26T08:18:58Z</time>
      </trkpt>
      <trkpt lat="42.80318" lon="1.41071">
        <ele>1544.98</ele>
        <time>2011-02-26T08:19:02Z</time>
      </trkpt>
      <trkpt lat="42.80318" lon="1.41066">
        <ele>1545.94</ele>
        <time>2011-02-26T08:19:06Z</time>
      </trkpt>
      <trkpt lat="42.80316" lon="1.4106">
        <ele>1546.9</ele>
        <time>2011-02-26T08:19:11Z</time>
      </trkpt>
      <trkpt lat="42.80312" lon="1.41047">
        <ele>1548.34</ele>
        <time>2011-02-26T08:19:24Z</time>
      </trkpt>
      <trkpt lat="42.80311" lon="1.41047">
        <ele>1548.34</ele>
        <time>2011-02-26T08:19:25Z</time>
      </trkpt>
      <trkpt lat="42.80308" lon="1.41046">
        <ele>1544.5</ele>
        <time>2011-02-26T08:19:37Z</time>
      </trkpt>
      <trkpt lat="42.80308" lon="1.41046">
        <ele>1544.5</ele>
        <time>2011-02-26T08:19:38Z</time>
      </trkpt>
      <trkpt lat="42.80308" lon="1.41046">
        <ele>1549.78</ele>
        <time>2011-02-26T08:19:39Z</time>
      </trkpt>
      <trkpt lat="42.80308" lon="1.41046">
        <ele>1546.9</ele>
        <time>2011-02-26T08:19:40Z</time>
      </trkpt>
      <trkpt lat="42.80308" lon="1.41047">
        <ele>1546.9</ele>
        <time>2011-02-26T08:20:30Z</time>
      </trkpt>
      <trkpt lat="42.80308" lon="1.41047">
        <ele>1540.17</ele>
        <time>2011-02-26T08:20:33Z</time>
      </trkpt>
      <trkpt lat="42.80308" lon="1.41047">
        <ele>1545.46</ele>
        <time>2011-02-26T08:20:34Z</time>
      </trkpt>
      <trkpt lat="42.80308" lon="1.41047">
        <ele>1546.9</ele>
        <time>2011-02-26T08:20:37Z</time>
      </trkpt>
      <trkpt lat="42.80308" lon="1.41046">
        <ele>1550.26</ele>
        <time>2011-02-26T08:20:54Z</time>
      </trkpt>
      <trkpt lat="42.80308" lon="1.41047">
        <ele>1548.82</ele>
        <time>2011-02-26T08:21:14Z</time>
      </trkpt>
      <trkpt lat="42.80308" lon="1.41047">
        <ele>1548.82</ele>
        <time>2011-02-26T08:22:23Z</time>
      </trkpt>
      <trkpt lat="42.80301" lon="1.41045">
        <ele>1549.3</ele>
        <time>2011-02-26T08:22:45Z</time>
      </trkpt>
      <trkpt lat="42.80294" lon="1.4104">
        <ele>1549.78</ele>
        <time>2011-02-26T08:22:56Z</time>
      </trkpt>
      <trkpt lat="42.80293" lon="1.41038">
        <ele>1549.78</ele>
        <time>2011-02-26T08:23:04Z</time>
      </trkpt>
      <trkpt lat="42.80295" lon="1.41025">
        <ele>1552.19</ele>
        <time>2011-02-26T08:23:16Z</time>
      </trkpt>
      <trkpt lat="42.80294" lon="1.41024">
        <ele>1552.67</ele>
        <time>2011-02-26T08:23:19Z</time>
      </trkpt>
      <trkpt lat="42.80289" lon="1.4102">
        <ele>1553.15</ele>
        <time>2011-02-26T08:23:22Z</time>
      </trkpt>
      <trkpt lat="42.80282" lon="1.41023">
        <ele>1553.15</ele>
        <time>2011-02-26T08:23:31Z</time>
      </trkpt>
      <trkpt lat="42.80277" lon="1.41021">
        <ele>1555.55</ele>
        <time>2011-02-26T08:23:51Z</time>
      </trkpt>
      <trkpt lat="42.80271" lon="1.41016">
        <ele>1557.47</ele>
        <time>2011-02-26T08:24:03Z</time>
      </trkpt>
      <trkpt lat="42.80268" lon="1.41011">
        <ele>1559.88</ele>
        <time>2011-02-26T08:24:20Z</time>
      </trkpt>
      <trkpt lat="42.80263" lon="1.41008">
        <ele>1560.36</ele>
        <time>2011-02-26T08:24:30Z</time>
      </trkpt>
      <trkpt lat="42.80254" lon="1.40997">
        <ele>1561.8</ele>
        <time>2011-02-26T08:24:45Z</time>
      </trkpt>
      <trkpt lat="42.80249" lon="1.40991">
        <ele>1563.24</ele>
        <time>2011-02-26T08:24:56Z</time>
      </trkpt>
      <trkpt lat="42.80245" lon="1.40988">
        <ele>1565.64</ele>
        <time>2011-02-26T08:25:10Z</time>
      </trkpt>
      <trkpt lat="42.80236" lon="1.40984">
        <ele>1566.12</ele>
        <time>2011-02-26T08:25:21Z</time>
      </trkpt>
      <trkpt lat="42.80229" lon="1.40978">
        <ele>1567.57</ele>
        <time>2011-02-26T08:25:33Z</time>
      </trkpt>
      <trkpt lat="42.8022" lon="1.40972">
        <ele>1568.05</ele>
        <time>2011-02-26T08:25:44Z</time>
      </trkpt>
      <trkpt lat="42.80215" lon="1.40965">
        <ele>1569.97</ele>
        <time>2011-02-26T08:25:56Z</time>
      </trkpt>
      <trkpt lat="42.80214" lon="1.4096">
        <ele>1569.49</ele>
        <time>2011-02-26T08:26:01Z</time>
      </trkpt>
      <trkpt lat="42.80214" lon="1.40946">
        <ele>1571.41</ele>
        <time>2011-02-26T08:26:15Z</time>
      </trkpt>
      <trkpt lat="42.80214" lon="1.40932">
        <ele>1573.82</ele>
        <time>2011-02-26T08:26:29Z</time>
      </trkpt>
      <trkpt lat="42.80211" lon="1.40928">
        <ele>1574.78</ele>
        <time>2011-02-26T08:26:42Z</time>
      </trkpt>
      <trkpt lat="42.80211" lon="1.40928">
        <ele>1576.22</ele>
        <time>2011-02-26T08:26:56Z</time>
      </trkpt>
      <trkpt lat="42.80211" lon="1.40924">
        <ele>1577.66</ele>
        <time>2011-02-26T08:27:09Z</time>
      </trkpt>
      <trkpt lat="42.80209" lon="1.4092">
        <ele>1579.1</ele>
        <time>2011-02-26T08:27:23Z</time>
      </trkpt>
      <trkpt lat="42.80202" lon="1.4091">
        <ele>1580.54</ele>
        <time>2011-02-26T08:27:34Z</time>
      </trkpt>
      <trkpt lat="42.80203" lon="1.40907">
        <ele>1580.54</ele>
        <time>2011-02-26T08:27:36Z</time>
      </trkpt>
      <trkpt lat="42.80204" lon="1.40898">
        <ele>1582.95</ele>
        <time>2011-02-26T08:27:48Z</time>
      </trkpt>
      <trkpt lat="42.80205" lon="1.40893">
        <ele>1584.39</ele>
        <time>2011-02-26T08:27:58Z</time>
      </trkpt>
      <trkpt lat="42.80203" lon="1.40886">
        <ele>1586.79</ele>
        <time>2011-02-26T08:28:12Z</time>
      </trkpt>
      <trkpt lat="42.80199" lon="1.40882">
        <ele>1588.24</ele>
        <time>2011-02-26T08:28:23Z</time>
      </trkpt>
      <trkpt lat="42.80194" lon="1.40876">
        <ele>1590.64</ele>
        <time>2011-02-26T08:28:34Z</time>
      </trkpt>
      <trkpt lat="42.80189" lon="1.4087">
        <ele>1592.56</ele>
        <time>2011-02-26T08:28:47Z</time>
      </trkpt>
      <trkpt lat="42.80184" lon="1.40863">
        <ele>1593.52</ele>
        <time>2011-02-26T08:29:01Z</time>
      </trkpt>
      <trkpt lat="42.80184" lon="1.40863">
        <ele>1596.41</ele>
        <time>2011-02-26T08:29:14Z</time>
      </trkpt>
      <trkpt lat="42.80184" lon="1.40863">
        <ele>1596.89</ele>
        <time>2011-02-26T08:29:16Z</time>
      </trkpt>
      <trkpt lat="42.80181" lon="1.40853">
        <ele>1597.37</ele>
        <time>2011-02-26T08:29:21Z</time>
      </trkpt>
      <trkpt lat="42.80173" lon="1.40836">
        <ele>1598.81</ele>
        <time>2011-02-26T08:29:32Z</time>
      </trkpt>
      <trkpt lat="42.80167" lon="1.40823">
        <ele>1600.25</ele>
        <time>2011-02-26T08:29:45Z</time>
      </trkpt>
      <trkpt lat="42.80165" lon="1.40816">
        <ele>1602.17</ele>
        <time>2011-02-26T08:29:53Z</time>
      </trkpt>
      <trkpt lat="42.80165" lon="1.40816">
        <ele>1602.66</ele>
        <time>2011-02-26T08:30:15Z</time>
      </trkpt>
      <trkpt lat="42.80166" lon="1.40812">
        <ele>1603.14</ele>
        <time>2011-02-26T08:32:12Z</time>
      </trkpt>
      <trkpt lat="42.80167" lon="1.40809">
        <ele>1602.17</ele>
        <time>2011-02-26T08:32:15Z</time>
      </trkpt>
      <trkpt lat="42.80166" lon="1.40798">
        <ele>1604.1</ele>
        <time>2011-02-26T08:32:26Z</time>
      </trkpt>
      <trkpt lat="42.80167" lon="1.4079">
        <ele>1606.5</ele>
        <time>2011-02-26T08:32:39Z</time>
      </trkpt>
      <trkpt lat="42.8017" lon="1.40782">
        <ele>1607.94</ele>
        <time>2011-02-26T08:32:52Z</time>
      </trkpt>
      <trkpt lat="42.80171" lon="1.40779">
        <ele>1610.35</ele>
        <time>2011-02-26T08:33:04Z</time>
      </trkpt>
      <trkpt lat="42.80167" lon="1.40769">
        <ele>1612.27</ele>
        <time>2011-02-26T08:33:22Z</time>
      </trkpt>
      <trkpt lat="42.80165" lon="1.40767">
        <ele>1613.71</ele>
        <time>2011-02-26T08:33:28Z</time>
      </trkpt>
      <trkpt lat="42.80163" lon="1.40759">
        <ele>1614.67</ele>
        <time>2011-02-26T08:33:38Z</time>
      </trkpt>
      <trkpt lat="42.80165" lon="1.40756">
        <ele>1616.11</ele>
        <time>2011-02-26T08:33:50Z</time>
      </trkpt>
      <trkpt lat="42.80168" lon="1.40754">
        <ele>1617.07</ele>
        <time>2011-02-26T08:33:54Z</time>
      </trkpt>
      <trkpt lat="42.80174" lon="1.40743">
        <ele>1619</ele>
        <time>2011-02-26T08:34:07Z</time>
      </trkpt>
      <trkpt lat="42.80177" lon="1.40737">
        <ele>1620.44</ele>
        <time>2011-02-26T08:34:21Z</time>
      </trkpt>
      <trkpt lat="42.80179" lon="1.40734">
        <ele>1619.96</ele>
        <time>2011-02-26T08:34:24Z</time>
      </trkpt>
      <trkpt lat="42.80182" lon="1.40732">
        <ele>1619.48</ele>
        <time>2011-02-26T08:34:27Z</time>
      </trkpt>
      <trkpt lat="42.80184" lon="1.4073">
        <ele>1619</ele>
        <time>2011-02-26T08:34:29Z</time>
      </trkpt>
      <trkpt lat="42.80189" lon="1.40724">
        <ele>1618.04</ele>
        <time>2011-02-26T08:34:49Z</time>
      </trkpt>
      <trkpt lat="42.80193" lon="1.40721">
        <ele>1617.56</ele>
        <time>2011-02-26T08:35:56Z</time>
      </trkpt>
      <trkpt lat="42.80197" lon="1.40714">
        <ele>1618.52</ele>
        <time>2011-02-26T08:36:02Z</time>
      </trkpt>
      <trkpt lat="42.80206" lon="1.40702">
        <ele>1620.92</ele>
        <time>2011-02-26T08:36:14Z</time>
      </trkpt>
      <trkpt lat="42.80206" lon="1.40699">
        <ele>1621.88</ele>
        <time>2011-02-26T08:36:18Z</time>
      </trkpt>
      <trkpt lat="42.80202" lon="1.40686">
        <ele>1625.25</ele>
        <time>2011-02-26T08:36:29Z</time>
      </trkpt>
      <trkpt lat="42.80202" lon="1.40684">
        <ele>1626.21</ele>
        <time>2011-02-26T08:36:33Z</time>
      </trkpt>
      <trkpt lat="42.80205" lon="1.40683">
        <ele>1627.17</ele>
        <time>2011-02-26T08:36:37Z</time>
      </trkpt>
      <trkpt lat="42.80208" lon="1.4068">
        <ele>1627.65</ele>
        <time>2011-02-26T08:36:41Z</time>
      </trkpt>
      <trkpt lat="42.80217" lon="1.40672">
        <ele>1631.49</ele>
        <time>2011-02-26T08:36:53Z</time>
      </trkpt>
      <trkpt lat="42.80223" lon="1.40666">
        <ele>1632.46</ele>
        <time>2011-02-26T08:37:00Z</time>
      </trkpt>
      <trkpt lat="42.80228" lon="1.40651">
        <ele>1634.86</ele>
        <time>2011-02-26T08:37:13Z</time>
      </trkpt>
      <trkpt lat="42.80227" lon="1.40649">
        <ele>1635.34</ele>
        <time>2011-02-26T08:37:14Z</time>
      </trkpt>
      <trkpt lat="42.80223" lon="1.40642">
        <ele>1636.3</ele>
        <time>2011-02-26T08:37:20Z</time>
      </trkpt>
      <trkpt lat="42.80221" lon="1.4064">
        <ele>1637.74</ele>
        <time>2011-02-26T08:37:23Z</time>
      </trkpt>
      <trkpt lat="42.80222" lon="1.40639">
        <ele>1638.22</ele>
        <time>2011-02-26T08:37:29Z</time>
      </trkpt>
      <trkpt lat="42.80231" lon="1.40643">
        <ele>1639.67</ele>
        <time>2011-02-26T08:37:38Z</time>
      </trkpt>
      <trkpt lat="42.80236" lon="1.40644">
        <ele>1640.63</ele>
        <time>2011-02-26T08:37:42Z</time>
      </trkpt>
      <trkpt lat="42.80239" lon="1.40644">
        <ele>1641.59</ele>
        <time>2011-02-26T08:37:45Z</time>
      </trkpt>
      <trkpt lat="42.80247" lon="1.40641">
        <ele>1643.03</ele>
        <time>2011-02-26T08:38:00Z</time>
      </trkpt>
      <trkpt lat="42.80247" lon="1.40639">
        <ele>1642.55</ele>
        <time>2011-02-26T08:38:17Z</time>
      </trkpt>
      <trkpt lat="42.80247" lon="1.40639">
        <ele>1643.51</ele>
        <time>2011-02-26T08:38:48Z</time>
      </trkpt>
      <trkpt lat="42.80247" lon="1.40639">
        <ele>1643.51</ele>
        <time>2011-02-26T08:39:38Z</time>
      </trkpt>
      <trkpt lat="42.80247" lon="1.40639">
        <ele>1643.99</ele>
        <time>2011-02-26T08:39:57Z</time>
      </trkpt>
      <trkpt lat="42.80247" lon="1.40634">
        <ele>1644.47</ele>
        <time>2011-02-26T08:40:11Z</time>
      </trkpt>
      <trkpt lat="42.80249" lon="1.40633">
        <ele>1645.43</ele>
        <time>2011-02-26T08:40:20Z</time>
      </trkpt>
      <trkpt lat="42.80252" lon="1.40626">
        <ele>1647.36</ele>
        <time>2011-02-26T08:40:33Z</time>
      </trkpt>
      <trkpt lat="42.80254" lon="1.40619">
        <ele>1648.32</ele>
        <time>2011-02-26T08:40:40Z</time>
      </trkpt>
      <trkpt lat="42.80257" lon="1.40608">
        <ele>1648.8</ele>
        <time>2011-02-26T08:40:54Z</time>
      </trkpt>
      <trkpt lat="42.80256" lon="1.40605">
        <ele>1648.8</ele>
        <time>2011-02-26T08:41:07Z</time>
      </trkpt>
      <trkpt lat="42.80256" lon="1.40604">
        <ele>1648.8</ele>
        <time>2011-02-26T08:41:18Z</time>
      </trkpt>
      <trkpt lat="42.80256" lon="1.40595">
        <ele>1648.32</ele>
        <time>2011-02-26T08:41:29Z</time>
      </trkpt>
      <trkpt lat="42.80254" lon="1.4059">
        <ele>1647.36</ele>
        <time>2011-02-26T08:41:34Z</time>
      </trkpt>
      <trkpt lat="42.8025" lon="1.40583">
        <ele>1647.36</ele>
        <time>2011-02-26T08:41:46Z</time>
      </trkpt>
      <trkpt lat="42.80248" lon="1.40582">
        <ele>1646.88</ele>
        <time>2011-02-26T08:41:59Z</time>
      </trkpt>
      <trkpt lat="42.80243" lon="1.40575">
        <ele>1647.84</ele>
        <time>2011-02-26T08:42:12Z</time>
      </trkpt>
      <trkpt lat="42.80238" lon="1.40562">
        <ele>1649.76</ele>
        <time>2011-02-26T08:42:26Z</time>
      </trkpt>
      <trkpt lat="42.80238" lon="1.40561">
        <ele>1649.76</ele>
        <time>2011-02-26T08:42:27Z</time>
      </trkpt>
      <trkpt lat="42.80235" lon="1.40548">
        <ele>1652.64</ele>
        <time>2011-02-26T08:42:41Z</time>
      </trkpt>
      <trkpt lat="42.80234" lon="1.4054">
        <ele>1655.53</ele>
        <time>2011-02-26T08:42:52Z</time>
      </trkpt>
      <trkpt lat="42.8023" lon="1.40525">
        <ele>1655.05</ele>
        <time>2011-02-26T08:43:01Z</time>
      </trkpt>
      <trkpt lat="42.80225" lon="1.40513">
        <ele>1654.57</ele>
        <time>2011-02-26T08:43:10Z</time>
      </trkpt>
      <trkpt lat="42.80215" lon="1.40494">
        <ele>1654.09</ele>
        <time>2011-02-26T08:43:25Z</time>
      </trkpt>
      <trkpt lat="42.80215" lon="1.40493">
        <ele>1654.09</ele>
        <time>2011-02-26T08:43:26Z</time>
      </trkpt>
      <trkpt lat="42.8021" lon="1.40485">
        <ele>1655.05</ele>
        <time>2011-02-26T08:43:37Z</time>
      </trkpt>
      <trkpt lat="42.80206" lon="1.40475">
        <ele>1654.57</ele>
        <time>2011-02-26T08:43:45Z</time>
      </trkpt>
      <trkpt lat="42.80204" lon="1.40461">
        <ele>1655.05</ele>
        <time>2011-02-26T08:43:57Z</time>
      </trkpt>
      <trkpt lat="42.80204" lon="1.40453">
        <ele>1656.01</ele>
        <time>2011-02-26T08:44:08Z</time>
      </trkpt>
      <trkpt lat="42.80204" lon="1.4045">
        <ele>1656.01</ele>
        <time>2011-02-26T08:44:10Z</time>
      </trkpt>
      <trkpt lat="42.80207" lon="1.40438">
        <ele>1657.45</ele>
        <time>2011-02-26T08:44:20Z</time>
      </trkpt>
      <trkpt lat="42.80207" lon="1.40433">
        <ele>1659.37</ele>
        <time>2011-02-26T08:44:33Z</time>
      </trkpt>
      <trkpt lat="42.80207" lon="1.40433">
        <ele>1659.37</ele>
        <time>2011-02-26T08:44:34Z</time>
      </trkpt>
      <trkpt lat="42.802" lon="1.40433">
        <ele>1661.3</ele>
        <time>2011-02-26T08:44:45Z</time>
      </trkpt>
      <trkpt lat="42.80198" lon="1.40429">
        <ele>1662.26</ele>
        <time>2011-02-26T08:44:52Z</time>
      </trkpt>
      <trkpt lat="42.80194" lon="1.40421">
        <ele>1663.7</ele>
        <time>2011-02-26T08:45:01Z</time>
      </trkpt>
      <trkpt lat="42.80191" lon="1.40416">
        <ele>1666.58</ele>
        <time>2011-02-26T08:45:12Z</time>
      </trkpt>
      <trkpt lat="42.80187" lon="1.4041">
        <ele>1668.99</ele>
        <time>2011-02-26T08:45:34Z</time>
      </trkpt>
      <trkpt lat="42.80181" lon="1.40402">
        <ele>1669.47</ele>
        <time>2011-02-26T08:45:44Z</time>
      </trkpt>
      <trkpt lat="42.80179" lon="1.40401">
        <ele>1669.95</ele>
        <time>2011-02-26T08:45:54Z</time>
      </trkpt>
      <trkpt lat="42.80176" lon="1.40398">
        <ele>1670.43</ele>
        <time>2011-02-26T08:46:05Z</time>
      </trkpt>
      <trkpt lat="42.80176" lon="1.40398">
        <ele>1666.58</ele>
        <time>2011-02-26T08:46:13Z</time>
      </trkpt>
      <trkpt lat="42.80176" lon="1.40398">
        <ele>1669.47</ele>
        <time>2011-02-26T08:46:14Z</time>
      </trkpt>
      <trkpt lat="42.80176" lon="1.40398">
        <ele>1667.54</ele>
        <time>2011-02-26T08:46:24Z</time>
      </trkpt>
      <trkpt lat="42.80176" lon="1.40398">
        <ele>1668.99</ele>
        <time>2011-02-26T08:46:26Z</time>
      </trkpt>
      <trkpt lat="42.80176" lon="1.40398">
        <ele>1672.35</ele>
        <time>2011-02-26T08:46:36Z</time>
      </trkpt>
      <trkpt lat="42.80176" lon="1.40398">
        <ele>1668.99</ele>
        <time>2011-02-26T08:46:39Z</time>
      </trkpt>
      <trkpt lat="42.80175" lon="1.40398">
        <ele>1674.27</ele>
        <time>2011-02-26T08:48:27Z</time>
      </trkpt>
      <trkpt lat="42.80175" lon="1.40398">
        <ele>1669.47</ele>
        <time>2011-02-26T08:48:28Z</time>
      </trkpt>
      <trkpt lat="42.80174" lon="1.40398">
        <ele>1670.91</ele>
        <time>2011-02-26T08:49:01Z</time>
      </trkpt>
      <trkpt lat="42.80173" lon="1.40399">
        <ele>1669.95</ele>
        <time>2011-02-26T08:49:08Z</time>
      </trkpt>
      <trkpt lat="42.80173" lon="1.40398">
        <ele>1670.43</ele>
        <time>2011-02-26T08:49:22Z</time>
      </trkpt>
      <trkpt lat="42.80173" lon="1.40398">
        <ele>1670.43</ele>
        <time>2011-02-26T08:49:37Z</time>
      </trkpt>
      <trkpt lat="42.80172" lon="1.40399">
        <ele>1670.91</ele>
        <time>2011-02-26T08:50:10Z</time>
      </trkpt>
      <trkpt lat="42.80172" lon="1.40399">
        <ele>1670.91</ele>
        <time>2011-02-26T08:50:37Z</time>
      </trkpt>
      <trkpt lat="42.80168" lon="1.40398">
        <ele>1672.35</ele>
        <time>2011-02-26T08:50:56Z</time>
      </trkpt>
      <trkpt lat="42.80168" lon="1.40397">
        <ele>1671.87</ele>
        <time>2011-02-26T08:51:12Z</time>
      </trkpt>
      <trkpt lat="42.80167" lon="1.40395">
        <ele>1672.35</ele>
        <time>2011-02-26T08:51:26Z</time>
      </trkpt>
      <trkpt lat="42.80166" lon="1.40395">
        <ele>1672.35</ele>
        <time>2011-02-26T08:51:43Z</time>
      </trkpt>
      <trkpt lat="42.80165" lon="1.40391">
        <ele>1673.31</ele>
        <time>2011-02-26T08:51:56Z</time>
      </trkpt>
      <trkpt lat="42.80164" lon="1.4039">
        <ele>1672.35</ele>
        <time>2011-02-26T08:52:07Z</time>
      </trkpt>
      <trkpt lat="42.80163" lon="1.4039">
        <ele>1671.39</ele>
        <time>2011-02-26T08:52:16Z</time>
      </trkpt>
      <trkpt lat="42.80162" lon="1.40389">
        <ele>1672.83</ele>
        <time>2011-02-26T08:52:20Z</time>
      </trkpt>
      <trkpt lat="42.80156" lon="1.40385">
        <ele>1674.27</ele>
        <time>2011-02-26T08:52:28Z</time>
      </trkpt>
      <trkpt lat="42.80154" lon="1.4038">
        <ele>1675.23</ele>
        <time>2011-02-26T08:52:38Z</time>
      </trkpt>
      <trkpt lat="42.8015" lon="1.4038">
        <ele>1676.2</ele>
        <time>2011-02-26T08:52:47Z</time>
      </trkpt>
      <trkpt lat="42.80149" lon="1.40379">
        <ele>1676.68</ele>
        <time>2011-02-26T08:52:52Z</time>
      </trkpt>
      <trkpt lat="42.80143" lon="1.40376">
        <ele>1679.08</ele>
        <time>2011-02-26T08:53:00Z</time>
      </trkpt>
      <trkpt lat="42.80139" lon="1.40373">
        <ele>1680.04</ele>
        <time>2011-02-26T08:53:12Z</time>
      </trkpt>
      <trkpt lat="42.80139" lon="1.40372">
        <ele>1679.56</ele>
        <time>2011-02-26T08:53:14Z</time>
      </trkpt>
      <trkpt lat="42.80135" lon="1.4037">
        <ele>1681</ele>
        <time>2011-02-26T08:53:22Z</time>
      </trkpt>
      <trkpt lat="42.80129" lon="1.40365">
        <ele>1682.44</ele>
        <time>2011-02-26T08:53:34Z</time>
      </trkpt>
      <trkpt lat="42.80127" lon="1.40364">
        <ele>1686.29</ele>
        <time>2011-02-26T08:53:41Z</time>
      </trkpt>
      <trkpt lat="42.80122" lon="1.40364">
        <ele>1684.85</ele>
        <time>2011-02-26T08:53:52Z</time>
      </trkpt>
      <trkpt lat="42.80117" lon="1.40367">
        <ele>1686.77</ele>
        <time>2011-02-26T08:54:04Z</time>
      </trkpt>
      <trkpt lat="42.80113" lon="1.40366">
        <ele>1688.21</ele>
        <time>2011-02-26T08:54:12Z</time>
      </trkpt>
      <trkpt lat="42.80109" lon="1.40363">
        <ele>1689.17</ele>
        <time>2011-02-26T08:54:23Z</time>
      </trkpt>
      <trkpt lat="42.80106" lon="1.40362">
        <ele>1690.14</ele>
        <time>2011-02-26T08:54:32Z</time>
      </trkpt>
      <trkpt lat="42.80102" lon="1.40362">
        <ele>1692.06</ele>
        <time>2011-02-26T08:54:43Z</time>
      </trkpt>
      <trkpt lat="42.80098" lon="1.40363">
        <ele>1693.5</ele>
        <time>2011-02-26T08:54:55Z</time>
      </trkpt>
      <trkpt lat="42.80096" lon="1.40362">
        <ele>1694.46</ele>
        <time>2011-02-26T08:55:06Z</time>
      </trkpt>
      <trkpt lat="42.80092" lon="1.40359">
        <ele>1695.9</ele>
        <time>2011-02-26T08:55:15Z</time>
      </trkpt>
      <trkpt lat="42.8009" lon="1.40358">
        <ele>1697.83</ele>
        <time>2011-02-26T08:55:18Z</time>
      </trkpt>
      <trkpt lat="42.80086" lon="1.4036">
        <ele>1697.83</ele>
        <time>2011-02-26T08:55:30Z</time>
      </trkpt>
      <trkpt lat="42.80083" lon="1.40361">
        <ele>1699.75</ele>
        <time>2011-02-26T08:55:40Z</time>
      </trkpt>
      <trkpt lat="42.80081" lon="1.40362">
        <ele>1700.71</ele>
        <time>2011-02-26T08:55:49Z</time>
      </trkpt>
      <trkpt lat="42.80077" lon="1.40358">
        <ele>1703.59</ele>
        <time>2011-02-26T08:55:59Z</time>
      </trkpt>
      <trkpt lat="42.80074" lon="1.40356">
        <ele>1703.11</ele>
        <time>2011-02-26T08:56:09Z</time>
      </trkpt>
      <trkpt lat="42.8007" lon="1.40352">
        <ele>1704.07</ele>
        <time>2011-02-26T08:56:18Z</time>
      </trkpt>
      <trkpt lat="42.80068" lon="1.40351">
        <ele>1705.52</ele>
        <time>2011-02-26T08:56:28Z</time>
      </trkpt>
      <trkpt lat="42.80065" lon="1.40349">
        <ele>1707.44</ele>
        <time>2011-02-26T08:56:38Z</time>
      </trkpt>
      <trkpt lat="42.80064" lon="1.40349">
        <ele>1707.92</ele>
        <time>2011-02-26T08:56:41Z</time>
      </trkpt>
      <trkpt lat="42.80058" lon="1.40355">
        <ele>1709.36</ele>
        <time>2011-02-26T08:56:52Z</time>
      </trkpt>
      <trkpt lat="42.80056" lon="1.4036">
        <ele>1710.32</ele>
        <time>2011-02-26T08:57:04Z</time>
      </trkpt>
      <trkpt lat="42.80055" lon="1.40366">
        <ele>1710.8</ele>
        <time>2011-02-26T08:57:15Z</time>
      </trkpt>
      <trkpt lat="42.80054" lon="1.40372">
        <ele>1711.76</ele>
        <time>2011-02-26T08:57:26Z</time>
      </trkpt>
      <trkpt lat="42.80053" lon="1.4037">
        <ele>1712.73</ele>
        <time>2011-02-26T08:57:36Z</time>
      </trkpt>
      <trkpt lat="42.8005" lon="1.40367">
        <ele>1714.65</ele>
        <time>2011-02-26T08:57:48Z</time>
      </trkpt>
      <trkpt lat="42.8005" lon="1.40367">
        <ele>1714.65</ele>
        <time>2011-02-26T08:58:00Z</time>
      </trkpt>
      <trkpt lat="42.80047" lon="1.40364">
        <ele>1715.61</ele>
        <time>2011-02-26T08:58:09Z</time>
      </trkpt>
      <trkpt lat="42.80046" lon="1.40366">
        <ele>1716.57</ele>
        <time>2011-02-26T08:58:20Z</time>
      </trkpt>
      <trkpt lat="42.80046" lon="1.40366">
        <ele>1718.97</ele>
        <time>2011-02-26T08:58:33Z</time>
      </trkpt>
      <trkpt lat="42.80041" lon="1.4037">
        <ele>1718.49</ele>
        <time>2011-02-26T08:58:45Z</time>
      </trkpt>
      <trkpt lat="42.80038" lon="1.40368">
        <ele>1719.94</ele>
        <time>2011-02-26T08:59:07Z</time>
      </trkpt>
      <trkpt lat="42.80036" lon="1.40365">
        <ele>1720.42</ele>
        <time>2011-02-26T08:59:11Z</time>
      </trkpt>
      <trkpt lat="42.80033" lon="1.40362">
        <ele>1720.9</ele>
        <time>2011-02-26T08:59:21Z</time>
      </trkpt>
      <trkpt lat="42.80032" lon="1.40366">
        <ele>1722.34</ele>
        <time>2011-02-26T08:59:33Z</time>
      </trkpt>
      <trkpt lat="42.8003" lon="1.4037">
        <ele>1722.82</ele>
        <time>2011-02-26T08:59:36Z</time>
      </trkpt>
      <trkpt lat="42.80028" lon="1.40372">
        <ele>1724.26</ele>
        <time>2011-02-26T08:59:38Z</time>
      </trkpt>
      <trkpt lat="42.80023" lon="1.40374">
        <ele>1726.18</ele>
        <time>2011-02-26T08:59:47Z</time>
      </trkpt>
      <trkpt lat="42.80022" lon="1.4037">
        <ele>1727.63</ele>
        <time>2011-02-26T09:00:00Z</time>
      </trkpt>
      <trkpt lat="42.80021" lon="1.40366">
        <ele>1727.63</ele>
        <time>2011-02-26T09:00:13Z</time>
      </trkpt>
      <trkpt lat="42.80019" lon="1.40368">
        <ele>1727.63</ele>
        <time>2011-02-26T09:00:21Z</time>
      </trkpt>
      <trkpt lat="42.80018" lon="1.4037">
        <ele>1729.07</ele>
        <time>2011-02-26T09:00:24Z</time>
      </trkpt>
      <trkpt lat="42.80018" lon="1.4037">
        <ele>1730.03</ele>
        <time>2011-02-26T09:00:27Z</time>
      </trkpt>
      <trkpt lat="42.80017" lon="1.40376">
        <ele>1730.99</ele>
        <time>2011-02-26T09:00:36Z</time>
      </trkpt>
      <trkpt lat="42.80016" lon="1.40377">
        <ele>1731.47</ele>
        <time>2011-02-26T09:00:41Z</time>
      </trkpt>
      <trkpt lat="42.80015" lon="1.40379">
        <ele>1731.95</ele>
        <time>2011-02-26T09:00:52Z</time>
      </trkpt>
      <trkpt lat="42.80012" lon="1.40373">
        <ele>1732.91</ele>
        <time>2011-02-26T09:01:05Z</time>
      </trkpt>
      <trkpt lat="42.80009" lon="1.40369">
        <ele>1733.88</ele>
        <time>2011-02-26T09:01:16Z</time>
      </trkpt>
      <trkpt lat="42.80009" lon="1.40368">
        <ele>1734.36</ele>
        <time>2011-02-26T09:01:18Z</time>
      </trkpt>
      <trkpt lat="42.80009" lon="1.40363">
        <ele>1735.32</ele>
        <time>2011-02-26T09:01:28Z</time>
      </trkpt>
      <trkpt lat="42.80008" lon="1.40361">
        <ele>1736.76</ele>
        <time>2011-02-26T09:01:36Z</time>
      </trkpt>
      <trkpt lat="42.80002" lon="1.40368">
        <ele>1739.16</ele>
        <time>2011-02-26T09:01:49Z</time>
      </trkpt>
      <trkpt lat="42.80002" lon="1.40369">
        <ele>1738.2</ele>
        <time>2011-02-26T09:02:02Z</time>
      </trkpt>
      <trkpt lat="42.80001" lon="1.40372">
        <ele>1739.16</ele>
        <time>2011-02-26T09:02:15Z</time>
      </trkpt>
      <trkpt lat="42.79999" lon="1.40373">
        <ele>1739.64</ele>
        <time>2011-02-26T09:02:25Z</time>
      </trkpt>
      <trkpt lat="42.79995" lon="1.4037">
        <ele>1742.05</ele>
        <time>2011-02-26T09:02:36Z</time>
      </trkpt>
      <trkpt lat="42.79992" lon="1.40361">
        <ele>1743.01</ele>
        <time>2011-02-26T09:02:47Z</time>
      </trkpt>
      <trkpt lat="42.7999" lon="1.40356">
        <ele>1744.45</ele>
        <time>2011-02-26T09:02:53Z</time>
      </trkpt>
      <trkpt lat="42.7999" lon="1.40355">
        <ele>1744.93</ele>
        <time>2011-02-26T09:03:07Z</time>
      </trkpt>
      <trkpt lat="42.79989" lon="1.40352">
        <ele>1746.37</ele>
        <time>2011-02-26T09:03:58Z</time>
      </trkpt>
      <trkpt lat="42.79989" lon="1.40348">
        <ele>1748.78</ele>
        <time>2011-02-26T09:04:11Z</time>
      </trkpt>
      <trkpt lat="42.79989" lon="1.40346">
        <ele>1749.26</ele>
        <time>2011-02-26T09:04:40Z</time>
      </trkpt>
      <trkpt lat="42.79988" lon="1.40343">
        <ele>1750.22</ele>
        <time>2011-02-26T09:04:59Z</time>
      </trkpt>
      <trkpt lat="42.79985" lon="1.40344">
        <ele>1751.18</ele>
        <time>2011-02-26T09:05:06Z</time>
      </trkpt>
      <trkpt lat="42.79978" lon="1.40348">
        <ele>1754.06</ele>
        <time>2011-02-26T09:05:18Z</time>
      </trkpt>
      <trkpt lat="42.79974" lon="1.40352">
        <ele>1756.47</ele>
        <time>2011-02-26T09:05:29Z</time>
      </trkpt>
      <trkpt lat="42.79968" lon="1.40355">
        <ele>1757.91</ele>
        <time>2011-02-26T09:05:40Z</time>
      </trkpt>
      <trkpt lat="42.79964" lon="1.40357">
        <ele>1758.87</ele>
        <time>2011-02-26T09:05:51Z</time>
      </trkpt>
      <trkpt lat="42.79963" lon="1.40356">
        <ele>1759.83</ele>
        <time>2011-02-26T09:06:04Z</time>
      </trkpt>
      <trkpt lat="42.79963" lon="1.40354">
        <ele>1762.23</ele>
        <time>2011-02-26T09:06:47Z</time>
      </trkpt>
      <trkpt lat="42.7996" lon="1.40352">
        <ele>1763.68</ele>
        <time>2011-02-26T09:06:56Z</time>
      </trkpt>
      <trkpt lat="42.79959" lon="1.4035">
        <ele>1764.16</ele>
        <time>2011-02-26T09:07:00Z</time>
      </trkpt>
      <trkpt lat="42.79955" lon="1.40349">
        <ele>1766.56</ele>
        <time>2011-02-26T09:07:12Z</time>
      </trkpt>
      <trkpt lat="42.79955" lon="1.40349">
        <ele>1767.04</ele>
        <time>2011-02-26T09:07:13Z</time>
      </trkpt>
      <trkpt lat="42.79952" lon="1.4035">
        <ele>1768.96</ele>
        <time>2011-02-26T09:07:23Z</time>
      </trkpt>
      <trkpt lat="42.79944" lon="1.40353">
        <ele>1770.41</ele>
        <time>2011-02-26T09:07:35Z</time>
      </trkpt>
      <trkpt lat="42.7994" lon="1.40356">
        <ele>1771.37</ele>
        <time>2011-02-26T09:07:41Z</time>
      </trkpt>
      <trkpt lat="42.79938" lon="1.4036">
        <ele>1772.33</ele>
        <time>2011-02-26T09:07:52Z</time>
      </trkpt>
      <trkpt lat="42.79937" lon="1.40364">
        <ele>1774.25</ele>
        <time>2011-02-26T09:07:58Z</time>
      </trkpt>
      <trkpt lat="42.79935" lon="1.40364">
        <ele>1774.25</ele>
        <time>2011-02-26T09:08:08Z</time>
      </trkpt>
      <trkpt lat="42.79931" lon="1.40361">
        <ele>1775.21</ele>
        <time>2011-02-26T09:08:18Z</time>
      </trkpt>
      <trkpt lat="42.7993" lon="1.40354">
        <ele>1776.17</ele>
        <time>2011-02-26T09:08:26Z</time>
      </trkpt>
      <trkpt lat="42.79931" lon="1.40344">
        <ele>1778.58</ele>
        <time>2011-02-26T09:08:38Z</time>
      </trkpt>
      <trkpt lat="42.79931" lon="1.40333">
        <ele>1781.46</ele>
        <time>2011-02-26T09:08:50Z</time>
      </trkpt>
      <trkpt lat="42.79928" lon="1.4033">
        <ele>1782.9</ele>
        <time>2011-02-26T09:09:02Z</time>
      </trkpt>
      <trkpt lat="42.79927" lon="1.4033">
        <ele>1783.38</ele>
        <time>2011-02-26T09:09:04Z</time>
      </trkpt>
      <trkpt lat="42.79919" lon="1.40325">
        <ele>1785.31</ele>
        <time>2011-02-26T09:09:16Z</time>
      </trkpt>
      <trkpt lat="42.79915" lon="1.40321">
        <ele>1784.82</ele>
        <time>2011-02-26T09:09:29Z</time>
      </trkpt>
      <trkpt lat="42.7991" lon="1.40316">
        <ele>1785.79</ele>
        <time>2011-02-26T09:09:40Z</time>
      </trkpt>
      <trkpt lat="42.79906" lon="1.40311">
        <ele>1785.31</ele>
        <time>2011-02-26T09:09:45Z</time>
      </trkpt>
      <trkpt lat="42.79903" lon="1.40303">
        <ele>1784.82</ele>
        <time>2011-02-26T09:09:52Z</time>
      </trkpt>
      <trkpt lat="42.799" lon="1.40296">
        <ele>1784.34</ele>
        <time>2011-02-26T09:09:59Z</time>
      </trkpt>
      <trkpt lat="42.79896" lon="1.40285">
        <ele>1784.34</ele>
        <time>2011-02-26T09:10:10Z</time>
      </trkpt>
      <trkpt lat="42.79894" lon="1.40278">
        <ele>1780.98</ele>
        <time>2011-02-26T09:10:21Z</time>
      </trkpt>
      <trkpt lat="42.79891" lon="1.40266">
        <ele>1780.02</ele>
        <time>2011-02-26T09:10:33Z</time>
      </trkpt>
      <trkpt lat="42.79889" lon="1.40252">
        <ele>1778.58</ele>
        <time>2011-02-26T09:10:46Z</time>
      </trkpt>
      <trkpt lat="42.79889" lon="1.40247">
        <ele>1778.1</ele>
        <time>2011-02-26T09:10:50Z</time>
      </trkpt>
      <trkpt lat="42.79889" lon="1.4024">
        <ele>1779.06</ele>
        <time>2011-02-26T09:11:01Z</time>
      </trkpt>
      <trkpt lat="42.79889" lon="1.40231">
        <ele>1778.1</ele>
        <time>2011-02-26T09:11:12Z</time>
      </trkpt>
      <trkpt lat="42.79888" lon="1.40223">
        <ele>1779.54</ele>
        <time>2011-02-26T09:11:20Z</time>
      </trkpt>
      <trkpt lat="42.79887" lon="1.40216">
        <ele>1781.46</ele>
        <time>2011-02-26T09:11:31Z</time>
      </trkpt>
      <trkpt lat="42.79888" lon="1.40212">
        <ele>1780.98</ele>
        <time>2011-02-26T09:11:38Z</time>
      </trkpt>
      <trkpt lat="42.79891" lon="1.40202">
        <ele>1781.94</ele>
        <time>2011-02-26T09:11:49Z</time>
      </trkpt>
      <trkpt lat="42.79892" lon="1.40201">
        <ele>1784.34</ele>
        <time>2011-02-26T09:12:04Z</time>
      </trkpt>
      <trkpt lat="42.79893" lon="1.40198">
        <ele>1783.86</ele>
        <time>2011-02-26T09:12:54Z</time>
      </trkpt>
      <trkpt lat="42.79897" lon="1.40193">
        <ele>1783.86</ele>
        <time>2011-02-26T09:12:58Z</time>
      </trkpt>
      <trkpt lat="42.79903" lon="1.40184">
        <ele>1787.23</ele>
        <time>2011-02-26T09:13:09Z</time>
      </trkpt>
      <trkpt lat="42.79904" lon="1.40184">
        <ele>1788.67</ele>
        <time>2011-02-26T09:13:11Z</time>
      </trkpt>
      <trkpt lat="42.79906" lon="1.40182">
        <ele>1788.19</ele>
        <time>2011-02-26T09:13:21Z</time>
      </trkpt>
      <trkpt lat="42.79904" lon="1.40181">
        <ele>1788.19</ele>
        <time>2011-02-26T09:13:31Z</time>
      </trkpt>
      <trkpt lat="42.79899" lon="1.4018">
        <ele>1791.07</ele>
        <time>2011-02-26T09:13:42Z</time>
      </trkpt>
      <trkpt lat="42.79896" lon="1.40179">
        <ele>1790.11</ele>
        <time>2011-02-26T09:13:53Z</time>
      </trkpt>
      <trkpt lat="42.79892" lon="1.40179">
        <ele>1791.07</ele>
        <time>2011-02-26T09:14:16Z</time>
      </trkpt>
      <trkpt lat="42.79888" lon="1.40178">
        <ele>1791.55</ele>
        <time>2011-02-26T09:14:28Z</time>
      </trkpt>
      <trkpt lat="42.79885" lon="1.40178">
        <ele>1793</ele>
        <time>2011-02-26T09:15:14Z</time>
      </trkpt>
      <trkpt lat="42.79883" lon="1.40179">
        <ele>1793.48</ele>
        <time>2011-02-26T09:15:27Z</time>
      </trkpt>
      <trkpt lat="42.79883" lon="1.40178">
        <ele>1794.44</ele>
        <time>2011-02-26T09:15:57Z</time>
      </trkpt>
      <trkpt lat="42.79883" lon="1.40176">
        <ele>1794.44</ele>
        <time>2011-02-26T09:16:08Z</time>
      </trkpt>
      <trkpt lat="42.79883" lon="1.40173">
        <ele>1795.4</ele>
        <time>2011-02-26T09:16:20Z</time>
      </trkpt>
      <trkpt lat="42.79884" lon="1.40172">
        <ele>1796.84</ele>
        <time>2011-02-26T09:16:30Z</time>
      </trkpt>
      <trkpt lat="42.79887" lon="1.40169">
        <ele>1797.8</ele>
        <time>2011-02-26T09:16:41Z</time>
      </trkpt>
      <trkpt lat="42.7989" lon="1.40165">
        <ele>1797.8</ele>
        <time>2011-02-26T09:17:24Z</time>
      </trkpt>
      <trkpt lat="42.7989" lon="1.40164">
        <ele>1798.28</ele>
        <time>2011-02-26T09:17:49Z</time>
      </trkpt>
      <trkpt lat="42.79887" lon="1.40162">
        <ele>1798.28</ele>
        <time>2011-02-26T09:18:01Z</time>
      </trkpt>
      <trkpt lat="42.79882" lon="1.40164">
        <ele>1799.73</ele>
        <time>2011-02-26T09:18:12Z</time>
      </trkpt>
      <trkpt lat="42.79876" lon="1.40164">
        <ele>1800.69</ele>
        <time>2011-02-26T09:18:25Z</time>
      </trkpt>
      <trkpt lat="42.79874" lon="1.40164">
        <ele>1802.13</ele>
        <time>2011-02-26T09:18:39Z</time>
      </trkpt>
      <trkpt lat="42.7987" lon="1.40164">
        <ele>1803.57</ele>
        <time>2011-02-26T09:18:54Z</time>
      </trkpt>
      <trkpt lat="42.79867" lon="1.40166">
        <ele>1805.01</ele>
        <time>2011-02-26T09:19:05Z</time>
      </trkpt>
      <trkpt lat="42.79866" lon="1.40167">
        <ele>1805.01</ele>
        <time>2011-02-26T09:19:21Z</time>
      </trkpt>
      <trkpt lat="42.79863" lon="1.40168">
        <ele>1805.01</ele>
        <time>2011-02-26T09:21:09Z</time>
      </trkpt>
      <trkpt lat="42.79862" lon="1.40168">
        <ele>1805.01</ele>
        <time>2011-02-26T09:21:32Z</time>
      </trkpt>
      <trkpt lat="42.79862" lon="1.40168">
        <ele>1806.45</ele>
        <time>2011-02-26T09:21:56Z</time>
      </trkpt>
      <trkpt lat="42.79863" lon="1.40163">
        <ele>1807.42</ele>
        <time>2011-02-26T09:22:11Z</time>
      </trkpt>
      <trkpt lat="42.79866" lon="1.40157">
        <ele>1810.78</ele>
        <time>2011-02-26T09:22:21Z</time>
      </trkpt>
      <trkpt lat="42.79866" lon="1.40156">
        <ele>1810.78</ele>
        <time>2011-02-26T09:22:22Z</time>
      </trkpt>
      <trkpt lat="42.79869" lon="1.40152">
        <ele>1810.3</ele>
        <time>2011-02-26T09:22:37Z</time>
      </trkpt>
      <trkpt lat="42.79868" lon="1.40149">
        <ele>1812.22</ele>
        <time>2011-02-26T09:23:10Z</time>
      </trkpt>
      <trkpt lat="42.79864" lon="1.40144">
        <ele>1815.59</ele>
        <time>2011-02-26T09:23:18Z</time>
      </trkpt>
      <trkpt lat="42.79859" lon="1.40136">
        <ele>1818.47</ele>
        <time>2011-02-26T09:23:29Z</time>
      </trkpt>
      <trkpt lat="42.79854" lon="1.40128">
        <ele>1819.43</ele>
        <time>2011-02-26T09:23:40Z</time>
      </trkpt>
      <trkpt lat="42.79849" lon="1.40122">
        <ele>1820.39</ele>
        <time>2011-02-26T09:23:52Z</time>
      </trkpt>
      <trkpt lat="42.79848" lon="1.40122">
        <ele>1819.43</ele>
        <time>2011-02-26T09:24:12Z</time>
      </trkpt>
      <trkpt lat="42.79849" lon="1.40122">
        <ele>1819.43</ele>
        <time>2011-02-26T09:24:37Z</time>
      </trkpt>
      <trkpt lat="42.79848" lon="1.40122">
        <ele>1819.43</ele>
        <time>2011-02-26T09:24:53Z</time>
      </trkpt>
      <trkpt lat="42.79847" lon="1.40122">
        <ele>1819.43</ele>
        <time>2011-02-26T09:25:46Z</time>
      </trkpt>
      <trkpt lat="42.79844" lon="1.40118">
        <ele>1819.91</ele>
        <time>2011-02-26T09:25:51Z</time>
      </trkpt>
      <trkpt lat="42.79834" lon="1.40119">
        <ele>1819.91</ele>
        <time>2011-02-26T09:26:03Z</time>
      </trkpt>
      <trkpt lat="42.79831" lon="1.40118">
        <ele>1821.35</ele>
        <time>2011-02-26T09:26:07Z</time>
      </trkpt>
      <trkpt lat="42.79823" lon="1.4012">
        <ele>1822.8</ele>
        <time>2011-02-26T09:26:19Z</time>
      </trkpt>
      <trkpt lat="42.79816" lon="1.40121">
        <ele>1826.16</ele>
        <time>2011-02-26T09:26:30Z</time>
      </trkpt>
      <trkpt lat="42.79812" lon="1.40121">
        <ele>1827.12</ele>
        <time>2011-02-26T09:26:35Z</time>
      </trkpt>
      <trkpt lat="42.79807" lon="1.40122">
        <ele>1827.6</ele>
        <time>2011-02-26T09:26:44Z</time>
      </trkpt>
      <trkpt lat="42.79802" lon="1.40124">
        <ele>1828.08</ele>
        <time>2011-02-26T09:26:55Z</time>
      </trkpt>
      <trkpt lat="42.79796" lon="1.40128">
        <ele>1829.53</ele>
        <time>2011-02-26T09:27:05Z</time>
      </trkpt>
      <trkpt lat="42.79793" lon="1.40132">
        <ele>1830.97</ele>
        <time>2011-02-26T09:27:18Z</time>
      </trkpt>
      <trkpt lat="42.79792" lon="1.40137">
        <ele>1831.93</ele>
        <time>2011-02-26T09:27:29Z</time>
      </trkpt>
      <trkpt lat="42.79789" lon="1.40144">
        <ele>1833.85</ele>
        <time>2011-02-26T09:27:41Z</time>
      </trkpt>
      <trkpt lat="42.79788" lon="1.40147">
        <ele>1836.26</ele>
        <time>2011-02-26T09:27:49Z</time>
      </trkpt>
      <trkpt lat="42.79788" lon="1.40151">
        <ele>1836.74</ele>
        <time>2011-02-26T09:27:52Z</time>
      </trkpt>
      <trkpt lat="42.79789" lon="1.40157">
        <ele>1837.22</ele>
        <time>2011-02-26T09:28:04Z</time>
      </trkpt>
      <trkpt lat="42.7979" lon="1.4016">
        <ele>1839.14</ele>
        <time>2011-02-26T09:28:14Z</time>
      </trkpt>
      <trkpt lat="42.79793" lon="1.40163">
        <ele>1841.54</ele>
        <time>2011-02-26T09:28:25Z</time>
      </trkpt>
      <trkpt lat="42.79794" lon="1.40167">
        <ele>1842.98</ele>
        <time>2011-02-26T09:28:33Z</time>
      </trkpt>
      <trkpt lat="42.79795" lon="1.40169">
        <ele>1843.95</ele>
        <time>2011-02-26T09:28:36Z</time>
      </trkpt>
      <trkpt lat="42.79795" lon="1.40173">
        <ele>1845.87</ele>
        <time>2011-02-26T09:28:46Z</time>
      </trkpt>
      <trkpt lat="42.79794" lon="1.40181">
        <ele>1844.43</ele>
        <time>2011-02-26T09:28:57Z</time>
      </trkpt>
      <trkpt lat="42.79795" lon="1.40185">
        <ele>1846.35</ele>
        <time>2011-02-26T09:29:07Z</time>
      </trkpt>
      <trkpt lat="42.79794" lon="1.40186">
        <ele>1846.35</ele>
        <time>2011-02-26T09:29:11Z</time>
      </trkpt>
      <trkpt lat="42.79794" lon="1.4019">
        <ele>1847.79</ele>
        <time>2011-02-26T09:29:17Z</time>
      </trkpt>
      <trkpt lat="42.79794" lon="1.40192">
        <ele>1847.79</ele>
        <time>2011-02-26T09:29:31Z</time>
      </trkpt>
      <trkpt lat="42.79794" lon="1.40194">
        <ele>1849.23</ele>
        <time>2011-02-26T09:29:51Z</time>
      </trkpt>
      <trkpt lat="42.79794" lon="1.40194">
        <ele>1849.71</ele>
        <time>2011-02-26T09:30:12Z</time>
      </trkpt>
      <trkpt lat="42.79794" lon="1.40194">
        <ele>1848.27</ele>
        <time>2011-02-26T09:30:23Z</time>
      </trkpt>
      <trkpt lat="42.79794" lon="1.40198">
        <ele>1849.71</ele>
        <time>2011-02-26T09:30:27Z</time>
      </trkpt>
      <trkpt lat="42.79796" lon="1.40202">
        <ele>1850.19</ele>
        <time>2011-02-26T09:30:46Z</time>
      </trkpt>
      <trkpt lat="42.79795" lon="1.40211">
        <ele>1852.12</ele>
        <time>2011-02-26T09:30:56Z</time>
      </trkpt>
      <trkpt lat="42.79794" lon="1.40218">
        <ele>1855</ele>
        <time>2011-02-26T09:31:01Z</time>
      </trkpt>
      <trkpt lat="42.79793" lon="1.40224">
        <ele>1856.92</ele>
        <time>2011-02-26T09:31:14Z</time>
      </trkpt>
      <trkpt lat="42.79792" lon="1.40231">
        <ele>1859.33</ele>
        <time>2011-02-26T09:31:27Z</time>
      </trkpt>
      <trkpt lat="42.79791" lon="1.40233">
        <ele>1859.81</ele>
        <time>2011-02-26T09:31:29Z</time>
      </trkpt>
      <trkpt lat="42.79791" lon="1.40239">
        <ele>1862.69</ele>
        <time>2011-02-26T09:31:36Z</time>
      </trkpt>
      <trkpt lat="42.79788" lon="1.40249">
        <ele>1862.69</ele>
        <time>2011-02-26T09:31:45Z</time>
      </trkpt>
      <trkpt lat="42.7979" lon="1.40254">
        <ele>1867.02</ele>
        <time>2011-02-26T09:31:53Z</time>
      </trkpt>
      <trkpt lat="42.7979" lon="1.40255">
        <ele>1866.54</ele>
        <time>2011-02-26T09:31:54Z</time>
      </trkpt>
      <trkpt lat="42.79792" lon="1.40261">
        <ele>1868.46</ele>
        <time>2011-02-26T09:32:05Z</time>
      </trkpt>
      <trkpt lat="42.79792" lon="1.40261">
        <ele>1868.94</ele>
        <time>2011-02-26T09:32:12Z</time>
      </trkpt>
      <trkpt lat="42.79795" lon="1.40268">
        <ele>1869.9</ele>
        <time>2011-02-26T09:32:23Z</time>
      </trkpt>
      <trkpt lat="42.79796" lon="1.40271">
        <ele>1871.82</ele>
        <time>2011-02-26T09:32:34Z</time>
      </trkpt>
      <trkpt lat="42.79796" lon="1.40272">
        <ele>1874.23</ele>
        <time>2011-02-26T09:32:53Z</time>
      </trkpt>
      <trkpt lat="42.79799" lon="1.40276">
        <ele>1874.71</ele>
        <time>2011-02-26T09:33:28Z</time>
      </trkpt>
      <trkpt lat="42.79798" lon="1.40281">
        <ele>1878.55</ele>
        <time>2011-02-26T09:33:35Z</time>
      </trkpt>
      <trkpt lat="42.79798" lon="1.40281">
        <ele>1879.03</ele>
        <time>2011-02-26T09:33:36Z</time>
      </trkpt>
      <trkpt lat="42.79799" lon="1.40294">
        <ele>1879.51</ele>
        <time>2011-02-26T09:33:48Z</time>
      </trkpt>
      <trkpt lat="42.79797" lon="1.40299">
        <ele>1883.36</ele>
        <time>2011-02-26T09:33:53Z</time>
      </trkpt>
      <trkpt lat="42.79794" lon="1.40303">
        <ele>1884.32</ele>
        <time>2011-02-26T09:33:59Z</time>
      </trkpt>
      <trkpt lat="42.79793" lon="1.40304">
        <ele>1885.76</ele>
        <time>2011-02-26T09:34:03Z</time>
      </trkpt>
      <trkpt lat="42.79793" lon="1.40304">
        <ele>1886.72</ele>
        <time>2011-02-26T09:34:09Z</time>
      </trkpt>
      <trkpt lat="42.79793" lon="1.40304">
        <ele>1885.28</ele>
        <time>2011-02-26T09:34:28Z</time>
      </trkpt>
      <trkpt lat="42.79793" lon="1.40304">
        <ele>1885.76</ele>
        <time>2011-02-26T09:34:32Z</time>
      </trkpt>
      <trkpt lat="42.79793" lon="1.40304">
        <ele>1884.32</ele>
        <time>2011-02-26T09:35:10Z</time>
      </trkpt>
      <trkpt lat="42.79792" lon="1.40305">
        <ele>1883.36</ele>
        <time>2011-02-26T09:35:30Z</time>
      </trkpt>
      <trkpt lat="42.79792" lon="1.40305">
        <ele>1883.36</ele>
        <time>2011-02-26T09:35:57Z</time>
      </trkpt>
      <trkpt lat="42.79792" lon="1.40305">
        <ele>1884.8</ele>
        <time>2011-02-26T09:36:03Z</time>
      </trkpt>
      <trkpt lat="42.7979" lon="1.40307">
        <ele>1885.28</ele>
        <time>2011-02-26T09:36:25Z</time>
      </trkpt>
      <trkpt lat="42.79783" lon="1.40312">
        <ele>1888.65</ele>
        <time>2011-02-26T09:36:35Z</time>
      </trkpt>
      <trkpt lat="42.79776" lon="1.40315">
        <ele>1890.09</ele>
        <time>2011-02-26T09:36:47Z</time>
      </trkpt>
      <trkpt lat="42.79769" lon="1.40321">
        <ele>1892.49</ele>
        <time>2011-02-26T09:37:03Z</time>
      </trkpt>
      <trkpt lat="42.79765" lon="1.40324">
        <ele>1892.97</ele>
        <time>2011-02-26T09:37:13Z</time>
      </trkpt>
      <trkpt lat="42.79765" lon="1.40323">
        <ele>1892.49</ele>
        <time>2011-02-26T09:37:52Z</time>
      </trkpt>
      <trkpt lat="42.79766" lon="1.40323">
        <ele>1893.45</ele>
        <time>2011-02-26T09:38:04Z</time>
      </trkpt>
      <trkpt lat="42.79766" lon="1.40323">
        <ele>1892.01</ele>
        <time>2011-02-26T09:38:07Z</time>
      </trkpt>
      <trkpt lat="42.79766" lon="1.40323">
        <ele>1891.05</ele>
        <time>2011-02-26T09:38:12Z</time>
      </trkpt>
      <trkpt lat="42.79767" lon="1.40323">
        <ele>1893.45</ele>
        <time>2011-02-26T09:38:15Z</time>
      </trkpt>
      <trkpt lat="42.79765" lon="1.40325">
        <ele>1895.38</ele>
        <time>2011-02-26T09:38:30Z</time>
      </trkpt>
      <trkpt lat="42.79761" lon="1.40327">
        <ele>1894.9</ele>
        <time>2011-02-26T09:38:47Z</time>
      </trkpt>
      <trkpt lat="42.79767" lon="1.40328">
        <ele>1895.86</ele>
        <time>2011-02-26T09:38:57Z</time>
      </trkpt>
      <trkpt lat="42.7977" lon="1.40332">
        <ele>1897.3</ele>
        <time>2011-02-26T09:39:04Z</time>
      </trkpt>
      <trkpt lat="42.79773" lon="1.40341">
        <ele>1898.26</ele>
        <time>2011-02-26T09:39:16Z</time>
      </trkpt>
      <trkpt lat="42.79776" lon="1.40346">
        <ele>1899.7</ele>
        <time>2011-02-26T09:39:24Z</time>
      </trkpt>
      <trkpt lat="42.79774" lon="1.40349">
        <ele>1902.59</ele>
        <time>2011-02-26T09:39:29Z</time>
      </trkpt>
      <trkpt lat="42.79772" lon="1.40348">
        <ele>1902.11</ele>
        <time>2011-02-26T09:39:40Z</time>
      </trkpt>
      <trkpt lat="42.79767" lon="1.40347">
        <ele>1903.55</ele>
        <time>2011-02-26T09:39:51Z</time>
      </trkpt>
      <trkpt lat="42.79762" lon="1.40349">
        <ele>1904.51</ele>
        <time>2011-02-26T09:40:04Z</time>
      </trkpt>
      <trkpt lat="42.79759" lon="1.4035">
        <ele>1905.47</ele>
        <time>2011-02-26T09:40:08Z</time>
      </trkpt>
      <trkpt lat="42.79754" lon="1.40352">
        <ele>1905.95</ele>
        <time>2011-02-26T09:40:20Z</time>
      </trkpt>
      <trkpt lat="42.79745" lon="1.40356">
        <ele>1907.87</ele>
        <time>2011-02-26T09:40:36Z</time>
      </trkpt>
      <trkpt lat="42.79741" lon="1.40361">
        <ele>1909.32</ele>
        <time>2011-02-26T09:40:50Z</time>
      </trkpt>
      <trkpt lat="42.79739" lon="1.40362">
        <ele>1911.24</ele>
        <time>2011-02-26T09:41:10Z</time>
      </trkpt>
      <trkpt lat="42.79739" lon="1.40362">
        <ele>1910.76</ele>
        <time>2011-02-26T09:41:36Z</time>
      </trkpt>
      <trkpt lat="42.79737" lon="1.40364">
        <ele>1910.28</ele>
        <time>2011-02-26T09:41:50Z</time>
      </trkpt>
      <trkpt lat="42.79731" lon="1.40369">
        <ele>1911.72</ele>
        <time>2011-02-26T09:42:04Z</time>
      </trkpt>
      <trkpt lat="42.79726" lon="1.40373">
        <ele>1913.16</ele>
        <time>2011-02-26T09:42:17Z</time>
      </trkpt>
      <trkpt lat="42.79722" lon="1.40377">
        <ele>1913.16</ele>
        <time>2011-02-26T09:42:30Z</time>
      </trkpt>
      <trkpt lat="42.79718" lon="1.40378">
        <ele>1913.16</ele>
        <time>2011-02-26T09:42:40Z</time>
      </trkpt>
      <trkpt lat="42.79713" lon="1.4038">
        <ele>1914.12</ele>
        <time>2011-02-26T09:42:50Z</time>
      </trkpt>
      <trkpt lat="42.79707" lon="1.40384">
        <ele>1914.12</ele>
        <time>2011-02-26T09:43:03Z</time>
      </trkpt>
      <trkpt lat="42.79701" lon="1.40388">
        <ele>1916.53</ele>
        <time>2011-02-26T09:43:14Z</time>
      </trkpt>
      <trkpt lat="42.79696" lon="1.40393">
        <ele>1916.53</ele>
        <time>2011-02-26T09:43:27Z</time>
      </trkpt>
      <trkpt lat="42.79692" lon="1.40395">
        <ele>1917.97</ele>
        <time>2011-02-26T09:43:41Z</time>
      </trkpt>
      <trkpt lat="42.79685" lon="1.40403">
        <ele>1919.41</ele>
        <time>2011-02-26T09:43:52Z</time>
      </trkpt>
      <trkpt lat="42.79679" lon="1.40404">
        <ele>1919.89</ele>
        <time>2011-02-26T09:44:03Z</time>
      </trkpt>
      <trkpt lat="42.79677" lon="1.40407">
        <ele>1919.89</ele>
        <time>2011-02-26T09:44:17Z</time>
      </trkpt>
      <trkpt lat="42.79669" lon="1.40412">
        <ele>1920.85</ele>
        <time>2011-02-26T09:44:31Z</time>
      </trkpt>
      <trkpt lat="42.79664" lon="1.40414">
        <ele>1921.33</ele>
        <time>2011-02-26T09:44:43Z</time>
      </trkpt>
      <trkpt lat="42.79659" lon="1.40418">
        <ele>1923.25</ele>
        <time>2011-02-26T09:44:59Z</time>
      </trkpt>
      <trkpt lat="42.79653" lon="1.40421">
        <ele>1922.77</ele>
        <time>2011-02-26T09:45:09Z</time>
      </trkpt>
      <trkpt lat="42.79649" lon="1.40425">
        <ele>1923.25</ele>
        <time>2011-02-26T09:45:23Z</time>
      </trkpt>
      <trkpt lat="42.79643" lon="1.40425">
        <ele>1924.22</ele>
        <time>2011-02-26T09:45:35Z</time>
      </trkpt>
      <trkpt lat="42.79639" lon="1.40428">
        <ele>1924.7</ele>
        <time>2011-02-26T09:45:49Z</time>
      </trkpt>
      <trkpt lat="42.79636" lon="1.40429">
        <ele>1924.7</ele>
        <time>2011-02-26T09:46:15Z</time>
      </trkpt>
      <trkpt lat="42.79629" lon="1.40431">
        <ele>1924.22</ele>
        <time>2011-02-26T09:46:27Z</time>
      </trkpt>
      <trkpt lat="42.79623" lon="1.40433">
        <ele>1925.66</ele>
        <time>2011-02-26T09:46:39Z</time>
      </trkpt>
      <trkpt lat="42.79616" lon="1.40436">
        <ele>1926.62</ele>
        <time>2011-02-26T09:46:54Z</time>
      </trkpt>
      <trkpt lat="42.79609" lon="1.40436">
        <ele>1927.58</ele>
        <time>2011-02-26T09:47:07Z</time>
      </trkpt>
      <trkpt lat="42.79602" lon="1.40438">
        <ele>1929.02</ele>
        <time>2011-02-26T09:47:19Z</time>
      </trkpt>
      <trkpt lat="42.79594" lon="1.4044">
        <ele>1929.98</ele>
        <time>2011-02-26T09:47:33Z</time>
      </trkpt>
      <trkpt lat="42.79586" lon="1.4044">
        <ele>1930.46</ele>
        <time>2011-02-26T09:47:46Z</time>
      </trkpt>
      <trkpt lat="42.79579" lon="1.40443">
        <ele>1930.46</ele>
        <time>2011-02-26T09:47:59Z</time>
      </trkpt>
      <trkpt lat="42.79572" lon="1.40446">
        <ele>1932.87</ele>
        <time>2011-02-26T09:48:12Z</time>
      </trkpt>
      <trkpt lat="42.79563" lon="1.4045">
        <ele>1934.31</ele>
        <time>2011-02-26T09:48:26Z</time>
      </trkpt>
      <trkpt lat="42.79555" lon="1.40454">
        <ele>1935.27</ele>
        <time>2011-02-26T09:48:39Z</time>
      </trkpt>
      <trkpt lat="42.79549" lon="1.40456">
        <ele>1937.19</ele>
        <time>2011-02-26T09:48:52Z</time>
      </trkpt>
      <trkpt lat="42.79541" lon="1.40459">
        <ele>1938.16</ele>
        <time>2011-02-26T09:49:04Z</time>
      </trkpt>
      <trkpt lat="42.79531" lon="1.40461">
        <ele>1939.6</ele>
        <time>2011-02-26T09:49:18Z</time>
      </trkpt>
      <trkpt lat="42.7952" lon="1.40462">
        <ele>1940.08</ele>
        <time>2011-02-26T09:49:31Z</time>
      </trkpt>
      <trkpt lat="42.79516" lon="1.40462">
        <ele>1940.08</ele>
        <time>2011-02-26T09:49:38Z</time>
      </trkpt>
      <trkpt lat="42.79513" lon="1.40461">
        <ele>1939.12</ele>
        <time>2011-02-26T09:49:42Z</time>
      </trkpt>
      <trkpt lat="42.79504" lon="1.40463">
        <ele>1939.12</ele>
        <time>2011-02-26T09:49:53Z</time>
      </trkpt>
      <trkpt lat="42.79501" lon="1.40465">
        <ele>1939.12</ele>
        <time>2011-02-26T09:49:57Z</time>
      </trkpt>
      <trkpt lat="42.79498" lon="1.40468">
        <ele>1940.08</ele>
        <time>2011-02-26T09:50:01Z</time>
      </trkpt>
      <trkpt lat="42.79492" lon="1.40471">
        <ele>1941.04</ele>
        <time>2011-02-26T09:50:10Z</time>
      </trkpt>
      <trkpt lat="42.79484" lon="1.40477">
        <ele>1941.04</ele>
        <time>2011-02-26T09:50:21Z</time>
      </trkpt>
      <trkpt lat="42.79475" lon="1.40483">
        <ele>1941.04</ele>
        <time>2011-02-26T09:50:33Z</time>
      </trkpt>
      <trkpt lat="42.79472" lon="1.40485">
        <ele>1940.56</ele>
        <time>2011-02-26T09:50:45Z</time>
      </trkpt>
      <trkpt lat="42.79474" lon="1.40483">
        <ele>1941.04</ele>
        <time>2011-02-26T09:50:57Z</time>
      </trkpt>
      <trkpt lat="42.79475" lon="1.40483">
        <ele>1941.52</ele>
        <time>2011-02-26T09:51:12Z</time>
      </trkpt>
      <trkpt lat="42.79475" lon="1.40483">
        <ele>1940.08</ele>
        <time>2011-02-26T09:51:26Z</time>
      </trkpt>
      <trkpt lat="42.79476" lon="1.40485">
        <ele>1941.52</ele>
        <time>2011-02-26T09:51:39Z</time>
      </trkpt>
      <trkpt lat="42.79476" lon="1.40485">
        <ele>1941.52</ele>
        <time>2011-02-26T09:51:50Z</time>
      </trkpt>
      <trkpt lat="42.79476" lon="1.40485">
        <ele>1942</ele>
        <time>2011-02-26T09:52:15Z</time>
      </trkpt>
      <trkpt lat="42.79476" lon="1.40485">
        <ele>1941.52</ele>
        <time>2011-02-26T09:52:17Z</time>
      </trkpt>
      <trkpt lat="42.79478" lon="1.40486">
        <ele>1942</ele>
        <time>2011-02-26T09:52:25Z</time>
      </trkpt>
      <trkpt lat="42.79481" lon="1.40493">
        <ele>1942.96</ele>
        <time>2011-02-26T09:52:34Z</time>
      </trkpt>
      <trkpt lat="42.79482" lon="1.40496">
        <ele>1943.92</ele>
        <time>2011-02-26T09:52:38Z</time>
      </trkpt>
      <trkpt lat="42.79487" lon="1.40506">
        <ele>1945.36</ele>
        <time>2011-02-26T09:52:52Z</time>
      </trkpt>
      <trkpt lat="42.79489" lon="1.40507">
        <ele>1945.36</ele>
        <time>2011-02-26T09:53:04Z</time>
      </trkpt>
      <trkpt lat="42.7949" lon="1.4051">
        <ele>1943.92</ele>
        <time>2011-02-26T09:53:12Z</time>
      </trkpt>
      <trkpt lat="42.7949" lon="1.40513">
        <ele>1942</ele>
        <time>2011-02-26T09:53:20Z</time>
      </trkpt>
      <trkpt lat="42.7949" lon="1.40515">
        <ele>1941.04</ele>
        <time>2011-02-26T09:53:22Z</time>
      </trkpt>
      <trkpt lat="42.7949" lon="1.40522">
        <ele>1942</ele>
        <time>2011-02-26T09:53:34Z</time>
      </trkpt>
      <trkpt lat="42.79489" lon="1.40531">
        <ele>1943.44</ele>
        <time>2011-02-26T09:53:46Z</time>
      </trkpt>
      <trkpt lat="42.79489" lon="1.40535">
        <ele>1943.92</ele>
        <time>2011-02-26T09:53:50Z</time>
      </trkpt>
      <trkpt lat="42.79484" lon="1.40546">
        <ele>1945.36</ele>
        <time>2011-02-26T09:54:03Z</time>
      </trkpt>
      <trkpt lat="42.79481" lon="1.40552">
        <ele>1946.81</ele>
        <time>2011-02-26T09:54:15Z</time>
      </trkpt>
      <trkpt lat="42.79476" lon="1.40556">
        <ele>1945.36</ele>
        <time>2011-02-26T09:54:23Z</time>
      </trkpt>
      <trkpt lat="42.79472" lon="1.40559">
        <ele>1945.85</ele>
        <time>2011-02-26T09:54:27Z</time>
      </trkpt>
      <trkpt lat="42.79462" lon="1.40564">
        <ele>1944.88</ele>
        <time>2011-02-26T09:54:39Z</time>
      </trkpt>
      <trkpt lat="42.79453" lon="1.40568">
        <ele>1944.4</ele>
        <time>2011-02-26T09:54:50Z</time>
      </trkpt>
      <trkpt lat="42.7945" lon="1.4057">
        <ele>1944.88</ele>
        <time>2011-02-26T09:54:53Z</time>
      </trkpt>
      <trkpt lat="42.79445" lon="1.40571">
        <ele>1943.92</ele>
        <time>2011-02-26T09:54:58Z</time>
      </trkpt>
      <trkpt lat="42.79438" lon="1.40575">
        <ele>1942.96</ele>
        <time>2011-02-26T09:55:07Z</time>
      </trkpt>
      <trkpt lat="42.79435" lon="1.40576">
        <ele>1942.48</ele>
        <time>2011-02-26T09:55:10Z</time>
      </trkpt>
      <trkpt lat="42.79433" lon="1.40577">
        <ele>1942</ele>
        <time>2011-02-26T09:55:12Z</time>
      </trkpt>
      <trkpt lat="42.79426" lon="1.40579">
        <ele>1941.04</ele>
        <time>2011-02-26T09:55:23Z</time>
      </trkpt>
      <trkpt lat="42.79426" lon="1.40579">
        <ele>1942</ele>
        <time>2011-02-26T09:56:05Z</time>
      </trkpt>
      <trkpt lat="42.79426" lon="1.40579">
        <ele>1941.52</ele>
        <time>2011-02-26T09:57:02Z</time>
      </trkpt>
      <trkpt lat="42.79426" lon="1.40579">
        <ele>1941.04</ele>
        <time>2011-02-26T09:57:49Z</time>
      </trkpt>
      <trkpt lat="42.79423" lon="1.40578">
        <ele>1940.08</ele>
        <time>2011-02-26T09:57:58Z</time>
      </trkpt>
      <trkpt lat="42.79422" lon="1.40578">
        <ele>1939.6</ele>
        <time>2011-02-26T09:58:00Z</time>
      </trkpt>
      <trkpt lat="42.79417" lon="1.40576">
        <ele>1937.19</ele>
        <time>2011-02-26T09:58:05Z</time>
      </trkpt>
      <trkpt lat="42.79409" lon="1.40575">
        <ele>1937.19</ele>
        <time>2011-02-26T09:58:18Z</time>
      </trkpt>
      <trkpt lat="42.79409" lon="1.40575">
        <ele>1933.35</ele>
        <time>2011-02-26T09:58:23Z</time>
      </trkpt>
      <trkpt lat="42.79409" lon="1.40575">
        <ele>1936.71</ele>
        <time>2011-02-26T09:58:25Z</time>
      </trkpt>
      <trkpt lat="42.79409" lon="1.40575">
        <ele>1936.71</ele>
        <time>2011-02-26T09:58:34Z</time>
      </trkpt>
      <trkpt lat="42.79409" lon="1.40575">
        <ele>1933.35</ele>
        <time>2011-02-26T09:58:50Z</time>
      </trkpt>
      <trkpt lat="42.79409" lon="1.40575">
        <ele>1936.23</ele>
        <time>2011-02-26T09:59:08Z</time>
      </trkpt>
      <trkpt lat="42.79409" lon="1.40575">
        <ele>1941.04</ele>
        <time>2011-02-26T09:59:17Z</time>
      </trkpt>
      <trkpt lat="42.79409" lon="1.40575">
        <ele>1937.19</ele>
        <time>2011-02-26T09:59:18Z</time>
      </trkpt>
      <trkpt lat="42.79409" lon="1.40575">
        <ele>1930.95</ele>
        <time>2011-02-26T10:00:25Z</time>
      </trkpt>
      <trkpt lat="42.79409" lon="1.40575">
        <ele>1934.79</ele>
        <time>2011-02-26T10:00:28Z</time>
      </trkpt>
      <trkpt lat="42.79409" lon="1.40575">
        <ele>1935.75</ele>
        <time>2011-02-26T10:00:30Z</time>
      </trkpt>
      <trkpt lat="42.79409" lon="1.40575">
        <ele>1939.12</ele>
        <time>2011-02-26T10:00:31Z</time>
      </trkpt>
      <trkpt lat="42.79409" lon="1.40575">
        <ele>1937.67</ele>
        <time>2011-02-26T10:00:32Z</time>
      </trkpt>
      <trkpt lat="42.79409" lon="1.40575">
        <ele>1936.23</ele>
        <time>2011-02-26T10:00:34Z</time>
      </trkpt>
      <trkpt lat="42.79409" lon="1.40575">
        <ele>1926.14</ele>
        <time>2011-02-26T10:00:39Z</time>
      </trkpt>
      <trkpt lat="42.79409" lon="1.40575">
        <ele>1935.27</ele>
        <time>2011-02-26T10:00:40Z</time>
      </trkpt>
      <trkpt lat="42.79409" lon="1.40575">
        <ele>1936.71</ele>
        <time>2011-02-26T10:00:43Z</time>
      </trkpt>
      <trkpt lat="42.79409" lon="1.40575">
        <ele>1933.35</ele>
        <time>2011-02-26T10:01:48Z</time>
      </trkpt>
      <trkpt lat="42.79409" lon="1.40575">
        <ele>1922.77</ele>
        <time>2011-02-26T10:01:56Z</time>
      </trkpt>
      <trkpt lat="42.79409" lon="1.40575">
        <ele>1936.71</ele>
        <time>2011-02-26T10:01:57Z</time>
      </trkpt>
      <trkpt lat="42.79409" lon="1.40575">
        <ele>1936.23</ele>
        <time>2011-02-26T10:01:58Z</time>
      </trkpt>
      <trkpt lat="42.79409" lon="1.40575">
        <ele>1931.43</ele>
        <time>2011-02-26T10:02:03Z</time>
      </trkpt>
      <trkpt lat="42.79409" lon="1.40575">
        <ele>1936.23</ele>
        <time>2011-02-26T10:02:04Z</time>
      </trkpt>
      <trkpt lat="42.79409" lon="1.40575">
        <ele>1927.1</ele>
        <time>2011-02-26T10:02:11Z</time>
      </trkpt>
      <trkpt lat="42.79409" lon="1.40575">
        <ele>1937.19</ele>
        <time>2011-02-26T10:02:12Z</time>
      </trkpt>
      <trkpt lat="42.79409" lon="1.40575">
        <ele>1933.83</ele>
        <time>2011-02-26T10:02:23Z</time>
      </trkpt>
      <trkpt lat="42.79409" lon="1.40575">
        <ele>1928.54</ele>
        <time>2011-02-26T10:02:24Z</time>
      </trkpt>
      <trkpt lat="42.79409" lon="1.40575">
        <ele>1935.75</ele>
        <time>2011-02-26T10:02:25Z</time>
      </trkpt>
      <trkpt lat="42.79409" lon="1.40575">
        <ele>1934.31</ele>
        <time>2011-02-26T10:02:28Z</time>
      </trkpt>
      <trkpt lat="42.79409" lon="1.40575">
        <ele>1933.83</ele>
        <time>2011-02-26T10:02:40Z</time>
      </trkpt>
      <trkpt lat="42.79409" lon="1.40576">
        <ele>1929.98</ele>
        <time>2011-02-26T10:02:42Z</time>
      </trkpt>
      <trkpt lat="42.79409" lon="1.40576">
        <ele>1937.19</ele>
        <time>2011-02-26T10:02:44Z</time>
      </trkpt>
      <trkpt lat="42.7941" lon="1.40576">
        <ele>1935.75</ele>
        <time>2011-02-26T10:02:48Z</time>
      </trkpt>
      <trkpt lat="42.79409" lon="1.40575">
        <ele>1936.71</ele>
        <time>2011-02-26T10:03:02Z</time>
      </trkpt>
      <trkpt lat="42.79406" lon="1.40574">
        <ele>1934.31</ele>
        <time>2011-02-26T10:03:06Z</time>
      </trkpt>
      <trkpt lat="42.79405" lon="1.40576">
        <ele>1937.67</ele>
        <time>2011-02-26T10:03:10Z</time>
      </trkpt>
      <trkpt lat="42.79397" lon="1.40576">
        <ele>1937.67</ele>
        <time>2011-02-26T10:03:17Z</time>
      </trkpt>
      <trkpt lat="42.79394" lon="1.40579">
        <ele>1938.16</ele>
        <time>2011-02-26T10:03:21Z</time>
      </trkpt>
      <trkpt lat="42.79381" lon="1.40583">
        <ele>1942</ele>
        <time>2011-02-26T10:03:33Z</time>
      </trkpt>
      <trkpt lat="42.79379" lon="1.40583">
        <ele>1942.48</ele>
        <time>2011-02-26T10:03:35Z</time>
      </trkpt>
      <trkpt lat="42.79377" lon="1.40584">
        <ele>1944.88</ele>
        <time>2011-02-26T10:03:37Z</time>
      </trkpt>
      <trkpt lat="42.7937" lon="1.40586">
        <ele>1945.85</ele>
        <time>2011-02-26T10:03:44Z</time>
      </trkpt>
      <trkpt lat="42.79365" lon="1.40585">
        <ele>1947.77</ele>
        <time>2011-02-26T10:03:48Z</time>
      </trkpt>
      <trkpt lat="42.79355" lon="1.40583">
        <ele>1950.65</ele>
        <time>2011-02-26T10:04:00Z</time>
      </trkpt>
      <trkpt lat="42.79352" lon="1.40581">
        <ele>1952.57</ele>
        <time>2011-02-26T10:04:04Z</time>
      </trkpt>
      <trkpt lat="42.79352" lon="1.40581">
        <ele>1951.13</ele>
        <time>2011-02-26T10:04:07Z</time>
      </trkpt>
      <trkpt lat="42.79345" lon="1.40582">
        <ele>1952.57</ele>
        <time>2011-02-26T10:04:17Z</time>
      </trkpt>
      <trkpt lat="42.79338" lon="1.40588">
        <ele>1955.94</ele>
        <time>2011-02-26T10:04:26Z</time>
      </trkpt>
      <trkpt lat="42.79337" lon="1.4059">
        <ele>1958.34</ele>
        <time>2011-02-26T10:04:29Z</time>
      </trkpt>
      <trkpt lat="42.79335" lon="1.40593">
        <ele>1957.38</ele>
        <time>2011-02-26T10:04:33Z</time>
      </trkpt>
      <trkpt lat="42.79331" lon="1.40598">
        <ele>1957.86</ele>
        <time>2011-02-26T10:04:39Z</time>
      </trkpt>
      <trkpt lat="42.7933" lon="1.406">
        <ele>1959.3</ele>
        <time>2011-02-26T10:04:42Z</time>
      </trkpt>
      <trkpt lat="42.79325" lon="1.40605">
        <ele>1962.67</ele>
        <time>2011-02-26T10:04:51Z</time>
      </trkpt>
      <trkpt lat="42.79324" lon="1.40606">
        <ele>1963.15</ele>
        <time>2011-02-26T10:04:56Z</time>
      </trkpt>
      <trkpt lat="42.79323" lon="1.40607">
        <ele>1964.11</ele>
        <time>2011-02-26T10:05:18Z</time>
      </trkpt>
      <trkpt lat="42.79322" lon="1.40606">
        <ele>1964.11</ele>
        <time>2011-02-26T10:05:37Z</time>
      </trkpt>
      <trkpt lat="42.79317" lon="1.40603">
        <ele>1966.03</ele>
        <time>2011-02-26T10:05:44Z</time>
      </trkpt>
      <trkpt lat="42.79311" lon="1.40602">
        <ele>1966.03</ele>
        <time>2011-02-26T10:05:54Z</time>
      </trkpt>
      <trkpt lat="42.79306" lon="1.40609">
        <ele>1968.44</ele>
        <time>2011-02-26T10:06:11Z</time>
      </trkpt>
      <trkpt lat="42.79305" lon="1.40611">
        <ele>1968.44</ele>
        <time>2011-02-26T10:06:21Z</time>
      </trkpt>
      <trkpt lat="42.79301" lon="1.40613">
        <ele>1971.8</ele>
        <time>2011-02-26T10:06:31Z</time>
      </trkpt>
      <trkpt lat="42.79296" lon="1.4061">
        <ele>1974.69</ele>
        <time>2011-02-26T10:06:41Z</time>
      </trkpt>
      <trkpt lat="42.79296" lon="1.40609">
        <ele>1974.69</ele>
        <time>2011-02-26T10:06:42Z</time>
      </trkpt>
      <trkpt lat="42.79291" lon="1.40602">
        <ele>1974.69</ele>
        <time>2011-02-26T10:06:52Z</time>
      </trkpt>
      <trkpt lat="42.79283" lon="1.40595">
        <ele>1975.17</ele>
        <time>2011-02-26T10:07:06Z</time>
      </trkpt>
      <trkpt lat="42.79281" lon="1.40595">
        <ele>1977.09</ele>
        <time>2011-02-26T10:07:13Z</time>
      </trkpt>
      <trkpt lat="42.7928" lon="1.40595">
        <ele>1978.05</ele>
        <time>2011-02-26T10:07:34Z</time>
      </trkpt>
      <trkpt lat="42.7928" lon="1.40594">
        <ele>1977.57</ele>
        <time>2011-02-26T10:07:38Z</time>
      </trkpt>
      <trkpt lat="42.79273" lon="1.40588">
        <ele>1979.01</ele>
        <time>2011-02-26T10:07:54Z</time>
      </trkpt>
      <trkpt lat="42.79269" lon="1.40584">
        <ele>1979.49</ele>
        <time>2011-02-26T10:08:05Z</time>
      </trkpt>
      <trkpt lat="42.79263" lon="1.4058">
        <ele>1980.93</ele>
        <time>2011-02-26T10:08:20Z</time>
      </trkpt>
      <trkpt lat="42.7926" lon="1.40576">
        <ele>1981.9</ele>
        <time>2011-02-26T10:08:30Z</time>
      </trkpt>
      <trkpt lat="42.79257" lon="1.40572">
        <ele>1982.86</ele>
        <time>2011-02-26T10:08:40Z</time>
      </trkpt>
      <trkpt lat="42.79255" lon="1.4057">
        <ele>1984.3</ele>
        <time>2011-02-26T10:08:51Z</time>
      </trkpt>
      <trkpt lat="42.79252" lon="1.40567">
        <ele>1984.78</ele>
        <time>2011-02-26T10:08:55Z</time>
      </trkpt>
      <trkpt lat="42.79246" lon="1.40563">
        <ele>1985.74</ele>
        <time>2011-02-26T10:09:06Z</time>
      </trkpt>
      <trkpt lat="42.79244" lon="1.40559">
        <ele>1985.74</ele>
        <time>2011-02-26T10:09:13Z</time>
      </trkpt>
      <trkpt lat="42.79242" lon="1.40557">
        <ele>1987.18</ele>
        <time>2011-02-26T10:09:25Z</time>
      </trkpt>
      <trkpt lat="42.79239" lon="1.40553">
        <ele>1988.14</ele>
        <time>2011-02-26T10:09:37Z</time>
      </trkpt>
      <trkpt lat="42.79233" lon="1.40546">
        <ele>1988.62</ele>
        <time>2011-02-26T10:09:48Z</time>
      </trkpt>
      <trkpt lat="42.79232" lon="1.40544">
        <ele>1991.03</ele>
        <time>2011-02-26T10:09:51Z</time>
      </trkpt>
      <trkpt lat="42.79229" lon="1.40541">
        <ele>1991.51</ele>
        <time>2011-02-26T10:10:05Z</time>
      </trkpt>
      <trkpt lat="42.79223" lon="1.40538">
        <ele>1994.39</ele>
        <time>2011-02-26T10:10:17Z</time>
      </trkpt>
      <trkpt lat="42.7922" lon="1.40535">
        <ele>1994.39</ele>
        <time>2011-02-26T10:10:28Z</time>
      </trkpt>
      <trkpt lat="42.79219" lon="1.40536">
        <ele>1995.83</ele>
        <time>2011-02-26T10:10:30Z</time>
      </trkpt>
      <trkpt lat="42.79216" lon="1.40534">
        <ele>1998.24</ele>
        <time>2011-02-26T10:10:43Z</time>
      </trkpt>
      <trkpt lat="42.79213" lon="1.4053">
        <ele>1997.76</ele>
        <time>2011-02-26T10:10:55Z</time>
      </trkpt>
      <trkpt lat="42.79213" lon="1.4053">
        <ele>1999.2</ele>
        <time>2011-02-26T10:11:34Z</time>
      </trkpt>
      <trkpt lat="42.79211" lon="1.40526">
        <ele>1999.2</ele>
        <time>2011-02-26T10:12:15Z</time>
      </trkpt>
      <trkpt lat="42.79207" lon="1.40524">
        <ele>2000.64</ele>
        <time>2011-02-26T10:12:33Z</time>
      </trkpt>
      <trkpt lat="42.79203" lon="1.40518">
        <ele>2001.6</ele>
        <time>2011-02-26T10:12:51Z</time>
      </trkpt>
      <trkpt lat="42.79197" lon="1.40512">
        <ele>2003.04</ele>
        <time>2011-02-26T10:13:06Z</time>
      </trkpt>
      <trkpt lat="42.79194" lon="1.40507">
        <ele>2004.01</ele>
        <time>2011-02-26T10:13:11Z</time>
      </trkpt>
      <trkpt lat="42.79189" lon="1.40504">
        <ele>2004.97</ele>
        <time>2011-02-26T10:13:24Z</time>
      </trkpt>
      <trkpt lat="42.79189" lon="1.40503">
        <ele>2005.93</ele>
        <time>2011-02-26T10:13:45Z</time>
      </trkpt>
      <trkpt lat="42.79185" lon="1.40501">
        <ele>2005.93</ele>
        <time>2011-02-26T10:13:50Z</time>
      </trkpt>
      <trkpt lat="42.7918" lon="1.40494">
        <ele>2006.89</ele>
        <time>2011-02-26T10:14:02Z</time>
      </trkpt>
      <trkpt lat="42.79175" lon="1.40489">
        <ele>2008.81</ele>
        <time>2011-02-26T10:14:14Z</time>
      </trkpt>
      <trkpt lat="42.7917" lon="1.40487">
        <ele>2009.77</ele>
        <time>2011-02-26T10:14:25Z</time>
      </trkpt>
      <trkpt lat="42.79167" lon="1.40486">
        <ele>2010.25</ele>
        <time>2011-02-26T10:14:40Z</time>
      </trkpt>
      <trkpt lat="42.79163" lon="1.40481">
        <ele>2010.73</ele>
        <time>2011-02-26T10:14:51Z</time>
      </trkpt>
      <trkpt lat="42.79161" lon="1.4048">
        <ele>2010.25</ele>
        <time>2011-02-26T10:14:53Z</time>
      </trkpt>
      <trkpt lat="42.79156" lon="1.40477">
        <ele>2011.7</ele>
        <time>2011-02-26T10:15:04Z</time>
      </trkpt>
      <trkpt lat="42.79149" lon="1.40474">
        <ele>2013.14</ele>
        <time>2011-02-26T10:15:17Z</time>
      </trkpt>
      <trkpt lat="42.79143" lon="1.40473">
        <ele>2015.54</ele>
        <time>2011-02-26T10:15:30Z</time>
      </trkpt>
      <trkpt lat="42.79136" lon="1.40471">
        <ele>2015.54</ele>
        <time>2011-02-26T10:15:39Z</time>
      </trkpt>
      <trkpt lat="42.79131" lon="1.40469">
        <ele>2017.94</ele>
        <time>2011-02-26T10:15:49Z</time>
      </trkpt>
      <trkpt lat="42.79125" lon="1.40468">
        <ele>2019.39</ele>
        <time>2011-02-26T10:15:59Z</time>
      </trkpt>
      <trkpt lat="42.79122" lon="1.40468">
        <ele>2019.87</ele>
        <time>2011-02-26T10:16:10Z</time>
      </trkpt>
      <trkpt lat="42.79118" lon="1.40467">
        <ele>2021.31</ele>
        <time>2011-02-26T10:16:19Z</time>
      </trkpt>
      <trkpt lat="42.79113" lon="1.40468">
        <ele>2022.27</ele>
        <time>2011-02-26T10:16:29Z</time>
      </trkpt>
      <trkpt lat="42.79107" lon="1.40467">
        <ele>2023.71</ele>
        <time>2011-02-26T10:16:39Z</time>
      </trkpt>
      <trkpt lat="42.79103" lon="1.40467">
        <ele>2023.71</ele>
        <time>2011-02-26T10:16:51Z</time>
      </trkpt>
      <trkpt lat="42.79096" lon="1.40469">
        <ele>2025.64</ele>
        <time>2011-02-26T10:17:02Z</time>
      </trkpt>
      <trkpt lat="42.79091" lon="1.40471">
        <ele>2029</ele>
        <time>2011-02-26T10:17:15Z</time>
      </trkpt>
      <trkpt lat="42.79085" lon="1.40474">
        <ele>2029.48</ele>
        <time>2011-02-26T10:17:26Z</time>
      </trkpt>
      <trkpt lat="42.7908" lon="1.40475">
        <ele>2030.92</ele>
        <time>2011-02-26T10:17:41Z</time>
      </trkpt>
      <trkpt lat="42.79074" lon="1.40479">
        <ele>2033.33</ele>
        <time>2011-02-26T10:17:54Z</time>
      </trkpt>
      <trkpt lat="42.79068" lon="1.40485">
        <ele>2034.77</ele>
        <time>2011-02-26T10:18:06Z</time>
      </trkpt>
      <trkpt lat="42.79068" lon="1.40485">
        <ele>2035.25</ele>
        <time>2011-02-26T10:18:07Z</time>
      </trkpt>
      <trkpt lat="42.79062" lon="1.4049">
        <ele>2035.73</ele>
        <time>2011-02-26T10:18:19Z</time>
      </trkpt>
      <trkpt lat="42.79057" lon="1.40492">
        <ele>2038.61</ele>
        <time>2011-02-26T10:18:31Z</time>
      </trkpt>
      <trkpt lat="42.7905" lon="1.40497">
        <ele>2040.54</ele>
        <time>2011-02-26T10:18:42Z</time>
      </trkpt>
      <trkpt lat="42.79048" lon="1.40498">
        <ele>2041.02</ele>
        <time>2011-02-26T10:18:47Z</time>
      </trkpt>
      <trkpt lat="42.79046" lon="1.40498">
        <ele>2041.5</ele>
        <time>2011-02-26T10:19:03Z</time>
      </trkpt>
      <trkpt lat="42.79045" lon="1.40501">
        <ele>2042.46</ele>
        <time>2011-02-26T10:19:12Z</time>
      </trkpt>
      <trkpt lat="42.79045" lon="1.40503">
        <ele>2043.42</ele>
        <time>2011-02-26T10:19:29Z</time>
      </trkpt>
      <trkpt lat="42.79047" lon="1.40513">
        <ele>2044.86</ele>
        <time>2011-02-26T10:19:39Z</time>
      </trkpt>
      <trkpt lat="42.79049" lon="1.40518">
        <ele>2045.82</ele>
        <time>2011-02-26T10:19:46Z</time>
      </trkpt>
      <trkpt lat="42.79052" lon="1.40526">
        <ele>2048.71</ele>
        <time>2011-02-26T10:19:57Z</time>
      </trkpt>
      <trkpt lat="42.79055" lon="1.40539">
        <ele>2050.63</ele>
        <time>2011-02-26T10:20:11Z</time>
      </trkpt>
      <trkpt lat="42.79057" lon="1.40543">
        <ele>2052.55</ele>
        <time>2011-02-26T10:20:17Z</time>
      </trkpt>
      <trkpt lat="42.79058" lon="1.40551">
        <ele>2054.96</ele>
        <time>2011-02-26T10:20:28Z</time>
      </trkpt>
      <trkpt lat="42.79059" lon="1.40559">
        <ele>2058.32</ele>
        <time>2011-02-26T10:20:39Z</time>
      </trkpt>
      <trkpt lat="42.7906" lon="1.40573">
        <ele>2059.28</ele>
        <time>2011-02-26T10:20:51Z</time>
      </trkpt>
      <trkpt lat="42.7906" lon="1.40576">
        <ele>2060.72</ele>
        <time>2011-02-26T10:20:54Z</time>
      </trkpt>
      <trkpt lat="42.7906" lon="1.40579">
        <ele>2061.2</ele>
        <time>2011-02-26T10:20:57Z</time>
      </trkpt>
      <trkpt lat="42.79059" lon="1.40592">
        <ele>2064.57</ele>
        <time>2011-02-26T10:21:09Z</time>
      </trkpt>
      <trkpt lat="42.79058" lon="1.40599">
        <ele>2065.05</ele>
        <time>2011-02-26T10:21:17Z</time>
      </trkpt>
      <trkpt lat="42.79054" lon="1.40601">
        <ele>2066.49</ele>
        <time>2011-02-26T10:21:21Z</time>
      </trkpt>
      <trkpt lat="42.79047" lon="1.40603">
        <ele>2067.93</ele>
        <time>2011-02-26T10:21:29Z</time>
      </trkpt>
      <trkpt lat="42.79045" lon="1.40604">
        <ele>2068.89</ele>
        <time>2011-02-26T10:21:31Z</time>
      </trkpt>
      <trkpt lat="42.79043" lon="1.40604">
        <ele>2067.93</ele>
        <time>2011-02-26T10:21:33Z</time>
      </trkpt>
      <trkpt lat="42.7904" lon="1.40606">
        <ele>2069.38</ele>
        <time>2011-02-26T10:21:37Z</time>
      </trkpt>
      <trkpt lat="42.79034" lon="1.40608">
        <ele>2071.3</ele>
        <time>2011-02-26T10:21:45Z</time>
      </trkpt>
      <trkpt lat="42.79027" lon="1.40613">
        <ele>2073.7</ele>
        <time>2011-02-26T10:21:57Z</time>
      </trkpt>
      <trkpt lat="42.79026" lon="1.40616">
        <ele>2077.07</ele>
        <time>2011-02-26T10:22:00Z</time>
      </trkpt>
      <trkpt lat="42.79025" lon="1.40617">
        <ele>2076.59</ele>
        <time>2011-02-26T10:22:01Z</time>
      </trkpt>
      <trkpt lat="42.79025" lon="1.40628">
        <ele>2077.55</ele>
        <time>2011-02-26T10:22:13Z</time>
      </trkpt>
      <trkpt lat="42.79024" lon="1.40631">
        <ele>2078.99</ele>
        <time>2011-02-26T10:22:17Z</time>
      </trkpt>
      <trkpt lat="42.79024" lon="1.40635">
        <ele>2082.35</ele>
        <time>2011-02-26T10:22:22Z</time>
      </trkpt>
      <trkpt lat="42.79024" lon="1.40635">
        <ele>2079.95</ele>
        <time>2011-02-26T10:22:25Z</time>
      </trkpt>
      <trkpt lat="42.79024" lon="1.40639">
        <ele>2082.35</ele>
        <time>2011-02-26T10:22:29Z</time>
      </trkpt>
      <trkpt lat="42.79024" lon="1.40641">
        <ele>2084.76</ele>
        <time>2011-02-26T10:22:31Z</time>
      </trkpt>
      <trkpt lat="42.79022" lon="1.40652">
        <ele>2083.79</ele>
        <time>2011-02-26T10:22:43Z</time>
      </trkpt>
      <trkpt lat="42.79021" lon="1.40659">
        <ele>2083.31</ele>
        <time>2011-02-26T10:22:52Z</time>
      </trkpt>
      <trkpt lat="42.79021" lon="1.4066">
        <ele>2084.28</ele>
        <time>2011-02-26T10:23:02Z</time>
      </trkpt>
      <trkpt lat="42.7902" lon="1.4066">
        <ele>2082.35</ele>
        <time>2011-02-26T10:23:17Z</time>
      </trkpt>
      <trkpt lat="42.79021" lon="1.4066">
        <ele>2083.31</ele>
        <time>2011-02-26T10:23:34Z</time>
      </trkpt>
      <trkpt lat="42.79021" lon="1.4066">
        <ele>2083.31</ele>
        <time>2011-02-26T10:23:35Z</time>
      </trkpt>
      <trkpt lat="42.7902" lon="1.4066">
        <ele>2084.28</ele>
        <time>2011-02-26T10:23:47Z</time>
      </trkpt>
      <trkpt lat="42.7902" lon="1.4066">
        <ele>2078.03</ele>
        <time>2011-02-26T10:23:48Z</time>
      </trkpt>
      <trkpt lat="42.7902" lon="1.4066">
        <ele>2080.43</ele>
        <time>2011-02-26T10:23:49Z</time>
      </trkpt>
      <trkpt lat="42.7902" lon="1.4066">
        <ele>2081.39</ele>
        <time>2011-02-26T10:23:51Z</time>
      </trkpt>
      <trkpt lat="42.7902" lon="1.4066">
        <ele>2084.28</ele>
        <time>2011-02-26T10:28:15Z</time>
      </trkpt>
      <trkpt lat="42.7902" lon="1.4066">
        <ele>2079.95</ele>
        <time>2011-02-26T10:28:16Z</time>
      </trkpt>
      <trkpt lat="42.7902" lon="1.4066">
        <ele>2080.43</ele>
        <time>2011-02-26T10:28:17Z</time>
      </trkpt>
      <trkpt lat="42.79021" lon="1.4066">
        <ele>2084.76</ele>
        <time>2011-02-26T10:34:22Z</time>
      </trkpt>
      <trkpt lat="42.7902" lon="1.4066">
        <ele>2082.83</ele>
        <time>2011-02-26T10:34:23Z</time>
      </trkpt>
      <trkpt lat="42.7902" lon="1.4066">
        <ele>2080.43</ele>
        <time>2011-02-26T10:34:26Z</time>
      </trkpt>
      <trkpt lat="42.7902" lon="1.40659">
        <ele>2080.43</ele>
        <time>2011-02-26T10:37:41Z</time>
      </trkpt>
      <trkpt lat="42.7902" lon="1.40659">
        <ele>2083.79</ele>
        <time>2011-02-26T10:37:42Z</time>
      </trkpt>
      <trkpt lat="42.7902" lon="1.40659">
        <ele>2082.35</ele>
        <time>2011-02-26T10:37:56Z</time>
      </trkpt>
      <trkpt lat="42.7902" lon="1.40658">
        <ele>2082.35</ele>
        <time>2011-02-26T10:38:22Z</time>
      </trkpt>
      <trkpt lat="42.79019" lon="1.40657">
        <ele>2083.31</ele>
        <time>2011-02-26T10:38:46Z</time>
      </trkpt>
      <trkpt lat="42.79019" lon="1.40657">
        <ele>2079.95</ele>
        <time>2011-02-26T10:38:54Z</time>
      </trkpt>
      <trkpt lat="42.79019" lon="1.40657">
        <ele>2082.83</ele>
        <time>2011-02-26T10:39:00Z</time>
      </trkpt>
      <trkpt lat="42.79019" lon="1.40657">
        <ele>2082.35</ele>
        <time>2011-02-26T10:39:27Z</time>
      </trkpt>
      <trkpt lat="42.7902" lon="1.40657">
        <ele>2081.87</ele>
        <time>2011-02-26T10:39:54Z</time>
      </trkpt>
      <trkpt lat="42.7902" lon="1.40657">
        <ele>2080.91</ele>
        <time>2011-02-26T10:40:04Z</time>
      </trkpt>
      <trkpt lat="42.7902" lon="1.40657">
        <ele>2081.39</ele>
        <time>2011-02-26T10:40:17Z</time>
      </trkpt>
      <trkpt lat="42.79019" lon="1.40657">
        <ele>2081.39</ele>
        <time>2011-02-26T10:40:35Z</time>
      </trkpt>
      <trkpt lat="42.79019" lon="1.40656">
        <ele>2081.39</ele>
        <time>2011-02-26T10:41:12Z</time>
      </trkpt>
      <trkpt lat="42.79019" lon="1.40656">
        <ele>2081.87</ele>
        <time>2011-02-26T10:41:23Z</time>
      </trkpt>
      <trkpt lat="42.79017" lon="1.40658">
        <ele>2080.91</ele>
        <time>2011-02-26T10:41:29Z</time>
      </trkpt>
      <trkpt lat="42.79012" lon="1.40664">
        <ele>2079.95</ele>
        <time>2011-02-26T10:41:34Z</time>
      </trkpt>
      <trkpt lat="42.79003" lon="1.40659">
        <ele>2075.14</ele>
        <time>2011-02-26T10:41:38Z</time>
      </trkpt>
      <trkpt lat="42.79" lon="1.40663">
        <ele>2073.7</ele>
        <time>2011-02-26T10:41:40Z</time>
      </trkpt>
      <trkpt lat="42.78998" lon="1.40667">
        <ele>2072.74</ele>
        <time>2011-02-26T10:41:42Z</time>
      </trkpt>
      <trkpt lat="42.78998" lon="1.40667">
        <ele>2073.7</ele>
        <time>2011-02-26T10:41:44Z</time>
      </trkpt>
      <trkpt lat="42.7899" lon="1.40667">
        <ele>2068.89</ele>
        <time>2011-02-26T10:41:50Z</time>
      </trkpt>
      <trkpt lat="42.7899" lon="1.40667">
        <ele>2068.89</ele>
        <time>2011-02-26T10:41:51Z</time>
      </trkpt>
      <trkpt lat="42.78988" lon="1.40668">
        <ele>2069.38</ele>
        <time>2011-02-26T10:41:58Z</time>
      </trkpt>
      <trkpt lat="42.78985" lon="1.40665">
        <ele>2067.93</ele>
        <time>2011-02-26T10:42:00Z</time>
      </trkpt>
      <trkpt lat="42.78977" lon="1.40662">
        <ele>2063.61</ele>
        <time>2011-02-26T10:42:03Z</time>
      </trkpt>
      <trkpt lat="42.78972" lon="1.40662">
        <ele>2063.61</ele>
        <time>2011-02-26T10:42:04Z</time>
      </trkpt>
      <trkpt lat="42.78968" lon="1.40663">
        <ele>2060.72</ele>
        <time>2011-02-26T10:42:05Z</time>
      </trkpt>
      <trkpt lat="42.78958" lon="1.40669">
        <ele>2057.36</ele>
        <time>2011-02-26T10:42:08Z</time>
      </trkpt>
      <trkpt lat="42.78952" lon="1.40674">
        <ele>2055.92</ele>
        <time>2011-02-26T10:42:11Z</time>
      </trkpt>
      <trkpt lat="42.78948" lon="1.40675">
        <ele>2054.96</ele>
        <time>2011-02-26T10:42:21Z</time>
      </trkpt>
      <trkpt lat="42.78947" lon="1.40675">
        <ele>2053.99</ele>
        <time>2011-02-26T10:42:22Z</time>
      </trkpt>
      <trkpt lat="42.78945" lon="1.40676">
        <ele>2053.51</ele>
        <time>2011-02-26T10:42:23Z</time>
      </trkpt>
      <trkpt lat="42.78944" lon="1.40677">
        <ele>2053.51</ele>
        <time>2011-02-26T10:42:24Z</time>
      </trkpt>
      <trkpt lat="42.78942" lon="1.40677">
        <ele>2053.03</ele>
        <time>2011-02-26T10:42:31Z</time>
      </trkpt>
      <trkpt lat="42.78943" lon="1.40677">
        <ele>2052.55</ele>
        <time>2011-02-26T10:42:37Z</time>
      </trkpt>
      <trkpt lat="42.7894" lon="1.40678">
        <ele>2052.07</ele>
        <time>2011-02-26T10:42:38Z</time>
      </trkpt>
      <trkpt lat="42.78937" lon="1.4068">
        <ele>2051.59</ele>
        <time>2011-02-26T10:42:39Z</time>
      </trkpt>
      <trkpt lat="42.78934" lon="1.40682">
        <ele>2050.63</ele>
        <time>2011-02-26T10:42:40Z</time>
      </trkpt>
      <trkpt lat="42.78931" lon="1.40682">
        <ele>2049.19</ele>
        <time>2011-02-26T10:42:41Z</time>
      </trkpt>
      <trkpt lat="42.78929" lon="1.40678">
        <ele>2049.67</ele>
        <time>2011-02-26T10:42:42Z</time>
      </trkpt>
      <trkpt lat="42.78926" lon="1.4067">
        <ele>2046.3</ele>
        <time>2011-02-26T10:42:44Z</time>
      </trkpt>
      <trkpt lat="42.78922" lon="1.40664">
        <ele>2042.46</ele>
        <time>2011-02-26T10:42:46Z</time>
      </trkpt>
      <trkpt lat="42.78921" lon="1.40662">
        <ele>2039.57</ele>
        <time>2011-02-26T10:42:47Z</time>
      </trkpt>
      <trkpt lat="42.78917" lon="1.40662">
        <ele>2035.73</ele>
        <time>2011-02-26T10:42:49Z</time>
      </trkpt>
      <trkpt lat="42.7891" lon="1.40667">
        <ele>2032.84</ele>
        <time>2011-02-26T10:42:53Z</time>
      </trkpt>
      <trkpt lat="42.78906" lon="1.40671">
        <ele>2031.4</ele>
        <time>2011-02-26T10:42:55Z</time>
      </trkpt>
      <trkpt lat="42.78893" lon="1.40683">
        <ele>2027.56</ele>
        <time>2011-02-26T10:43:01Z</time>
      </trkpt>
      <trkpt lat="42.78891" lon="1.40685">
        <ele>2027.08</ele>
        <time>2011-02-26T10:43:02Z</time>
      </trkpt>
      <trkpt lat="42.7889" lon="1.40686">
        <ele>2026.12</ele>
        <time>2011-02-26T10:43:04Z</time>
      </trkpt>
      <trkpt lat="42.78884" lon="1.40683">
        <ele>2026.12</ele>
        <time>2011-02-26T10:43:06Z</time>
      </trkpt>
      <trkpt lat="42.7888" lon="1.40682">
        <ele>2023.71</ele>
        <time>2011-02-26T10:43:07Z</time>
      </trkpt>
      <trkpt lat="42.78875" lon="1.40679">
        <ele>2021.79</ele>
        <time>2011-02-26T10:43:08Z</time>
      </trkpt>
      <trkpt lat="42.78869" lon="1.40676">
        <ele>2019.39</ele>
        <time>2011-02-26T10:43:09Z</time>
      </trkpt>
      <trkpt lat="42.78863" lon="1.40678">
        <ele>2015.06</ele>
        <time>2011-02-26T10:43:10Z</time>
      </trkpt>
      <trkpt lat="42.78859" lon="1.40679">
        <ele>2013.62</ele>
        <time>2011-02-26T10:43:11Z</time>
      </trkpt>
      <trkpt lat="42.78854" lon="1.40677">
        <ele>2013.14</ele>
        <time>2011-02-26T10:43:12Z</time>
      </trkpt>
      <trkpt lat="42.78848" lon="1.40677">
        <ele>2008.81</ele>
        <time>2011-02-26T10:43:13Z</time>
      </trkpt>
      <trkpt lat="42.78843" lon="1.40679">
        <ele>2005.45</ele>
        <time>2011-02-26T10:43:14Z</time>
      </trkpt>
      <trkpt lat="42.78838" lon="1.40678">
        <ele>2005.93</ele>
        <time>2011-02-26T10:43:15Z</time>
      </trkpt>
      <trkpt lat="42.78832" lon="1.40677">
        <ele>2004.01</ele>
        <time>2011-02-26T10:43:16Z</time>
      </trkpt>
      <trkpt lat="42.78827" lon="1.40678">
        <ele>2000.64</ele>
        <time>2011-02-26T10:43:17Z</time>
      </trkpt>
      <trkpt lat="42.78822" lon="1.40675">
        <ele>2000.16</ele>
        <time>2011-02-26T10:43:18Z</time>
      </trkpt>
      <trkpt lat="42.78818" lon="1.40673">
        <ele>1996.8</ele>
        <time>2011-02-26T10:43:19Z</time>
      </trkpt>
      <trkpt lat="42.78814" lon="1.40675">
        <ele>1994.87</ele>
        <time>2011-02-26T10:43:20Z</time>
      </trkpt>
      <trkpt lat="42.7881" lon="1.40677">
        <ele>1991.99</ele>
        <time>2011-02-26T10:43:21Z</time>
      </trkpt>
      <trkpt lat="42.78806" lon="1.40675">
        <ele>1991.99</ele>
        <time>2011-02-26T10:43:22Z</time>
      </trkpt>
      <trkpt lat="42.78801" lon="1.40673">
        <ele>1987.66</ele>
        <time>2011-02-26T10:43:23Z</time>
      </trkpt>
      <trkpt lat="42.78797" lon="1.40676">
        <ele>1984.78</ele>
        <time>2011-02-26T10:43:24Z</time>
      </trkpt>
      <trkpt lat="42.78794" lon="1.40678">
        <ele>1983.82</ele>
        <time>2011-02-26T10:43:25Z</time>
      </trkpt>
      <trkpt lat="42.7878" lon="1.40671">
        <ele>1976.61</ele>
        <time>2011-02-26T10:43:28Z</time>
      </trkpt>
      <trkpt lat="42.78774" lon="1.40672">
        <ele>1976.61</ele>
        <time>2011-02-26T10:43:29Z</time>
      </trkpt>
      <trkpt lat="42.78768" lon="1.40674">
        <ele>1972.28</ele>
        <time>2011-02-26T10:43:30Z</time>
      </trkpt>
      <trkpt lat="42.78762" lon="1.40676">
        <ele>1971.32</ele>
        <time>2011-02-26T10:43:31Z</time>
      </trkpt>
      <trkpt lat="42.78757" lon="1.40681">
        <ele>1965.55</ele>
        <time>2011-02-26T10:43:32Z</time>
      </trkpt>
      <trkpt lat="42.78752" lon="1.40684">
        <ele>1965.07</ele>
        <time>2011-02-26T10:43:33Z</time>
      </trkpt>
      <trkpt lat="42.78746" lon="1.40685">
        <ele>1964.11</ele>
        <time>2011-02-26T10:43:34Z</time>
      </trkpt>
      <trkpt lat="42.78741" lon="1.40688">
        <ele>1958.82</ele>
        <time>2011-02-26T10:43:35Z</time>
      </trkpt>
      <trkpt lat="42.78738" lon="1.40693">
        <ele>1955.46</ele>
        <time>2011-02-26T10:43:36Z</time>
      </trkpt>
      <trkpt lat="42.78733" lon="1.40697">
        <ele>1955.46</ele>
        <time>2011-02-26T10:43:37Z</time>
      </trkpt>
      <trkpt lat="42.78728" lon="1.40701">
        <ele>1951.13</ele>
        <time>2011-02-26T10:43:38Z</time>
      </trkpt>
      <trkpt lat="42.78722" lon="1.40705">
        <ele>1950.65</ele>
        <time>2011-02-26T10:43:39Z</time>
      </trkpt>
      <trkpt lat="42.78717" lon="1.40711">
        <ele>1946.81</ele>
        <time>2011-02-26T10:43:40Z</time>
      </trkpt>
      <trkpt lat="42.78713" lon="1.40716">
        <ele>1945.36</ele>
        <time>2011-02-26T10:43:41Z</time>
      </trkpt>
      <trkpt lat="42.78708" lon="1.40721">
        <ele>1943.44</ele>
        <time>2011-02-26T10:43:42Z</time>
      </trkpt>
      <trkpt lat="42.78704" lon="1.40724">
        <ele>1943.44</ele>
        <time>2011-02-26T10:43:43Z</time>
      </trkpt>
      <trkpt lat="42.78702" lon="1.40729">
        <ele>1940.08</ele>
        <time>2011-02-26T10:43:46Z</time>
      </trkpt>
      <trkpt lat="42.78706" lon="1.40734">
        <ele>1940.56</ele>
        <time>2011-02-26T10:43:59Z</time>
      </trkpt>
      <trkpt lat="42.78706" lon="1.40734">
        <ele>1940.56</ele>
        <time>2011-02-26T10:44:30Z</time>
      </trkpt>
      <trkpt lat="42.78706" lon="1.40732">
        <ele>1941.04</ele>
        <time>2011-02-26T10:44:52Z</time>
      </trkpt>
      <trkpt lat="42.78705" lon="1.40731">
        <ele>1940.56</ele>
        <time>2011-02-26T10:45:54Z</time>
      </trkpt>
      <trkpt lat="42.78704" lon="1.40728">
        <ele>1939.6</ele>
        <time>2011-02-26T10:46:11Z</time>
      </trkpt>
      <trkpt lat="42.78703" lon="1.40726">
        <ele>1940.08</ele>
        <time>2011-02-26T10:46:28Z</time>
      </trkpt>
      <trkpt lat="42.78702" lon="1.40727">
        <ele>1938.16</ele>
        <time>2011-02-26T10:46:51Z</time>
      </trkpt>
      <trkpt lat="42.78692" lon="1.40741">
        <ele>1936.71</ele>
        <time>2011-02-26T10:46:57Z</time>
      </trkpt>
      <trkpt lat="42.78689" lon="1.40742">
        <ele>1937.67</ele>
        <time>2011-02-26T10:46:58Z</time>
      </trkpt>
      <trkpt lat="42.78685" lon="1.4074">
        <ele>1938.16</ele>
        <time>2011-02-26T10:46:59Z</time>
      </trkpt>
      <trkpt lat="42.78683" lon="1.40736">
        <ele>1936.23</ele>
        <time>2011-02-26T10:47:00Z</time>
      </trkpt>
      <trkpt lat="42.78681" lon="1.4073">
        <ele>1936.23</ele>
        <time>2011-02-26T10:47:01Z</time>
      </trkpt>
      <trkpt lat="42.7868" lon="1.40718">
        <ele>1934.79</ele>
        <time>2011-02-26T10:47:04Z</time>
      </trkpt>
      <trkpt lat="42.7868" lon="1.40714">
        <ele>1932.87</ele>
        <time>2011-02-26T10:47:25Z</time>
      </trkpt>
      <trkpt lat="42.78679" lon="1.40712">
        <ele>1932.87</ele>
        <time>2011-02-26T10:47:29Z</time>
      </trkpt>
      <trkpt lat="42.78672" lon="1.40704">
        <ele>1933.35</ele>
        <time>2011-02-26T10:47:32Z</time>
      </trkpt>
      <trkpt lat="42.78667" lon="1.40701">
        <ele>1931.91</ele>
        <time>2011-02-26T10:47:33Z</time>
      </trkpt>
      <trkpt lat="42.78661" lon="1.40697">
        <ele>1930.95</ele>
        <time>2011-02-26T10:47:34Z</time>
      </trkpt>
      <trkpt lat="42.78654" lon="1.40691">
        <ele>1929.02</ele>
        <time>2011-02-26T10:47:35Z</time>
      </trkpt>
      <trkpt lat="42.78647" lon="1.40685">
        <ele>1927.58</ele>
        <time>2011-02-26T10:47:36Z</time>
      </trkpt>
      <trkpt lat="42.78639" lon="1.40682">
        <ele>1922.77</ele>
        <time>2011-02-26T10:47:37Z</time>
      </trkpt>
      <trkpt lat="42.78631" lon="1.40678">
        <ele>1920.85</ele>
        <time>2011-02-26T10:47:38Z</time>
      </trkpt>
      <trkpt lat="42.78624" lon="1.40675">
        <ele>1917.97</ele>
        <time>2011-02-26T10:47:39Z</time>
      </trkpt>
      <trkpt lat="42.78616" lon="1.40676">
        <ele>1916.53</ele>
        <time>2011-02-26T10:47:40Z</time>
      </trkpt>
      <trkpt lat="42.78609" lon="1.40677">
        <ele>1915.08</ele>
        <time>2011-02-26T10:47:41Z</time>
      </trkpt>
      <trkpt lat="42.78602" lon="1.40674">
        <ele>1916.04</ele>
        <time>2011-02-26T10:47:42Z</time>
      </trkpt>
      <trkpt lat="42.78596" lon="1.4067">
        <ele>1913.64</ele>
        <time>2011-02-26T10:47:43Z</time>
      </trkpt>
      <trkpt lat="42.7859" lon="1.40664">
        <ele>1912.2</ele>
        <time>2011-02-26T10:47:44Z</time>
      </trkpt>
      <trkpt lat="42.78585" lon="1.40657">
        <ele>1911.72</ele>
        <time>2011-02-26T10:47:45Z</time>
      </trkpt>
      <trkpt lat="42.78578" lon="1.40651">
        <ele>1908.35</ele>
        <time>2011-02-26T10:47:46Z</time>
      </trkpt>
      <trkpt lat="42.78573" lon="1.40645">
        <ele>1907.39</ele>
        <time>2011-02-26T10:47:47Z</time>
      </trkpt>
      <trkpt lat="42.78568" lon="1.40638">
        <ele>1904.51</ele>
        <time>2011-02-26T10:47:48Z</time>
      </trkpt>
      <trkpt lat="42.78564" lon="1.40633">
        <ele>1901.63</ele>
        <time>2011-02-26T10:47:49Z</time>
      </trkpt>
      <trkpt lat="42.7856" lon="1.40632">
        <ele>1897.3</ele>
        <time>2011-02-26T10:47:50Z</time>
      </trkpt>
      <trkpt lat="42.78559" lon="1.40634">
        <ele>1897.3</ele>
        <time>2011-02-26T10:47:51Z</time>
      </trkpt>
      <trkpt lat="42.78558" lon="1.40636">
        <ele>1897.78</ele>
        <time>2011-02-26T10:47:52Z</time>
      </trkpt>
      <trkpt lat="42.78556" lon="1.40636">
        <ele>1898.26</ele>
        <time>2011-02-26T10:47:53Z</time>
      </trkpt>
      <trkpt lat="42.78555" lon="1.40635">
        <ele>1897.78</ele>
        <time>2011-02-26T10:47:54Z</time>
      </trkpt>
      <trkpt lat="42.78555" lon="1.40634">
        <ele>1897.78</ele>
        <time>2011-02-26T10:48:03Z</time>
      </trkpt>
      <trkpt lat="42.7855" lon="1.40619">
        <ele>1897.3</ele>
        <time>2011-02-26T10:48:07Z</time>
      </trkpt>
      <trkpt lat="42.78543" lon="1.40621">
        <ele>1892.49</ele>
        <time>2011-02-26T10:48:09Z</time>
      </trkpt>
      <trkpt lat="42.78536" lon="1.40627">
        <ele>1891.53</ele>
        <time>2011-02-26T10:48:11Z</time>
      </trkpt>
      <trkpt lat="42.78531" lon="1.40624">
        <ele>1892.01</ele>
        <time>2011-02-26T10:48:12Z</time>
      </trkpt>
      <trkpt lat="42.78526" lon="1.40623">
        <ele>1890.09</ele>
        <time>2011-02-26T10:48:13Z</time>
      </trkpt>
      <trkpt lat="42.78519" lon="1.40625">
        <ele>1885.76</ele>
        <time>2011-02-26T10:48:14Z</time>
      </trkpt>
      <trkpt lat="42.78513" lon="1.40626">
        <ele>1885.76</ele>
        <time>2011-02-26T10:48:15Z</time>
      </trkpt>
      <trkpt lat="42.78507" lon="1.40621">
        <ele>1885.76</ele>
        <time>2011-02-26T10:48:16Z</time>
      </trkpt>
      <trkpt lat="42.78502" lon="1.40614">
        <ele>1885.76</ele>
        <time>2011-02-26T10:48:17Z</time>
      </trkpt>
      <trkpt lat="42.78499" lon="1.40605">
        <ele>1883.84</ele>
        <time>2011-02-26T10:48:18Z</time>
      </trkpt>
      <trkpt lat="42.78496" lon="1.40599">
        <ele>1880.96</ele>
        <time>2011-02-26T10:48:19Z</time>
      </trkpt>
      <trkpt lat="42.78493" lon="1.40598">
        <ele>1877.11</ele>
        <time>2011-02-26T10:48:20Z</time>
      </trkpt>
      <trkpt lat="42.78489" lon="1.40597">
        <ele>1877.11</ele>
        <time>2011-02-26T10:48:21Z</time>
      </trkpt>
      <trkpt lat="42.78487" lon="1.40595">
        <ele>1877.59</ele>
        <time>2011-02-26T10:48:22Z</time>
      </trkpt>
      <trkpt lat="42.78487" lon="1.40593">
        <ele>1875.67</ele>
        <time>2011-02-26T10:48:23Z</time>
      </trkpt>
      <trkpt lat="42.78487" lon="1.40592">
        <ele>1874.23</ele>
        <time>2011-02-26T10:48:25Z</time>
      </trkpt>
      <trkpt lat="42.78487" lon="1.40592">
        <ele>1873.75</ele>
        <time>2011-02-26T10:48:43Z</time>
      </trkpt>
      <trkpt lat="42.78487" lon="1.40592">
        <ele>1873.75</ele>
        <time>2011-02-26T10:48:54Z</time>
      </trkpt>
      <trkpt lat="42.78487" lon="1.4059">
        <ele>1873.75</ele>
        <time>2011-02-26T10:49:13Z</time>
      </trkpt>
      <trkpt lat="42.78487" lon="1.40588">
        <ele>1875.67</ele>
        <time>2011-02-26T10:49:28Z</time>
      </trkpt>
      <trkpt lat="42.78485" lon="1.40586">
        <ele>1875.19</ele>
        <time>2011-02-26T10:49:29Z</time>
      </trkpt>
      <trkpt lat="42.78483" lon="1.40583">
        <ele>1874.71</ele>
        <time>2011-02-26T10:49:30Z</time>
      </trkpt>
      <trkpt lat="42.78481" lon="1.40579">
        <ele>1872.79</ele>
        <time>2011-02-26T10:49:31Z</time>
      </trkpt>
      <trkpt lat="42.78478" lon="1.40575">
        <ele>1870.86</ele>
        <time>2011-02-26T10:49:32Z</time>
      </trkpt>
      <trkpt lat="42.78473" lon="1.40573">
        <ele>1869.42</ele>
        <time>2011-02-26T10:49:33Z</time>
      </trkpt>
      <trkpt lat="42.78467" lon="1.40569">
        <ele>1869.42</ele>
        <time>2011-02-26T10:49:34Z</time>
      </trkpt>
      <trkpt lat="42.78462" lon="1.40565">
        <ele>1869.42</ele>
        <time>2011-02-26T10:49:35Z</time>
      </trkpt>
      <trkpt lat="42.78457" lon="1.40561">
        <ele>1868.46</ele>
        <time>2011-02-26T10:49:36Z</time>
      </trkpt>
      <trkpt lat="42.78453" lon="1.40556">
        <ele>1867.5</ele>
        <time>2011-02-26T10:49:37Z</time>
      </trkpt>
      <trkpt lat="42.78449" lon="1.40553">
        <ele>1865.09</ele>
        <time>2011-02-26T10:49:38Z</time>
      </trkpt>
      <trkpt lat="42.78446" lon="1.40551">
        <ele>1865.58</ele>
        <time>2011-02-26T10:49:39Z</time>
      </trkpt>
      <trkpt lat="42.78435" lon="1.40546">
        <ele>1862.21</ele>
        <time>2011-02-26T10:49:43Z</time>
      </trkpt>
      <trkpt lat="42.7843" lon="1.40545">
        <ele>1860.29</ele>
        <time>2011-02-26T10:49:44Z</time>
      </trkpt>
      <trkpt lat="42.78424" lon="1.40545">
        <ele>1859.33</ele>
        <time>2011-02-26T10:49:45Z</time>
      </trkpt>
      <trkpt lat="42.78412" lon="1.40546">
        <ele>1859.33</ele>
        <time>2011-02-26T10:49:47Z</time>
      </trkpt>
      <trkpt lat="42.78407" lon="1.40543">
        <ele>1858.85</ele>
        <time>2011-02-26T10:49:48Z</time>
      </trkpt>
      <trkpt lat="42.78406" lon="1.40539">
        <ele>1858.37</ele>
        <time>2011-02-26T10:49:49Z</time>
      </trkpt>
      <trkpt lat="42.78407" lon="1.40534">
        <ele>1857.4</ele>
        <time>2011-02-26T10:49:50Z</time>
      </trkpt>
      <trkpt lat="42.78407" lon="1.40531">
        <ele>1858.37</ele>
        <time>2011-02-26T10:49:51Z</time>
      </trkpt>
      <trkpt lat="42.78406" lon="1.40527">
        <ele>1856.92</ele>
        <time>2011-02-26T10:49:52Z</time>
      </trkpt>
      <trkpt lat="42.78409" lon="1.40521">
        <ele>1854.04</ele>
        <time>2011-02-26T10:49:57Z</time>
      </trkpt>
      <trkpt lat="42.7841" lon="1.4052">
        <ele>1853.08</ele>
        <time>2011-02-26T10:50:12Z</time>
      </trkpt>
      <trkpt lat="42.78409" lon="1.4052">
        <ele>1852.6</ele>
        <time>2011-02-26T10:50:40Z</time>
      </trkpt>
      <trkpt lat="42.78409" lon="1.40519">
        <ele>1852.6</ele>
        <time>2011-02-26T10:51:02Z</time>
      </trkpt>
      <trkpt lat="42.78408" lon="1.40519">
        <ele>1853.08</ele>
        <time>2011-02-26T10:51:17Z</time>
      </trkpt>
      <trkpt lat="42.78403" lon="1.40512">
        <ele>1850.19</ele>
        <time>2011-02-26T10:51:22Z</time>
      </trkpt>
      <trkpt lat="42.78388" lon="1.40505">
        <ele>1847.31</ele>
        <time>2011-02-26T10:51:28Z</time>
      </trkpt>
      <trkpt lat="42.78378" lon="1.40504">
        <ele>1845.87</ele>
        <time>2011-02-26T10:51:31Z</time>
      </trkpt>
      <trkpt lat="42.78362" lon="1.40499">
        <ele>1844.43</ele>
        <time>2011-02-26T10:51:37Z</time>
      </trkpt>
      <trkpt lat="42.78352" lon="1.40482">
        <ele>1841.06</ele>
        <time>2011-02-26T10:51:44Z</time>
      </trkpt>
      <trkpt lat="42.78348" lon="1.40478">
        <ele>1839.14</ele>
        <time>2011-02-26T10:51:46Z</time>
      </trkpt>
      <trkpt lat="42.78346" lon="1.40476">
        <ele>1838.18</ele>
        <time>2011-02-26T10:51:47Z</time>
      </trkpt>
      <trkpt lat="42.78342" lon="1.40473">
        <ele>1837.22</ele>
        <time>2011-02-26T10:51:49Z</time>
      </trkpt>
      <trkpt lat="42.78337" lon="1.40469">
        <ele>1837.22</ele>
        <time>2011-02-26T10:51:51Z</time>
      </trkpt>
      <trkpt lat="42.78334" lon="1.40458">
        <ele>1837.22</ele>
        <time>2011-02-26T10:51:53Z</time>
      </trkpt>
      <trkpt lat="42.78332" lon="1.40454">
        <ele>1834.33</ele>
        <time>2011-02-26T10:51:54Z</time>
      </trkpt>
      <trkpt lat="42.78323" lon="1.40441">
        <ele>1831.93</ele>
        <time>2011-02-26T10:51:57Z</time>
      </trkpt>
      <trkpt lat="42.7832" lon="1.40436">
        <ele>1830.97</ele>
        <time>2011-02-26T10:51:58Z</time>
      </trkpt>
      <trkpt lat="42.78317" lon="1.40429">
        <ele>1829.53</ele>
        <time>2011-02-26T10:51:59Z</time>
      </trkpt>
      <trkpt lat="42.78315" lon="1.40424">
        <ele>1828.56</ele>
        <time>2011-02-26T10:52:00Z</time>
      </trkpt>
      <trkpt lat="42.78313" lon="1.40417">
        <ele>1828.56</ele>
        <time>2011-02-26T10:52:01Z</time>
      </trkpt>
      <trkpt lat="42.78312" lon="1.4041">
        <ele>1827.6</ele>
        <time>2011-02-26T10:52:02Z</time>
      </trkpt>
      <trkpt lat="42.7831" lon="1.40405">
        <ele>1825.2</ele>
        <time>2011-02-26T10:52:03Z</time>
      </trkpt>
      <trkpt lat="42.78308" lon="1.40399">
        <ele>1824.72</ele>
        <time>2011-02-26T10:52:04Z</time>
      </trkpt>
      <trkpt lat="42.78308" lon="1.40392">
        <ele>1824.24</ele>
        <time>2011-02-26T10:52:05Z</time>
      </trkpt>
      <trkpt lat="42.78306" lon="1.40387">
        <ele>1822.32</ele>
        <time>2011-02-26T10:52:06Z</time>
      </trkpt>
      <trkpt lat="42.78303" lon="1.40383">
        <ele>1819.43</ele>
        <time>2011-02-26T10:52:07Z</time>
      </trkpt>
      <trkpt lat="42.78301" lon="1.4038">
        <ele>1818.47</ele>
        <time>2011-02-26T10:52:08Z</time>
      </trkpt>
      <trkpt lat="42.78301" lon="1.40375">
        <ele>1817.51</ele>
        <time>2011-02-26T10:52:09Z</time>
      </trkpt>
      <trkpt lat="42.78301" lon="1.40371">
        <ele>1816.07</ele>
        <time>2011-02-26T10:52:10Z</time>
      </trkpt>
      <trkpt lat="42.78298" lon="1.40367">
        <ele>1814.63</ele>
        <time>2011-02-26T10:52:11Z</time>
      </trkpt>
      <trkpt lat="42.78294" lon="1.40365">
        <ele>1812.22</ele>
        <time>2011-02-26T10:52:12Z</time>
      </trkpt>
      <trkpt lat="42.78291" lon="1.40364">
        <ele>1811.26</ele>
        <time>2011-02-26T10:52:13Z</time>
      </trkpt>
      <trkpt lat="42.78289" lon="1.4036">
        <ele>1811.74</ele>
        <time>2011-02-26T10:52:14Z</time>
      </trkpt>
      <trkpt lat="42.7829" lon="1.40353">
        <ele>1810.78</ele>
        <time>2011-02-26T10:52:15Z</time>
      </trkpt>
      <trkpt lat="42.78289" lon="1.40347">
        <ele>1809.34</ele>
        <time>2011-02-26T10:52:16Z</time>
      </trkpt>
      <trkpt lat="42.78286" lon="1.40343">
        <ele>1805.49</ele>
        <time>2011-02-26T10:52:17Z</time>
      </trkpt>
      <trkpt lat="42.78282" lon="1.40343">
        <ele>1803.57</ele>
        <time>2011-02-26T10:52:18Z</time>
      </trkpt>
      <trkpt lat="42.78278" lon="1.40345">
        <ele>1801.65</ele>
        <time>2011-02-26T10:52:19Z</time>
      </trkpt>
      <trkpt lat="42.78273" lon="1.40348">
        <ele>1801.17</ele>
        <time>2011-02-26T10:52:20Z</time>
      </trkpt>
      <trkpt lat="42.7827" lon="1.4035">
        <ele>1799.73</ele>
        <time>2011-02-26T10:52:21Z</time>
      </trkpt>
      <trkpt lat="42.78267" lon="1.40348">
        <ele>1800.21</ele>
        <time>2011-02-26T10:52:22Z</time>
      </trkpt>
      <trkpt lat="42.7826" lon="1.40346">
        <ele>1796.36</ele>
        <time>2011-02-26T10:52:24Z</time>
      </trkpt>
      <trkpt lat="42.78256" lon="1.40348">
        <ele>1794.44</ele>
        <time>2011-02-26T10:52:25Z</time>
      </trkpt>
      <trkpt lat="42.78252" lon="1.40352">
        <ele>1793</ele>
        <time>2011-02-26T10:52:26Z</time>
      </trkpt>
      <trkpt lat="42.78247" lon="1.40353">
        <ele>1793</ele>
        <time>2011-02-26T10:52:27Z</time>
      </trkpt>
      <trkpt lat="42.78239" lon="1.40348">
        <ele>1791.55</ele>
        <time>2011-02-26T10:52:29Z</time>
      </trkpt>
      <trkpt lat="42.78236" lon="1.40346">
        <ele>1786.75</ele>
        <time>2011-02-26T10:52:30Z</time>
      </trkpt>
      <trkpt lat="42.78233" lon="1.40345">
        <ele>1786.27</ele>
        <time>2011-02-26T10:52:31Z</time>
      </trkpt>
      <trkpt lat="42.78231" lon="1.40344">
        <ele>1784.34</ele>
        <time>2011-02-26T10:52:32Z</time>
      </trkpt>
      <trkpt lat="42.78231" lon="1.40343">
        <ele>1781.46</ele>
        <time>2011-02-26T10:52:34Z</time>
      </trkpt>
      <trkpt lat="42.78231" lon="1.40344">
        <ele>1780.5</ele>
        <time>2011-02-26T10:52:46Z</time>
      </trkpt>
      <trkpt lat="42.78231" lon="1.40344">
        <ele>1780.98</ele>
        <time>2011-02-26T10:53:05Z</time>
      </trkpt>
      <trkpt lat="42.7823" lon="1.40345">
        <ele>1780.98</ele>
        <time>2011-02-26T10:53:34Z</time>
      </trkpt>
      <trkpt lat="42.78229" lon="1.40346">
        <ele>1780.98</ele>
        <time>2011-02-26T10:53:35Z</time>
      </trkpt>
      <trkpt lat="42.78229" lon="1.40348">
        <ele>1780.5</ele>
        <time>2011-02-26T10:53:45Z</time>
      </trkpt>
      <trkpt lat="42.78227" lon="1.40347">
        <ele>1780.5</ele>
        <time>2011-02-26T10:53:51Z</time>
      </trkpt>
      <trkpt lat="42.78225" lon="1.40347">
        <ele>1780.02</ele>
        <time>2011-02-26T10:53:52Z</time>
      </trkpt>
      <trkpt lat="42.78222" lon="1.40345">
        <ele>1780.02</ele>
        <time>2011-02-26T10:53:53Z</time>
      </trkpt>
      <trkpt lat="42.78217" lon="1.40335">
        <ele>1776.65</ele>
        <time>2011-02-26T10:53:55Z</time>
      </trkpt>
      <trkpt lat="42.7821" lon="1.40325">
        <ele>1772.33</ele>
        <time>2011-02-26T10:53:57Z</time>
      </trkpt>
      <trkpt lat="42.78206" lon="1.40317">
        <ele>1769.44</ele>
        <time>2011-02-26T10:53:58Z</time>
      </trkpt>
      <trkpt lat="42.78204" lon="1.40308">
        <ele>1767.04</ele>
        <time>2011-02-26T10:53:59Z</time>
      </trkpt>
      <trkpt lat="42.78203" lon="1.40301">
        <ele>1764.16</ele>
        <time>2011-02-26T10:54:00Z</time>
      </trkpt>
      <trkpt lat="42.782" lon="1.40295">
        <ele>1763.68</ele>
        <time>2011-02-26T10:54:01Z</time>
      </trkpt>
      <trkpt lat="42.78195" lon="1.4029">
        <ele>1761.27</ele>
        <time>2011-02-26T10:54:02Z</time>
      </trkpt>
      <trkpt lat="42.78188" lon="1.40288">
        <ele>1758.39</ele>
        <time>2011-02-26T10:54:03Z</time>
      </trkpt>
      <trkpt lat="42.78182" lon="1.40284">
        <ele>1757.43</ele>
        <time>2011-02-26T10:54:04Z</time>
      </trkpt>
      <trkpt lat="42.78177" lon="1.40277">
        <ele>1755.5</ele>
        <time>2011-02-26T10:54:05Z</time>
      </trkpt>
      <trkpt lat="42.78173" lon="1.40272">
        <ele>1753.1</ele>
        <time>2011-02-26T10:54:06Z</time>
      </trkpt>
      <trkpt lat="42.7817" lon="1.40269">
        <ele>1753.1</ele>
        <time>2011-02-26T10:54:07Z</time>
      </trkpt>
      <trkpt lat="42.78169" lon="1.40263">
        <ele>1751.66</ele>
        <time>2011-02-26T10:54:08Z</time>
      </trkpt>
      <trkpt lat="42.78168" lon="1.40258">
        <ele>1751.66</ele>
        <time>2011-02-26T10:54:09Z</time>
      </trkpt>
      <trkpt lat="42.78166" lon="1.40254">
        <ele>1749.26</ele>
        <time>2011-02-26T10:54:10Z</time>
      </trkpt>
      <trkpt lat="42.78165" lon="1.40253">
        <ele>1747.81</ele>
        <time>2011-02-26T10:54:11Z</time>
      </trkpt>
      <trkpt lat="42.78163" lon="1.40251">
        <ele>1747.33</ele>
        <time>2011-02-26T10:54:12Z</time>
      </trkpt>
      <trkpt lat="42.78162" lon="1.4025">
        <ele>1745.89</ele>
        <time>2011-02-26T10:54:15Z</time>
      </trkpt>
      <trkpt lat="42.78161" lon="1.4025">
        <ele>1745.89</ele>
        <time>2011-02-26T10:54:17Z</time>
      </trkpt>
      <trkpt lat="42.78158" lon="1.4025">
        <ele>1744.93</ele>
        <time>2011-02-26T10:54:30Z</time>
      </trkpt>
      <trkpt lat="42.78158" lon="1.4025">
        <ele>1745.41</ele>
        <time>2011-02-26T10:55:30Z</time>
      </trkpt>
      <trkpt lat="42.78158" lon="1.4025">
        <ele>1745.89</ele>
        <time>2011-02-26T10:56:14Z</time>
      </trkpt>
      <trkpt lat="42.78158" lon="1.4025">
        <ele>1745.89</ele>
        <time>2011-02-26T10:56:27Z</time>
      </trkpt>
      <trkpt lat="42.78158" lon="1.40249">
        <ele>1745.89</ele>
        <time>2011-02-26T10:56:44Z</time>
      </trkpt>
      <trkpt lat="42.78158" lon="1.40248">
        <ele>1745.41</ele>
        <time>2011-02-26T10:56:47Z</time>
      </trkpt>
      <trkpt lat="42.78167" lon="1.40237">
        <ele>1744.45</ele>
        <time>2011-02-26T10:56:52Z</time>
      </trkpt>
      <trkpt lat="42.78171" lon="1.40233">
        <ele>1743.49</ele>
        <time>2011-02-26T10:56:53Z</time>
      </trkpt>
      <trkpt lat="42.78174" lon="1.4023">
        <ele>1743.01</ele>
        <time>2011-02-26T10:56:54Z</time>
      </trkpt>
      <trkpt lat="42.78176" lon="1.40226">
        <ele>1743.49</ele>
        <time>2011-02-26T10:56:55Z</time>
      </trkpt>
      <trkpt lat="42.78178" lon="1.40222">
        <ele>1743.01</ele>
        <time>2011-02-26T10:56:56Z</time>
      </trkpt>
      <trkpt lat="42.78186" lon="1.4021">
        <ele>1741.08</ele>
        <time>2011-02-26T10:56:59Z</time>
      </trkpt>
      <trkpt lat="42.78197" lon="1.40194">
        <ele>1739.16</ele>
        <time>2011-02-26T10:57:03Z</time>
      </trkpt>
      <trkpt lat="42.78202" lon="1.40186">
        <ele>1738.68</ele>
        <time>2011-02-26T10:57:05Z</time>
      </trkpt>
      <trkpt lat="42.78206" lon="1.40182">
        <ele>1737.72</ele>
        <time>2011-02-26T10:57:06Z</time>
      </trkpt>
      <trkpt lat="42.78209" lon="1.40177">
        <ele>1736.76</ele>
        <time>2011-02-26T10:57:07Z</time>
      </trkpt>
      <trkpt lat="42.78213" lon="1.40173">
        <ele>1735.8</ele>
        <time>2011-02-26T10:57:08Z</time>
      </trkpt>
      <trkpt lat="42.78215" lon="1.40167">
        <ele>1735.32</ele>
        <time>2011-02-26T10:57:09Z</time>
      </trkpt>
      <trkpt lat="42.78218" lon="1.40162">
        <ele>1734.36</ele>
        <time>2011-02-26T10:57:10Z</time>
      </trkpt>
      <trkpt lat="42.78221" lon="1.40157">
        <ele>1733.39</ele>
        <time>2011-02-26T10:57:11Z</time>
      </trkpt>
      <trkpt lat="42.78224" lon="1.40152">
        <ele>1732.91</ele>
        <time>2011-02-26T10:57:12Z</time>
      </trkpt>
      <trkpt lat="42.78228" lon="1.40146">
        <ele>1732.43</ele>
        <time>2011-02-26T10:57:13Z</time>
      </trkpt>
      <trkpt lat="42.7824" lon="1.40127">
        <ele>1730.51</ele>
        <time>2011-02-26T10:57:16Z</time>
      </trkpt>
      <trkpt lat="42.78243" lon="1.4012">
        <ele>1730.03</ele>
        <time>2011-02-26T10:57:17Z</time>
      </trkpt>
      <trkpt lat="42.78247" lon="1.40114">
        <ele>1729.07</ele>
        <time>2011-02-26T10:57:18Z</time>
      </trkpt>
      <trkpt lat="42.78251" lon="1.4011">
        <ele>1728.11</ele>
        <time>2011-02-26T10:57:19Z</time>
      </trkpt>
      <trkpt lat="42.78255" lon="1.40106">
        <ele>1727.63</ele>
        <time>2011-02-26T10:57:20Z</time>
      </trkpt>
      <trkpt lat="42.7826" lon="1.40103">
        <ele>1726.18</ele>
        <time>2011-02-26T10:57:21Z</time>
      </trkpt>
      <trkpt lat="42.78264" lon="1.40101">
        <ele>1725.22</ele>
        <time>2011-02-26T10:57:22Z</time>
      </trkpt>
      <trkpt lat="42.78268" lon="1.40099">
        <ele>1724.74</ele>
        <time>2011-02-26T10:57:23Z</time>
      </trkpt>
      <trkpt lat="42.78271" lon="1.40099">
        <ele>1724.74</ele>
        <time>2011-02-26T10:57:24Z</time>
      </trkpt>
      <trkpt lat="42.78272" lon="1.40099">
        <ele>1724.74</ele>
        <time>2011-02-26T10:57:36Z</time>
      </trkpt>
      <trkpt lat="42.78272" lon="1.40099">
        <ele>1724.74</ele>
        <time>2011-02-26T10:58:00Z</time>
      </trkpt>
      <trkpt lat="42.78273" lon="1.40099">
        <ele>1725.22</ele>
        <time>2011-02-26T10:58:11Z</time>
      </trkpt>
      <trkpt lat="42.78277" lon="1.40096">
        <ele>1724.26</ele>
        <time>2011-02-26T10:58:16Z</time>
      </trkpt>
      <trkpt lat="42.78281" lon="1.40093">
        <ele>1723.3</ele>
        <time>2011-02-26T10:58:17Z</time>
      </trkpt>
      <trkpt lat="42.78285" lon="1.4009">
        <ele>1722.34</ele>
        <time>2011-02-26T10:58:18Z</time>
      </trkpt>
      <trkpt lat="42.78288" lon="1.40085">
        <ele>1722.34</ele>
        <time>2011-02-26T10:58:19Z</time>
      </trkpt>
      <trkpt lat="42.78291" lon="1.4008">
        <ele>1721.38</ele>
        <time>2011-02-26T10:58:20Z</time>
      </trkpt>
      <trkpt lat="42.78292" lon="1.40075">
        <ele>1720.42</ele>
        <time>2011-02-26T10:58:21Z</time>
      </trkpt>
      <trkpt lat="42.78293" lon="1.40072">
        <ele>1718.97</ele>
        <time>2011-02-26T10:58:22Z</time>
      </trkpt>
      <trkpt lat="42.78295" lon="1.4007">
        <ele>1718.97</ele>
        <time>2011-02-26T10:58:23Z</time>
      </trkpt>
      <trkpt lat="42.78296" lon="1.40069">
        <ele>1718.01</ele>
        <time>2011-02-26T10:58:33Z</time>
      </trkpt>
      <trkpt lat="42.78296" lon="1.40069">
        <ele>1718.01</ele>
        <time>2011-02-26T10:58:53Z</time>
      </trkpt>
      <trkpt lat="42.78296" lon="1.40068">
        <ele>1718.01</ele>
        <time>2011-02-26T10:59:41Z</time>
      </trkpt>
      <trkpt lat="42.78295" lon="1.40067">
        <ele>1718.97</ele>
        <time>2011-02-26T11:00:14Z</time>
      </trkpt>
      <trkpt lat="42.78296" lon="1.40067">
        <ele>1718.49</ele>
        <time>2011-02-26T11:00:37Z</time>
      </trkpt>
      <trkpt lat="42.78296" lon="1.40067">
        <ele>1718.01</ele>
        <time>2011-02-26T11:00:58Z</time>
      </trkpt>
      <trkpt lat="42.78298" lon="1.40065">
        <ele>1718.49</ele>
        <time>2011-02-26T11:01:09Z</time>
      </trkpt>
      <trkpt lat="42.78306" lon="1.40038">
        <ele>1715.61</ele>
        <time>2011-02-26T11:01:21Z</time>
      </trkpt>
      <trkpt lat="42.78301" lon="1.4004">
        <ele>1711.76</ele>
        <time>2011-02-26T11:01:24Z</time>
      </trkpt>
      <trkpt lat="42.78299" lon="1.40039">
        <ele>1711.76</ele>
        <time>2011-02-26T11:01:25Z</time>
      </trkpt>
      <trkpt lat="42.78292" lon="1.40036">
        <ele>1708.4</ele>
        <time>2011-02-26T11:01:27Z</time>
      </trkpt>
      <trkpt lat="42.78288" lon="1.40038">
        <ele>1706.48</ele>
        <time>2011-02-26T11:01:28Z</time>
      </trkpt>
      <trkpt lat="42.78284" lon="1.40041">
        <ele>1705.04</ele>
        <time>2011-02-26T11:01:29Z</time>
      </trkpt>
      <trkpt lat="42.7828" lon="1.40044">
        <ele>1704.55</ele>
        <time>2011-02-26T11:01:30Z</time>
      </trkpt>
      <trkpt lat="42.78276" lon="1.40045">
        <ele>1702.63</ele>
        <time>2011-02-26T11:01:31Z</time>
      </trkpt>
      <trkpt lat="42.78268" lon="1.40038">
        <ele>1699.27</ele>
        <time>2011-02-26T11:01:33Z</time>
      </trkpt>
      <trkpt lat="42.78259" lon="1.40025">
        <ele>1693.98</ele>
        <time>2011-02-26T11:01:36Z</time>
      </trkpt>
      <trkpt lat="42.78254" lon="1.40017">
        <ele>1691.58</ele>
        <time>2011-02-26T11:01:39Z</time>
      </trkpt>
      <trkpt lat="42.78253" lon="1.40011">
        <ele>1689.17</ele>
        <time>2011-02-26T11:01:40Z</time>
      </trkpt>
      <trkpt lat="42.7825" lon="1.40008">
        <ele>1685.81</ele>
        <time>2011-02-26T11:01:41Z</time>
      </trkpt>
      <trkpt lat="42.78248" lon="1.40006">
        <ele>1683.41</ele>
        <time>2011-02-26T11:01:42Z</time>
      </trkpt>
      <trkpt lat="42.78247" lon="1.40004">
        <ele>1682.44</ele>
        <time>2011-02-26T11:01:43Z</time>
      </trkpt>
      <trkpt lat="42.78248" lon="1.4">
        <ele>1682.44</ele>
        <time>2011-02-26T11:01:44Z</time>
      </trkpt>
      <trkpt lat="42.78251" lon="1.39997">
        <ele>1679.56</ele>
        <time>2011-02-26T11:01:45Z</time>
      </trkpt>
      <trkpt lat="42.78253" lon="1.39988">
        <ele>1674.27</ele>
        <time>2011-02-26T11:01:47Z</time>
      </trkpt>
      <trkpt lat="42.78251" lon="1.39984">
        <ele>1672.35</ele>
        <time>2011-02-26T11:01:48Z</time>
      </trkpt>
      <trkpt lat="42.78249" lon="1.39981">
        <ele>1671.39</ele>
        <time>2011-02-26T11:01:49Z</time>
      </trkpt>
      <trkpt lat="42.78245" lon="1.39979">
        <ele>1669.47</ele>
        <time>2011-02-26T11:01:50Z</time>
      </trkpt>
      <trkpt lat="42.78244" lon="1.39975">
        <ele>1668.99</ele>
        <time>2011-02-26T11:01:51Z</time>
      </trkpt>
      <trkpt lat="42.78242" lon="1.39969">
        <ele>1665.62</ele>
        <time>2011-02-26T11:01:52Z</time>
      </trkpt>
      <trkpt lat="42.78238" lon="1.39963">
        <ele>1663.22</ele>
        <time>2011-02-26T11:01:53Z</time>
      </trkpt>
      <trkpt lat="42.78237" lon="1.39957">
        <ele>1661.3</ele>
        <time>2011-02-26T11:01:54Z</time>
      </trkpt>
      <trkpt lat="42.78237" lon="1.3995">
        <ele>1657.93</ele>
        <time>2011-02-26T11:01:55Z</time>
      </trkpt>
      <trkpt lat="42.78235" lon="1.39945">
        <ele>1654.09</ele>
        <time>2011-02-26T11:01:56Z</time>
      </trkpt>
      <trkpt lat="42.78233" lon="1.39941">
        <ele>1652.16</ele>
        <time>2011-02-26T11:01:57Z</time>
      </trkpt>
      <trkpt lat="42.78233" lon="1.39935">
        <ele>1650.72</ele>
        <time>2011-02-26T11:01:58Z</time>
      </trkpt>
      <trkpt lat="42.78232" lon="1.39929">
        <ele>1647.84</ele>
        <time>2011-02-26T11:01:59Z</time>
      </trkpt>
      <trkpt lat="42.78231" lon="1.39925">
        <ele>1644.95</ele>
        <time>2011-02-26T11:02:00Z</time>
      </trkpt>
      <trkpt lat="42.78232" lon="1.39919">
        <ele>1643.03</ele>
        <time>2011-02-26T11:02:01Z</time>
      </trkpt>
      <trkpt lat="42.78231" lon="1.39913">
        <ele>1641.59</ele>
        <time>2011-02-26T11:02:02Z</time>
      </trkpt>
      <trkpt lat="42.78231" lon="1.39907">
        <ele>1639.67</ele>
        <time>2011-02-26T11:02:03Z</time>
      </trkpt>
      <trkpt lat="42.7823" lon="1.39901">
        <ele>1636.78</ele>
        <time>2011-02-26T11:02:04Z</time>
      </trkpt>
      <trkpt lat="42.78229" lon="1.39896">
        <ele>1633.9</ele>
        <time>2011-02-26T11:02:05Z</time>
      </trkpt>
      <trkpt lat="42.78231" lon="1.39892">
        <ele>1631.49</ele>
        <time>2011-02-26T11:02:06Z</time>
      </trkpt>
      <trkpt lat="42.7823" lon="1.39889">
        <ele>1630.53</ele>
        <time>2011-02-26T11:02:07Z</time>
      </trkpt>
      <trkpt lat="42.7823" lon="1.39886">
        <ele>1629.09</ele>
        <time>2011-02-26T11:02:08Z</time>
      </trkpt>
      <trkpt lat="42.7823" lon="1.39882">
        <ele>1627.17</ele>
        <time>2011-02-26T11:02:09Z</time>
      </trkpt>
      <trkpt lat="42.78228" lon="1.39878">
        <ele>1625.73</ele>
        <time>2011-02-26T11:02:10Z</time>
      </trkpt>
      <trkpt lat="42.78227" lon="1.39873">
        <ele>1624.28</ele>
        <time>2011-02-26T11:02:11Z</time>
      </trkpt>
      <trkpt lat="42.78226" lon="1.39868">
        <ele>1621.4</ele>
        <time>2011-02-26T11:02:12Z</time>
      </trkpt>
      <trkpt lat="42.78225" lon="1.39862">
        <ele>1618.52</ele>
        <time>2011-02-26T11:02:13Z</time>
      </trkpt>
      <trkpt lat="42.78225" lon="1.39857">
        <ele>1616.59</ele>
        <time>2011-02-26T11:02:14Z</time>
      </trkpt>
      <trkpt lat="42.78223" lon="1.39853">
        <ele>1613.71</ele>
        <time>2011-02-26T11:02:15Z</time>
      </trkpt>
      <trkpt lat="42.7822" lon="1.39848">
        <ele>1613.71</ele>
        <time>2011-02-26T11:02:16Z</time>
      </trkpt>
      <trkpt lat="42.78219" lon="1.39842">
        <ele>1610.35</ele>
        <time>2011-02-26T11:02:17Z</time>
      </trkpt>
      <trkpt lat="42.78218" lon="1.39836">
        <ele>1607.46</ele>
        <time>2011-02-26T11:02:18Z</time>
      </trkpt>
      <trkpt lat="42.78218" lon="1.39829">
        <ele>1604.58</ele>
        <time>2011-02-26T11:02:19Z</time>
      </trkpt>
      <trkpt lat="42.78221" lon="1.39826">
        <ele>1602.66</ele>
        <time>2011-02-26T11:02:20Z</time>
      </trkpt>
      <trkpt lat="42.78223" lon="1.39823">
        <ele>1601.21</ele>
        <time>2011-02-26T11:02:21Z</time>
      </trkpt>
      <trkpt lat="42.78222" lon="1.39821">
        <ele>1600.73</ele>
        <time>2011-02-26T11:02:22Z</time>
      </trkpt>
      <trkpt lat="42.78221" lon="1.39821">
        <ele>1598.81</ele>
        <time>2011-02-26T11:02:24Z</time>
      </trkpt>
      <trkpt lat="42.78221" lon="1.39821">
        <ele>1598.81</ele>
        <time>2011-02-26T11:02:26Z</time>
      </trkpt>
      <trkpt lat="42.78206" lon="1.39813">
        <ele>1596.41</ele>
        <time>2011-02-26T11:02:30Z</time>
      </trkpt>
      <trkpt lat="42.78203" lon="1.39806">
        <ele>1596.41</ele>
        <time>2011-02-26T11:02:31Z</time>
      </trkpt>
      <trkpt lat="42.78204" lon="1.39799">
        <ele>1592.56</ele>
        <time>2011-02-26T11:02:32Z</time>
      </trkpt>
      <trkpt lat="42.78204" lon="1.39793">
        <ele>1589.68</ele>
        <time>2011-02-26T11:02:33Z</time>
      </trkpt>
      <trkpt lat="42.78201" lon="1.3979">
        <ele>1586.31</ele>
        <time>2011-02-26T11:02:36Z</time>
      </trkpt>
      <trkpt lat="42.78198" lon="1.39791">
        <ele>1586.31</ele>
        <time>2011-02-26T11:02:46Z</time>
      </trkpt>
      <trkpt lat="42.78199" lon="1.39792">
        <ele>1585.83</ele>
        <time>2011-02-26T11:04:20Z</time>
      </trkpt>
      <trkpt lat="42.782" lon="1.39791">
        <ele>1571.89</ele>
        <time>2011-02-26T11:04:23Z</time>
      </trkpt>
      <trkpt lat="42.782" lon="1.39791">
        <ele>1582.95</ele>
        <time>2011-02-26T11:04:24Z</time>
      </trkpt>
      <trkpt lat="42.782" lon="1.39791">
        <ele>1586.31</ele>
        <time>2011-02-26T11:04:25Z</time>
      </trkpt>
      <trkpt lat="42.782" lon="1.39791">
        <ele>1585.83</ele>
        <time>2011-02-26T11:04:26Z</time>
      </trkpt>
      <trkpt lat="42.782" lon="1.39791">
        <ele>1582.47</ele>
        <time>2011-02-26T11:04:42Z</time>
      </trkpt>
      <trkpt lat="42.782" lon="1.39791">
        <ele>1582.47</ele>
        <time>2011-02-26T11:04:43Z</time>
      </trkpt>
      <trkpt lat="42.782" lon="1.39791">
        <ele>1584.39</ele>
        <time>2011-02-26T11:04:45Z</time>
      </trkpt>
      <trkpt lat="42.782" lon="1.39791">
        <ele>1585.83</ele>
        <time>2011-02-26T11:04:50Z</time>
      </trkpt>
      <trkpt lat="42.782" lon="1.39791">
        <ele>1585.35</ele>
        <time>2011-02-26T11:04:52Z</time>
      </trkpt>
      <trkpt lat="42.782" lon="1.39792">
        <ele>1585.83</ele>
        <time>2011-02-26T11:05:24Z</time>
      </trkpt>
      <trkpt lat="42.78201" lon="1.39792">
        <ele>1585.83</ele>
        <time>2011-02-26T11:05:34Z</time>
      </trkpt>
      <trkpt lat="42.78201" lon="1.39792">
        <ele>1585.83</ele>
        <time>2011-02-26T11:05:52Z</time>
      </trkpt>
      <trkpt lat="42.782" lon="1.39793">
        <ele>1587.27</ele>
        <time>2011-02-26T11:06:31Z</time>
      </trkpt>
      <trkpt lat="42.782" lon="1.39792">
        <ele>1586.79</ele>
        <time>2011-02-26T11:06:44Z</time>
      </trkpt>
      <trkpt lat="42.78209" lon="1.39783">
        <ele>1584.39</ele>
        <time>2011-02-26T11:06:50Z</time>
      </trkpt>
      <trkpt lat="42.7824" lon="1.39765">
        <ele>1580.54</ele>
        <time>2011-02-26T11:06:59Z</time>
      </trkpt>
      <trkpt lat="42.78244" lon="1.39762">
        <ele>1580.06</ele>
        <time>2011-02-26T11:07:00Z</time>
      </trkpt>
      <trkpt lat="42.78256" lon="1.39755">
        <ele>1576.22</ele>
        <time>2011-02-26T11:07:03Z</time>
      </trkpt>
      <trkpt lat="42.7826" lon="1.39752">
        <ele>1576.22</ele>
        <time>2011-02-26T11:07:04Z</time>
      </trkpt>
      <trkpt lat="42.78275" lon="1.39741">
        <ele>1571.89</ele>
        <time>2011-02-26T11:07:07Z</time>
      </trkpt>
      <trkpt lat="42.7828" lon="1.39737">
        <ele>1571.89</ele>
        <time>2011-02-26T11:07:08Z</time>
      </trkpt>
      <trkpt lat="42.78295" lon="1.39724">
        <ele>1567.57</ele>
        <time>2011-02-26T11:07:11Z</time>
      </trkpt>
      <trkpt lat="42.78308" lon="1.39711">
        <ele>1565.64</ele>
        <time>2011-02-26T11:07:14Z</time>
      </trkpt>
      <trkpt lat="42.78314" lon="1.39703">
        <ele>1564.2</ele>
        <time>2011-02-26T11:07:16Z</time>
      </trkpt>
      <trkpt lat="42.78318" lon="1.39698">
        <ele>1563.72</ele>
        <time>2011-02-26T11:07:17Z</time>
      </trkpt>
      <trkpt lat="42.78322" lon="1.39693">
        <ele>1562.76</ele>
        <time>2011-02-26T11:07:18Z</time>
      </trkpt>
      <trkpt lat="42.78325" lon="1.39685">
        <ele>1561.8</ele>
        <time>2011-02-26T11:07:19Z</time>
      </trkpt>
      <trkpt lat="42.78328" lon="1.39676">
        <ele>1558.92</ele>
        <time>2011-02-26T11:07:20Z</time>
      </trkpt>
      <trkpt lat="42.78332" lon="1.39667">
        <ele>1556.99</ele>
        <time>2011-02-26T11:07:21Z</time>
      </trkpt>
      <trkpt lat="42.78335" lon="1.39658">
        <ele>1555.07</ele>
        <time>2011-02-26T11:07:22Z</time>
      </trkpt>
      <trkpt lat="42.78339" lon="1.39651">
        <ele>1551.71</ele>
        <time>2011-02-26T11:07:23Z</time>
      </trkpt>
      <trkpt lat="42.78345" lon="1.39636">
        <ele>1548.34</ele>
        <time>2011-02-26T11:07:25Z</time>
      </trkpt>
      <trkpt lat="42.78348" lon="1.39627">
        <ele>1547.86</ele>
        <time>2011-02-26T11:07:26Z</time>
      </trkpt>
      <trkpt lat="42.78351" lon="1.39619">
        <ele>1546.9</ele>
        <time>2011-02-26T11:07:27Z</time>
      </trkpt>
      <trkpt lat="42.7836" lon="1.39595">
        <ele>1543.53</ele>
        <time>2011-02-26T11:07:30Z</time>
      </trkpt>
      <trkpt lat="42.78374" lon="1.39566">
        <ele>1541.13</ele>
        <time>2011-02-26T11:07:35Z</time>
      </trkpt>
      <trkpt lat="42.78387" lon="1.39538">
        <ele>1539.21</ele>
        <time>2011-02-26T11:07:45Z</time>
      </trkpt>
      <trkpt lat="42.78399" lon="1.39509">
        <ele>1538.25</ele>
        <time>2011-02-26T11:07:56Z</time>
      </trkpt>
      <trkpt lat="42.78402" lon="1.39495">
        <ele>1537.77</ele>
        <time>2011-02-26T11:08:01Z</time>
      </trkpt>
      <trkpt lat="42.78407" lon="1.39483">
        <ele>1537.77</ele>
        <time>2011-02-26T11:08:12Z</time>
      </trkpt>
      <trkpt lat="42.78406" lon="1.39483">
        <ele>1538.25</ele>
        <time>2011-02-26T11:08:27Z</time>
      </trkpt>
      <trkpt lat="42.78407" lon="1.39483">
        <ele>1538.25</ele>
        <time>2011-02-26T11:08:40Z</time>
      </trkpt>
      <trkpt lat="42.78407" lon="1.39483">
        <ele>1536.8</ele>
        <time>2011-02-26T11:08:42Z</time>
      </trkpt>
      <trkpt lat="42.78408" lon="1.39485">
        <ele>1536.8</ele>
        <time>2011-02-26T11:09:02Z</time>
      </trkpt>
      <trkpt lat="42.78408" lon="1.39484">
        <ele>1541.61</ele>
        <time>2011-02-26T11:10:46Z</time>
      </trkpt>
      <trkpt lat="42.78408" lon="1.39484">
        <ele>1537.77</ele>
        <time>2011-02-26T11:10:48Z</time>
      </trkpt>
      <trkpt lat="42.78407" lon="1.39482">
        <ele>1537.77</ele>
        <time>2011-02-26T11:15:34Z</time>
      </trkpt>
      <trkpt lat="42.78407" lon="1.39482">
        <ele>1530.56</ele>
        <time>2011-02-26T11:16:03Z</time>
      </trkpt>
      <trkpt lat="42.78407" lon="1.39482">
        <ele>1535.36</ele>
        <time>2011-02-26T11:16:04Z</time>
      </trkpt>
      <trkpt lat="42.78407" lon="1.39482">
        <ele>1538.73</ele>
        <time>2011-02-26T11:16:05Z</time>
      </trkpt>
      <trkpt lat="42.78407" lon="1.39482">
        <ele>1537.29</ele>
        <time>2011-02-26T11:16:06Z</time>
      </trkpt>
      <trkpt lat="42.78407" lon="1.39482">
        <ele>1543.53</ele>
        <time>2011-02-26T11:16:16Z</time>
      </trkpt>
      <trkpt lat="42.78407" lon="1.39482">
        <ele>1540.65</ele>
        <time>2011-02-26T11:16:17Z</time>
      </trkpt>
      <trkpt lat="42.78408" lon="1.39483">
        <ele>1537.29</ele>
        <time>2011-02-26T11:16:19Z</time>
      </trkpt>
      <trkpt lat="42.78408" lon="1.39483">
        <ele>1537.77</ele>
        <time>2011-02-26T11:16:20Z</time>
      </trkpt>
      <trkpt lat="42.78407" lon="1.39483">
        <ele>1538.73</ele>
        <time>2011-02-26T11:17:37Z</time>
      </trkpt>
      <trkpt lat="42.78407" lon="1.39482">
        <ele>1540.17</ele>
        <time>2011-02-26T11:18:46Z</time>
      </trkpt>
      <trkpt lat="42.78407" lon="1.39482">
        <ele>1540.17</ele>
        <time>2011-02-26T11:19:02Z</time>
      </trkpt>
      <trkpt lat="42.78408" lon="1.39482">
        <ele>1542.09</ele>
        <time>2011-02-26T11:19:13Z</time>
      </trkpt>
      <trkpt lat="42.78414" lon="1.39475">
        <ele>1544.01</ele>
        <time>2011-02-26T11:19:23Z</time>
      </trkpt>
      <trkpt lat="42.78417" lon="1.39475">
        <ele>1544.5</ele>
        <time>2011-02-26T11:19:33Z</time>
      </trkpt>
      <trkpt lat="42.78421" lon="1.39475">
        <ele>1546.9</ele>
        <time>2011-02-26T11:19:44Z</time>
      </trkpt>
      <trkpt lat="42.78422" lon="1.39471">
        <ele>1547.38</ele>
        <time>2011-02-26T11:19:48Z</time>
      </trkpt>
      <trkpt lat="42.78427" lon="1.39463">
        <ele>1548.82</ele>
        <time>2011-02-26T11:19:58Z</time>
      </trkpt>
      <trkpt lat="42.7843" lon="1.39456">
        <ele>1551.22</ele>
        <time>2011-02-26T11:20:09Z</time>
      </trkpt>
      <trkpt lat="42.78433" lon="1.39453">
        <ele>1550.74</ele>
        <time>2011-02-26T11:20:11Z</time>
      </trkpt>
      <trkpt lat="42.78434" lon="1.3945">
        <ele>1550.74</ele>
        <time>2011-02-26T11:20:13Z</time>
      </trkpt>
      <trkpt lat="42.78437" lon="1.39444">
        <ele>1550.74</ele>
        <time>2011-02-26T11:20:20Z</time>
      </trkpt>
      <trkpt lat="42.78438" lon="1.3944">
        <ele>1551.22</ele>
        <time>2011-02-26T11:20:26Z</time>
      </trkpt>
      <trkpt lat="42.78446" lon="1.39426">
        <ele>1552.67</ele>
        <time>2011-02-26T11:20:40Z</time>
      </trkpt>
      <trkpt lat="42.78448" lon="1.39416">
        <ele>1554.11</ele>
        <time>2011-02-26T11:20:53Z</time>
      </trkpt>
      <trkpt lat="42.78452" lon="1.3941">
        <ele>1556.03</ele>
        <time>2011-02-26T11:21:05Z</time>
      </trkpt>
      <trkpt lat="42.78459" lon="1.394">
        <ele>1557.95</ele>
        <time>2011-02-26T11:21:18Z</time>
      </trkpt>
      <trkpt lat="42.78466" lon="1.39392">
        <ele>1558.92</ele>
        <time>2011-02-26T11:21:28Z</time>
      </trkpt>
      <trkpt lat="42.7847" lon="1.39382">
        <ele>1558.92</ele>
        <time>2011-02-26T11:21:38Z</time>
      </trkpt>
      <trkpt lat="42.7847" lon="1.3938">
        <ele>1559.4</ele>
        <time>2011-02-26T11:21:41Z</time>
      </trkpt>
      <trkpt lat="42.78472" lon="1.39373">
        <ele>1559.88</ele>
        <time>2011-02-26T11:21:46Z</time>
      </trkpt>
      <trkpt lat="42.78477" lon="1.39364">
        <ele>1560.36</ele>
        <time>2011-02-26T11:21:56Z</time>
      </trkpt>
      <trkpt lat="42.78483" lon="1.39351">
        <ele>1557.95</ele>
        <time>2011-02-26T11:22:08Z</time>
      </trkpt>
      <trkpt lat="42.78485" lon="1.39349">
        <ele>1556.99</ele>
        <time>2011-02-26T11:22:19Z</time>
      </trkpt>
      <trkpt lat="42.78484" lon="1.39349">
        <ele>1557.47</ele>
        <time>2011-02-26T11:22:21Z</time>
      </trkpt>
      <trkpt lat="42.78486" lon="1.39343">
        <ele>1556.03</ele>
        <time>2011-02-26T11:22:33Z</time>
      </trkpt>
      <trkpt lat="42.78486" lon="1.39343">
        <ele>1555.55</ele>
        <time>2011-02-26T11:22:36Z</time>
      </trkpt>
      <trkpt lat="42.78488" lon="1.39341">
        <ele>1554.59</ele>
        <time>2011-02-26T11:22:40Z</time>
      </trkpt>
      <trkpt lat="42.78487" lon="1.39337">
        <ele>1553.15</ele>
        <time>2011-02-26T11:22:49Z</time>
      </trkpt>
      <trkpt lat="42.78488" lon="1.39331">
        <ele>1551.71</ele>
        <time>2011-02-26T11:22:58Z</time>
      </trkpt>
      <trkpt lat="42.78488" lon="1.39329">
        <ele>1551.22</ele>
        <time>2011-02-26T11:23:00Z</time>
      </trkpt>
      <trkpt lat="42.78493" lon="1.39319">
        <ele>1549.78</ele>
        <time>2011-02-26T11:23:10Z</time>
      </trkpt>
      <trkpt lat="42.78495" lon="1.39317">
        <ele>1551.22</ele>
        <time>2011-02-26T11:23:25Z</time>
      </trkpt>
      <trkpt lat="42.78501" lon="1.39313">
        <ele>1552.19</ele>
        <time>2011-02-26T11:23:36Z</time>
      </trkpt>
      <trkpt lat="42.78508" lon="1.39307">
        <ele>1553.15</ele>
        <time>2011-02-26T11:23:47Z</time>
      </trkpt>
      <trkpt lat="42.78509" lon="1.39307">
        <ele>1553.15</ele>
        <time>2011-02-26T11:23:48Z</time>
      </trkpt>
      <trkpt lat="42.78512" lon="1.39303">
        <ele>1551.71</ele>
        <time>2011-02-26T11:23:51Z</time>
      </trkpt>
      <trkpt lat="42.78513" lon="1.39302">
        <ele>1552.19</ele>
        <time>2011-02-26T11:24:07Z</time>
      </trkpt>
      <trkpt lat="42.78515" lon="1.39302">
        <ele>1552.19</ele>
        <time>2011-02-26T11:24:19Z</time>
      </trkpt>
      <trkpt lat="42.78524" lon="1.393">
        <ele>1553.63</ele>
        <time>2011-02-26T11:24:32Z</time>
      </trkpt>
      <trkpt lat="42.78529" lon="1.39298">
        <ele>1555.07</ele>
        <time>2011-02-26T11:24:40Z</time>
      </trkpt>
      <trkpt lat="42.7854" lon="1.39293">
        <ele>1557.47</ele>
        <time>2011-02-26T11:24:52Z</time>
      </trkpt>
      <trkpt lat="42.78539" lon="1.39295">
        <ele>1558.43</ele>
        <time>2011-02-26T11:24:59Z</time>
      </trkpt>
      <trkpt lat="42.78538" lon="1.393">
        <ele>1559.4</ele>
        <time>2011-02-26T11:25:04Z</time>
      </trkpt>
      <trkpt lat="42.78539" lon="1.39304">
        <ele>1560.36</ele>
        <time>2011-02-26T11:25:08Z</time>
      </trkpt>
      <trkpt lat="42.78542" lon="1.39311">
        <ele>1561.8</ele>
        <time>2011-02-26T11:25:16Z</time>
      </trkpt>
      <trkpt lat="42.78543" lon="1.39316">
        <ele>1563.24</ele>
        <time>2011-02-26T11:25:23Z</time>
      </trkpt>
      <trkpt lat="42.7855" lon="1.39324">
        <ele>1564.68</ele>
        <time>2011-02-26T11:25:34Z</time>
      </trkpt>
      <trkpt lat="42.78556" lon="1.39327">
        <ele>1565.64</ele>
        <time>2011-02-26T11:25:44Z</time>
      </trkpt>
      <trkpt lat="42.78559" lon="1.39327">
        <ele>1566.61</ele>
        <time>2011-02-26T11:25:47Z</time>
      </trkpt>
      <trkpt lat="42.78566" lon="1.39326">
        <ele>1567.57</ele>
        <time>2011-02-26T11:25:56Z</time>
      </trkpt>
      <trkpt lat="42.7857" lon="1.39326">
        <ele>1568.05</ele>
        <time>2011-02-26T11:26:00Z</time>
      </trkpt>
      <trkpt lat="42.7858" lon="1.39324">
        <ele>1569.49</ele>
        <time>2011-02-26T11:26:13Z</time>
      </trkpt>
      <trkpt lat="42.78584" lon="1.39323">
        <ele>1570.93</ele>
        <time>2011-02-26T11:26:18Z</time>
      </trkpt>
      <trkpt lat="42.78587" lon="1.39322">
        <ele>1570.93</ele>
        <time>2011-02-26T11:26:22Z</time>
      </trkpt>
      <trkpt lat="42.78597" lon="1.39317">
        <ele>1573.33</ele>
        <time>2011-02-26T11:26:36Z</time>
      </trkpt>
      <trkpt lat="42.78607" lon="1.39312">
        <ele>1575.26</ele>
        <time>2011-02-26T11:26:51Z</time>
      </trkpt>
      <trkpt lat="42.78609" lon="1.39311">
        <ele>1575.74</ele>
        <time>2011-02-26T11:26:57Z</time>
      </trkpt>
      <trkpt lat="42.78607" lon="1.39316">
        <ele>1576.22</ele>
        <time>2011-02-26T11:27:03Z</time>
      </trkpt>
      <trkpt lat="42.78605" lon="1.39329">
        <ele>1578.14</ele>
        <time>2011-02-26T11:27:16Z</time>
      </trkpt>
      <trkpt lat="42.78601" lon="1.39339">
        <ele>1580.54</ele>
        <time>2011-02-26T11:27:28Z</time>
      </trkpt>
      <trkpt lat="42.78602" lon="1.39341">
        <ele>1581.99</ele>
        <time>2011-02-26T11:27:39Z</time>
      </trkpt>
      <trkpt lat="42.78603" lon="1.39341">
        <ele>1582.47</ele>
        <time>2011-02-26T11:27:40Z</time>
      </trkpt>
      <trkpt lat="42.78615" lon="1.3934">
        <ele>1585.35</ele>
        <time>2011-02-26T11:27:55Z</time>
      </trkpt>
      <trkpt lat="42.78623" lon="1.39337">
        <ele>1587.75</ele>
        <time>2011-02-26T11:28:08Z</time>
      </trkpt>
      <trkpt lat="42.78625" lon="1.39337">
        <ele>1588.24</ele>
        <time>2011-02-26T11:28:11Z</time>
      </trkpt>
      <trkpt lat="42.78629" lon="1.39338">
        <ele>1589.2</ele>
        <time>2011-02-26T11:28:16Z</time>
      </trkpt>
      <trkpt lat="42.78637" lon="1.39338">
        <ele>1591.6</ele>
        <time>2011-02-26T11:28:27Z</time>
      </trkpt>
      <trkpt lat="42.78637" lon="1.3934">
        <ele>1592.08</ele>
        <time>2011-02-26T11:28:29Z</time>
      </trkpt>
      <trkpt lat="42.78633" lon="1.39351">
        <ele>1594.48</ele>
        <time>2011-02-26T11:28:42Z</time>
      </trkpt>
      <trkpt lat="42.78635" lon="1.39353">
        <ele>1594.96</ele>
        <time>2011-02-26T11:28:45Z</time>
      </trkpt>
      <trkpt lat="42.78643" lon="1.39351">
        <ele>1597.37</ele>
        <time>2011-02-26T11:28:58Z</time>
      </trkpt>
      <trkpt lat="42.78647" lon="1.39347">
        <ele>1597.85</ele>
        <time>2011-02-26T11:29:05Z</time>
      </trkpt>
      <trkpt lat="42.7865" lon="1.39343">
        <ele>1599.77</ele>
        <time>2011-02-26T11:29:13Z</time>
      </trkpt>
      <trkpt lat="42.78654" lon="1.39342">
        <ele>1600.25</ele>
        <time>2011-02-26T11:29:24Z</time>
      </trkpt>
      <trkpt lat="42.78657" lon="1.39341">
        <ele>1600.73</ele>
        <time>2011-02-26T11:29:42Z</time>
      </trkpt>
      <trkpt lat="42.78663" lon="1.39345">
        <ele>1602.66</ele>
        <time>2011-02-26T11:29:50Z</time>
      </trkpt>
      <trkpt lat="42.78666" lon="1.39347">
        <ele>1603.62</ele>
        <time>2011-02-26T11:29:55Z</time>
      </trkpt>
      <trkpt lat="42.7867" lon="1.39354">
        <ele>1606.02</ele>
        <time>2011-02-26T11:30:02Z</time>
      </trkpt>
      <trkpt lat="42.78674" lon="1.39359">
        <ele>1607.94</ele>
        <time>2011-02-26T11:30:14Z</time>
      </trkpt>
      <trkpt lat="42.78671" lon="1.39362">
        <ele>1609.86</ele>
        <time>2011-02-26T11:30:23Z</time>
      </trkpt>
      <trkpt lat="42.78668" lon="1.39362">
        <ele>1610.35</ele>
        <time>2011-02-26T11:30:33Z</time>
      </trkpt>
      <trkpt lat="42.78668" lon="1.39362">
        <ele>1610.83</ele>
        <time>2011-02-26T11:31:15Z</time>
      </trkpt>
      <trkpt lat="42.78668" lon="1.39362">
        <ele>1611.31</ele>
        <time>2011-02-26T11:32:03Z</time>
      </trkpt>
      <trkpt lat="42.78669" lon="1.39363">
        <ele>1610.83</ele>
        <time>2011-02-26T11:32:20Z</time>
      </trkpt>
      <trkpt lat="42.78671" lon="1.39362">
        <ele>1609.38</ele>
        <time>2011-02-26T11:32:30Z</time>
      </trkpt>
      <trkpt lat="42.78671" lon="1.39363">
        <ele>1609.86</ele>
        <time>2011-02-26T11:32:55Z</time>
      </trkpt>
      <trkpt lat="42.78671" lon="1.39362">
        <ele>1609.86</ele>
        <time>2011-02-26T11:33:22Z</time>
      </trkpt>
      <trkpt lat="42.78671" lon="1.39362">
        <ele>1609.86</ele>
        <time>2011-02-26T11:33:50Z</time>
      </trkpt>
      <trkpt lat="42.78673" lon="1.39363">
        <ele>1610.35</ele>
        <time>2011-02-26T11:34:19Z</time>
      </trkpt>
      <trkpt lat="42.78674" lon="1.39364">
        <ele>1609.86</ele>
        <time>2011-02-26T11:34:20Z</time>
      </trkpt>
      <trkpt lat="42.78683" lon="1.39376">
        <ele>1607.46</ele>
        <time>2011-02-26T11:34:27Z</time>
      </trkpt>
      <trkpt lat="42.78686" lon="1.3938">
        <ele>1606.98</ele>
        <time>2011-02-26T11:34:29Z</time>
      </trkpt>
      <trkpt lat="42.78691" lon="1.39384">
        <ele>1606.98</ele>
        <time>2011-02-26T11:34:33Z</time>
      </trkpt>
      <trkpt lat="42.787" lon="1.3939">
        <ele>1608.9</ele>
        <time>2011-02-26T11:34:43Z</time>
      </trkpt>
      <trkpt lat="42.78704" lon="1.39393">
        <ele>1609.38</ele>
        <time>2011-02-26T11:34:52Z</time>
      </trkpt>
      <trkpt lat="42.78708" lon="1.39388">
        <ele>1610.35</ele>
        <time>2011-02-26T11:35:02Z</time>
      </trkpt>
      <trkpt lat="42.78708" lon="1.39383">
        <ele>1611.31</ele>
        <time>2011-02-26T11:35:12Z</time>
      </trkpt>
      <trkpt lat="42.78704" lon="1.39383">
        <ele>1611.31</ele>
        <time>2011-02-26T11:35:23Z</time>
      </trkpt>
      <trkpt lat="42.78704" lon="1.39383">
        <ele>1611.31</ele>
        <time>2011-02-26T11:35:36Z</time>
      </trkpt>
      <trkpt lat="42.78704" lon="1.39383">
        <ele>1611.31</ele>
        <time>2011-02-26T11:35:55Z</time>
      </trkpt>
      <trkpt lat="42.78704" lon="1.39383">
        <ele>1612.27</ele>
        <time>2011-02-26T11:36:41Z</time>
      </trkpt>
      <trkpt lat="42.78704" lon="1.39383">
        <ele>1611.31</ele>
        <time>2011-02-26T11:37:13Z</time>
      </trkpt>
      <trkpt lat="42.78704" lon="1.39384">
        <ele>1611.79</ele>
        <time>2011-02-26T11:37:51Z</time>
      </trkpt>
      <trkpt lat="42.78704" lon="1.39384">
        <ele>1611.79</ele>
        <time>2011-02-26T11:38:01Z</time>
      </trkpt>
      <trkpt lat="42.78703" lon="1.39388">
        <ele>1610.83</ele>
        <time>2011-02-26T11:38:05Z</time>
      </trkpt>
      <trkpt lat="42.78702" lon="1.39389">
        <ele>1610.35</ele>
        <time>2011-02-26T11:38:07Z</time>
      </trkpt>
      <trkpt lat="42.78705" lon="1.39397">
        <ele>1609.86</ele>
        <time>2011-02-26T11:38:18Z</time>
      </trkpt>
      <trkpt lat="42.78707" lon="1.39398">
        <ele>1608.9</ele>
        <time>2011-02-26T11:38:34Z</time>
      </trkpt>
      <trkpt lat="42.78708" lon="1.39399">
        <ele>1609.38</ele>
        <time>2011-02-26T11:38:52Z</time>
      </trkpt>
      <trkpt lat="42.78708" lon="1.39399">
        <ele>1609.38</ele>
        <time>2011-02-26T11:38:54Z</time>
      </trkpt>
      <trkpt lat="42.78718" lon="1.39398">
        <ele>1607.46</ele>
        <time>2011-02-26T11:38:59Z</time>
      </trkpt>
      <trkpt lat="42.78737" lon="1.39396">
        <ele>1602.66</ele>
        <time>2011-02-26T11:39:04Z</time>
      </trkpt>
      <trkpt lat="42.78739" lon="1.39395">
        <ele>1602.66</ele>
        <time>2011-02-26T11:39:05Z</time>
      </trkpt>
      <trkpt lat="42.78753" lon="1.39392">
        <ele>1603.14</ele>
        <time>2011-02-26T11:39:18Z</time>
      </trkpt>
      <trkpt lat="42.78773" lon="1.39385">
        <ele>1599.77</ele>
        <time>2011-02-26T11:39:31Z</time>
      </trkpt>
      <trkpt lat="42.78783" lon="1.39377">
        <ele>1600.25</ele>
        <time>2011-02-26T11:39:39Z</time>
      </trkpt>
      <trkpt lat="42.78786" lon="1.39374">
        <ele>1599.77</ele>
        <time>2011-02-26T11:39:42Z</time>
      </trkpt>
      <trkpt lat="42.78795" lon="1.39376">
        <ele>1600.25</ele>
        <time>2011-02-26T11:39:49Z</time>
      </trkpt>
      <trkpt lat="42.78803" lon="1.39378">
        <ele>1600.25</ele>
        <time>2011-02-26T11:39:56Z</time>
      </trkpt>
      <trkpt lat="42.78806" lon="1.39377">
        <ele>1600.73</ele>
        <time>2011-02-26T11:40:11Z</time>
      </trkpt>
      <trkpt lat="42.78807" lon="1.39377">
        <ele>1600.73</ele>
        <time>2011-02-26T11:40:31Z</time>
      </trkpt>
      <trkpt lat="42.78807" lon="1.39377">
        <ele>1600.25</ele>
        <time>2011-02-26T11:40:49Z</time>
      </trkpt>
      <trkpt lat="42.78808" lon="1.39378">
        <ele>1600.73</ele>
        <time>2011-02-26T11:41:00Z</time>
      </trkpt>
      <trkpt lat="42.78808" lon="1.39378">
        <ele>1604.1</ele>
        <time>2011-02-26T11:41:25Z</time>
      </trkpt>
      <trkpt lat="42.78807" lon="1.39378">
        <ele>1600.73</ele>
        <time>2011-02-26T11:41:27Z</time>
      </trkpt>
      <trkpt lat="42.78807" lon="1.39378">
        <ele>1599.77</ele>
        <time>2011-02-26T11:41:29Z</time>
      </trkpt>
      <trkpt lat="42.78807" lon="1.39378">
        <ele>1600.25</ele>
        <time>2011-02-26T11:41:33Z</time>
      </trkpt>
      <trkpt lat="42.78808" lon="1.39378">
        <ele>1599.77</ele>
        <time>2011-02-26T11:42:14Z</time>
      </trkpt>
      <trkpt lat="42.78807" lon="1.39377">
        <ele>1599.29</ele>
        <time>2011-02-26T11:42:37Z</time>
      </trkpt>
      <trkpt lat="42.78807" lon="1.39377">
        <ele>1600.73</ele>
        <time>2011-02-26T11:42:39Z</time>
      </trkpt>
      <trkpt lat="42.78807" lon="1.39377">
        <ele>1599.29</ele>
        <time>2011-02-26T11:42:41Z</time>
      </trkpt>
      <trkpt lat="42.78808" lon="1.39376">
        <ele>1595.93</ele>
        <time>2011-02-26T11:48:01Z</time>
      </trkpt>
      <trkpt lat="42.78808" lon="1.39376">
        <ele>1599.29</ele>
        <time>2011-02-26T11:48:03Z</time>
      </trkpt>
      <trkpt lat="42.78808" lon="1.39376">
        <ele>1599.29</ele>
        <time>2011-02-26T11:48:10Z</time>
      </trkpt>
      <trkpt lat="42.78808" lon="1.39376">
        <ele>1596.41</ele>
        <time>2011-02-26T11:48:11Z</time>
      </trkpt>
      <trkpt lat="42.78808" lon="1.39376">
        <ele>1596.89</ele>
        <time>2011-02-26T11:48:12Z</time>
      </trkpt>
      <trkpt lat="42.78808" lon="1.39376">
        <ele>1601.69</ele>
        <time>2011-02-26T11:48:15Z</time>
      </trkpt>
      <trkpt lat="42.78808" lon="1.39376">
        <ele>1598.81</ele>
        <time>2011-02-26T11:48:16Z</time>
      </trkpt>
      <trkpt lat="42.78808" lon="1.39376">
        <ele>1590.16</ele>
        <time>2011-02-26T11:48:21Z</time>
      </trkpt>
      <trkpt lat="42.78808" lon="1.39376">
        <ele>1600.25</ele>
        <time>2011-02-26T11:48:22Z</time>
      </trkpt>
      <trkpt lat="42.78808" lon="1.39376">
        <ele>1600.25</ele>
        <time>2011-02-26T11:48:23Z</time>
      </trkpt>
      <trkpt lat="42.78808" lon="1.39376">
        <ele>1590.64</ele>
        <time>2011-02-26T11:48:24Z</time>
      </trkpt>
      <trkpt lat="42.78808" lon="1.39376">
        <ele>1600.25</ele>
        <time>2011-02-26T11:48:25Z</time>
      </trkpt>
      <trkpt lat="42.78808" lon="1.39376">
        <ele>1595.45</ele>
        <time>2011-02-26T11:48:26Z</time>
      </trkpt>
      <trkpt lat="42.78808" lon="1.39376">
        <ele>1606.02</ele>
        <time>2011-02-26T11:48:32Z</time>
      </trkpt>
      <trkpt lat="42.78808" lon="1.39376">
        <ele>1597.85</ele>
        <time>2011-02-26T11:48:33Z</time>
      </trkpt>
      <trkpt lat="42.78808" lon="1.39376">
        <ele>1596.89</ele>
        <time>2011-02-26T11:48:35Z</time>
      </trkpt>
      <trkpt lat="42.78808" lon="1.39375">
        <ele>1596.41</ele>
        <time>2011-02-26T11:57:49Z</time>
      </trkpt>
      <trkpt lat="42.78808" lon="1.39375">
        <ele>1595.45</ele>
        <time>2011-02-26T11:58:34Z</time>
      </trkpt>
      <trkpt lat="42.78807" lon="1.39375">
        <ele>1595.93</ele>
        <time>2011-02-26T11:59:45Z</time>
      </trkpt>
      <trkpt lat="42.78807" lon="1.39375">
        <ele>1595.93</ele>
        <time>2011-02-26T12:00:56Z</time>
      </trkpt>
      <trkpt lat="42.78807" lon="1.39374">
        <ele>1595.45</ele>
        <time>2011-02-26T12:02:29Z</time>
      </trkpt>
      <trkpt lat="42.78807" lon="1.39374">
        <ele>1595.45</ele>
        <time>2011-02-26T12:03:14Z</time>
      </trkpt>
      <trkpt lat="42.78806" lon="1.39374">
        <ele>1595.45</ele>
        <time>2011-02-26T12:03:37Z</time>
      </trkpt>
      <trkpt lat="42.78805" lon="1.39374">
        <ele>1591.12</ele>
        <time>2011-02-26T12:05:30Z</time>
      </trkpt>
      <trkpt lat="42.78805" lon="1.39374">
        <ele>1595.93</ele>
        <time>2011-02-26T12:05:31Z</time>
      </trkpt>
      <trkpt lat="42.78805" lon="1.39374">
        <ele>1596.41</ele>
        <time>2011-02-26T12:05:32Z</time>
      </trkpt>
      <trkpt lat="42.78806" lon="1.39374">
        <ele>1597.37</ele>
        <time>2011-02-26T12:05:34Z</time>
      </trkpt>
      <trkpt lat="42.78806" lon="1.39376">
        <ele>1596.41</ele>
        <time>2011-02-26T12:06:21Z</time>
      </trkpt>
      <trkpt lat="42.78805" lon="1.39376">
        <ele>1597.37</ele>
        <time>2011-02-26T12:09:22Z</time>
      </trkpt>
      <trkpt lat="42.78805" lon="1.39375">
        <ele>1597.37</ele>
        <time>2011-02-26T12:09:24Z</time>
      </trkpt>
      <trkpt lat="42.78806" lon="1.39376">
        <ele>1597.85</ele>
        <time>2011-02-26T12:09:35Z</time>
      </trkpt>
      <trkpt lat="42.78806" lon="1.39376">
        <ele>1597.37</ele>
        <time>2011-02-26T12:09:41Z</time>
      </trkpt>
      <trkpt lat="42.78806" lon="1.39376">
        <ele>1598.33</ele>
        <time>2011-02-26T12:09:49Z</time>
      </trkpt>
      <trkpt lat="42.78806" lon="1.39376">
        <ele>1598.33</ele>
        <time>2011-02-26T12:10:00Z</time>
      </trkpt>
      <trkpt lat="42.78806" lon="1.39376">
        <ele>1597.85</ele>
        <time>2011-02-26T12:10:15Z</time>
      </trkpt>
      <trkpt lat="42.78806" lon="1.39376">
        <ele>1597.85</ele>
        <time>2011-02-26T12:10:26Z</time>
      </trkpt>
      <trkpt lat="42.78807" lon="1.39378">
        <ele>1597.85</ele>
        <time>2011-02-26T12:10:42Z</time>
      </trkpt>
      <trkpt lat="42.78807" lon="1.39377">
        <ele>1597.85</ele>
        <time>2011-02-26T12:11:20Z</time>
      </trkpt>
      <trkpt lat="42.78808" lon="1.39381">
        <ele>1598.33</ele>
        <time>2011-02-26T12:11:43Z</time>
      </trkpt>
      <trkpt lat="42.78811" lon="1.39389">
        <ele>1596.89</ele>
        <time>2011-02-26T12:11:49Z</time>
      </trkpt>
      <trkpt lat="42.78818" lon="1.39405">
        <ele>1595.45</ele>
        <time>2011-02-26T12:12:00Z</time>
      </trkpt>
      <trkpt lat="42.78825" lon="1.39415">
        <ele>1595.93</ele>
        <time>2011-02-26T12:12:15Z</time>
      </trkpt>
      <trkpt lat="42.7884" lon="1.3943">
        <ele>1593.04</ele>
        <time>2011-02-26T12:12:26Z</time>
      </trkpt>
      <trkpt lat="42.78841" lon="1.39439">
        <ele>1594.48</ele>
        <time>2011-02-26T12:12:38Z</time>
      </trkpt>
      <trkpt lat="42.78844" lon="1.39442">
        <ele>1595.45</ele>
        <time>2011-02-26T12:12:44Z</time>
      </trkpt>
      <trkpt lat="42.7885" lon="1.3945">
        <ele>1595.93</ele>
        <time>2011-02-26T12:12:56Z</time>
      </trkpt>
      <trkpt lat="42.78856" lon="1.39453">
        <ele>1598.33</ele>
        <time>2011-02-26T12:13:07Z</time>
      </trkpt>
      <trkpt lat="42.78861" lon="1.39455">
        <ele>1598.81</ele>
        <time>2011-02-26T12:13:14Z</time>
      </trkpt>
      <trkpt lat="42.78861" lon="1.39461">
        <ele>1598.81</ele>
        <time>2011-02-26T12:13:20Z</time>
      </trkpt>
      <trkpt lat="42.78864" lon="1.39476">
        <ele>1597.37</ele>
        <time>2011-02-26T12:13:31Z</time>
      </trkpt>
      <trkpt lat="42.78873" lon="1.3949">
        <ele>1595.45</ele>
        <time>2011-02-26T12:13:43Z</time>
      </trkpt>
      <trkpt lat="42.78881" lon="1.39499">
        <ele>1595.45</ele>
        <time>2011-02-26T12:13:54Z</time>
      </trkpt>
      <trkpt lat="42.78883" lon="1.395">
        <ele>1595.93</ele>
        <time>2011-02-26T12:13:57Z</time>
      </trkpt>
      <trkpt lat="42.78891" lon="1.39506">
        <ele>1596.89</ele>
        <time>2011-02-26T12:14:06Z</time>
      </trkpt>
      <trkpt lat="42.789" lon="1.3951">
        <ele>1597.85</ele>
        <time>2011-02-26T12:14:17Z</time>
      </trkpt>
      <trkpt lat="42.78906" lon="1.39512">
        <ele>1599.29</ele>
        <time>2011-02-26T12:14:28Z</time>
      </trkpt>
      <trkpt lat="42.78908" lon="1.39514">
        <ele>1599.77</ele>
        <time>2011-02-26T12:14:32Z</time>
      </trkpt>
      <trkpt lat="42.78916" lon="1.39515">
        <ele>1600.25</ele>
        <time>2011-02-26T12:14:43Z</time>
      </trkpt>
      <trkpt lat="42.78925" lon="1.39516">
        <ele>1601.69</ele>
        <time>2011-02-26T12:14:55Z</time>
      </trkpt>
      <trkpt lat="42.78934" lon="1.39518">
        <ele>1602.66</ele>
        <time>2011-02-26T12:15:05Z</time>
      </trkpt>
      <trkpt lat="42.78942" lon="1.39521">
        <ele>1603.62</ele>
        <time>2011-02-26T12:15:16Z</time>
      </trkpt>
      <trkpt lat="42.78947" lon="1.39529">
        <ele>1604.58</ele>
        <time>2011-02-26T12:15:25Z</time>
      </trkpt>
      <trkpt lat="42.7895" lon="1.3953">
        <ele>1604.58</ele>
        <time>2011-02-26T12:15:28Z</time>
      </trkpt>
      <trkpt lat="42.78961" lon="1.39538">
        <ele>1604.58</ele>
        <time>2011-02-26T12:15:40Z</time>
      </trkpt>
      <trkpt lat="42.78968" lon="1.39545">
        <ele>1606.02</ele>
        <time>2011-02-26T12:15:52Z</time>
      </trkpt>
      <trkpt lat="42.78972" lon="1.39555">
        <ele>1607.46</ele>
        <time>2011-02-26T12:16:03Z</time>
      </trkpt>
      <trkpt lat="42.78977" lon="1.39568">
        <ele>1607.46</ele>
        <time>2011-02-26T12:16:16Z</time>
      </trkpt>
      <trkpt lat="42.78981" lon="1.39573">
        <ele>1608.9</ele>
        <time>2011-02-26T12:16:24Z</time>
      </trkpt>
      <trkpt lat="42.78985" lon="1.3958">
        <ele>1609.86</ele>
        <time>2011-02-26T12:16:32Z</time>
      </trkpt>
      <trkpt lat="42.7899" lon="1.39588">
        <ele>1611.79</ele>
        <time>2011-02-26T12:16:44Z</time>
      </trkpt>
      <trkpt lat="42.78995" lon="1.39593">
        <ele>1613.71</ele>
        <time>2011-02-26T12:16:57Z</time>
      </trkpt>
      <trkpt lat="42.79004" lon="1.39599">
        <ele>1615.63</ele>
        <time>2011-02-26T12:17:11Z</time>
      </trkpt>
      <trkpt lat="42.79013" lon="1.39604">
        <ele>1617.07</ele>
        <time>2011-02-26T12:17:24Z</time>
      </trkpt>
      <trkpt lat="42.79019" lon="1.39609">
        <ele>1617.07</ele>
        <time>2011-02-26T12:17:35Z</time>
      </trkpt>
      <trkpt lat="42.79027" lon="1.39611">
        <ele>1618.52</ele>
        <time>2011-02-26T12:17:46Z</time>
      </trkpt>
      <trkpt lat="42.79029" lon="1.39611">
        <ele>1618.04</ele>
        <time>2011-02-26T12:17:55Z</time>
      </trkpt>
      <trkpt lat="42.79032" lon="1.3961">
        <ele>1618.04</ele>
        <time>2011-02-26T12:18:05Z</time>
      </trkpt>
      <trkpt lat="42.79036" lon="1.39609">
        <ele>1618.52</ele>
        <time>2011-02-26T12:18:13Z</time>
      </trkpt>
      <trkpt lat="42.7904" lon="1.39612">
        <ele>1619</ele>
        <time>2011-02-26T12:18:30Z</time>
      </trkpt>
      <trkpt lat="42.79043" lon="1.39612">
        <ele>1619</ele>
        <time>2011-02-26T12:18:34Z</time>
      </trkpt>
      <trkpt lat="42.79047" lon="1.39615">
        <ele>1619.96</ele>
        <time>2011-02-26T12:18:42Z</time>
      </trkpt>
      <trkpt lat="42.79053" lon="1.39617">
        <ele>1621.4</ele>
        <time>2011-02-26T12:18:54Z</time>
      </trkpt>
      <trkpt lat="42.7906" lon="1.3962">
        <ele>1622.36</ele>
        <time>2011-02-26T12:19:04Z</time>
      </trkpt>
      <trkpt lat="42.79068" lon="1.3962">
        <ele>1624.28</ele>
        <time>2011-02-26T12:19:14Z</time>
      </trkpt>
      <trkpt lat="42.79071" lon="1.3962">
        <ele>1626.69</ele>
        <time>2011-02-26T12:19:27Z</time>
      </trkpt>
      <trkpt lat="42.79079" lon="1.39617">
        <ele>1628.13</ele>
        <time>2011-02-26T12:19:38Z</time>
      </trkpt>
      <trkpt lat="42.79084" lon="1.39614">
        <ele>1629.57</ele>
        <time>2011-02-26T12:19:50Z</time>
      </trkpt>
      <trkpt lat="42.79089" lon="1.39612">
        <ele>1630.53</ele>
        <time>2011-02-26T12:20:01Z</time>
      </trkpt>
      <trkpt lat="42.79092" lon="1.39613">
        <ele>1631.49</ele>
        <time>2011-02-26T12:20:17Z</time>
      </trkpt>
      <trkpt lat="42.791" lon="1.3961">
        <ele>1633.42</ele>
        <time>2011-02-26T12:20:27Z</time>
      </trkpt>
      <trkpt lat="42.79104" lon="1.39606">
        <ele>1634.38</ele>
        <time>2011-02-26T12:20:41Z</time>
      </trkpt>
      <trkpt lat="42.79106" lon="1.39604">
        <ele>1634.38</ele>
        <time>2011-02-26T12:20:50Z</time>
      </trkpt>
      <trkpt lat="42.79106" lon="1.39604">
        <ele>1634.38</ele>
        <time>2011-02-26T12:21:01Z</time>
      </trkpt>
      <trkpt lat="42.79106" lon="1.39602">
        <ele>1635.34</ele>
        <time>2011-02-26T12:21:14Z</time>
      </trkpt>
      <trkpt lat="42.79107" lon="1.39601">
        <ele>1634.38</ele>
        <time>2011-02-26T12:21:29Z</time>
      </trkpt>
      <trkpt lat="42.79108" lon="1.39601">
        <ele>1634.86</ele>
        <time>2011-02-26T12:21:41Z</time>
      </trkpt>
      <trkpt lat="42.79109" lon="1.39601">
        <ele>1636.3</ele>
        <time>2011-02-26T12:22:38Z</time>
      </trkpt>
      <trkpt lat="42.79112" lon="1.39601">
        <ele>1637.26</ele>
        <time>2011-02-26T12:22:50Z</time>
      </trkpt>
      <trkpt lat="42.79113" lon="1.39601">
        <ele>1638.7</ele>
        <time>2011-02-26T12:23:03Z</time>
      </trkpt>
      <trkpt lat="42.79117" lon="1.39592">
        <ele>1640.15</ele>
        <time>2011-02-26T12:23:17Z</time>
      </trkpt>
      <trkpt lat="42.7912" lon="1.39591">
        <ele>1641.59</ele>
        <time>2011-02-26T12:23:28Z</time>
      </trkpt>
      <trkpt lat="42.79123" lon="1.39587">
        <ele>1644.47</ele>
        <time>2011-02-26T12:23:42Z</time>
      </trkpt>
      <trkpt lat="42.79125" lon="1.39586">
        <ele>1646.4</ele>
        <time>2011-02-26T12:23:54Z</time>
      </trkpt>
      <trkpt lat="42.7913" lon="1.3958">
        <ele>1647.84</ele>
        <time>2011-02-26T12:24:06Z</time>
      </trkpt>
      <trkpt lat="42.79133" lon="1.39574">
        <ele>1649.28</ele>
        <time>2011-02-26T12:24:23Z</time>
      </trkpt>
      <trkpt lat="42.79137" lon="1.39567">
        <ele>1651.68</ele>
        <time>2011-02-26T12:24:32Z</time>
      </trkpt>
      <trkpt lat="42.79144" lon="1.39561">
        <ele>1653.6</ele>
        <time>2011-02-26T12:24:45Z</time>
      </trkpt>
      <trkpt lat="42.79144" lon="1.39561">
        <ele>1654.57</ele>
        <time>2011-02-26T12:24:55Z</time>
      </trkpt>
      <trkpt lat="42.79144" lon="1.39562">
        <ele>1654.57</ele>
        <time>2011-02-26T12:25:04Z</time>
      </trkpt>
      <trkpt lat="42.79144" lon="1.39562">
        <ele>1654.09</ele>
        <time>2011-02-26T12:25:16Z</time>
      </trkpt>
      <trkpt lat="42.79144" lon="1.39562">
        <ele>1654.57</ele>
        <time>2011-02-26T12:25:35Z</time>
      </trkpt>
      <trkpt lat="42.79144" lon="1.39562">
        <ele>1655.05</ele>
        <time>2011-02-26T12:25:56Z</time>
      </trkpt>
      <trkpt lat="42.79149" lon="1.39568">
        <ele>1656.01</ele>
        <time>2011-02-26T12:26:10Z</time>
      </trkpt>
      <trkpt lat="42.79151" lon="1.3957">
        <ele>1656.49</ele>
        <time>2011-02-26T12:26:12Z</time>
      </trkpt>
      <trkpt lat="42.79155" lon="1.39573">
        <ele>1656.97</ele>
        <time>2011-02-26T12:26:16Z</time>
      </trkpt>
      <trkpt lat="42.79157" lon="1.39578">
        <ele>1657.93</ele>
        <time>2011-02-26T12:26:20Z</time>
      </trkpt>
      <trkpt lat="42.79162" lon="1.39586">
        <ele>1659.37</ele>
        <time>2011-02-26T12:26:32Z</time>
      </trkpt>
      <trkpt lat="42.79166" lon="1.39586">
        <ele>1659.37</ele>
        <time>2011-02-26T12:26:41Z</time>
      </trkpt>
      <trkpt lat="42.79171" lon="1.39583">
        <ele>1661.78</ele>
        <time>2011-02-26T12:26:53Z</time>
      </trkpt>
      <trkpt lat="42.79171" lon="1.39582">
        <ele>1661.78</ele>
        <time>2011-02-26T12:27:02Z</time>
      </trkpt>
      <trkpt lat="42.79172" lon="1.39589">
        <ele>1663.7</ele>
        <time>2011-02-26T12:27:14Z</time>
      </trkpt>
      <trkpt lat="42.7917" lon="1.396">
        <ele>1665.14</ele>
        <time>2011-02-26T12:27:27Z</time>
      </trkpt>
      <trkpt lat="42.79167" lon="1.39604">
        <ele>1666.1</ele>
        <time>2011-02-26T12:27:31Z</time>
      </trkpt>
      <trkpt lat="42.79162" lon="1.3961">
        <ele>1668.02</ele>
        <time>2011-02-26T12:27:44Z</time>
      </trkpt>
      <trkpt lat="42.79155" lon="1.39614">
        <ele>1669.95</ele>
        <time>2011-02-26T12:27:55Z</time>
      </trkpt>
      <trkpt lat="42.79152" lon="1.39614">
        <ele>1670.91</ele>
        <time>2011-02-26T12:28:07Z</time>
      </trkpt>
      <trkpt lat="42.79152" lon="1.39614">
        <ele>1671.87</ele>
        <time>2011-02-26T12:28:18Z</time>
      </trkpt>
      <trkpt lat="42.79154" lon="1.39614">
        <ele>1671.87</ele>
        <time>2011-02-26T12:28:20Z</time>
      </trkpt>
      <trkpt lat="42.79162" lon="1.39616">
        <ele>1673.79</ele>
        <time>2011-02-26T12:28:32Z</time>
      </trkpt>
      <trkpt lat="42.79168" lon="1.39622">
        <ele>1675.72</ele>
        <time>2011-02-26T12:28:46Z</time>
      </trkpt>
      <trkpt lat="42.7917" lon="1.39623">
        <ele>1677.16</ele>
        <time>2011-02-26T12:29:01Z</time>
      </trkpt>
      <trkpt lat="42.79179" lon="1.39625">
        <ele>1678.6</ele>
        <time>2011-02-26T12:29:11Z</time>
      </trkpt>
      <trkpt lat="42.79187" lon="1.39627">
        <ele>1678.6</ele>
        <time>2011-02-26T12:29:22Z</time>
      </trkpt>
      <trkpt lat="42.79195" lon="1.39625">
        <ele>1679.56</ele>
        <time>2011-02-26T12:29:33Z</time>
      </trkpt>
      <trkpt lat="42.79197" lon="1.39627">
        <ele>1680.52</ele>
        <time>2011-02-26T12:29:39Z</time>
      </trkpt>
      <trkpt lat="42.79207" lon="1.3963">
        <ele>1681</ele>
        <time>2011-02-26T12:29:52Z</time>
      </trkpt>
      <trkpt lat="42.7921" lon="1.3963">
        <ele>1681.96</ele>
        <time>2011-02-26T12:29:55Z</time>
      </trkpt>
      <trkpt lat="42.79219" lon="1.39631">
        <ele>1683.41</ele>
        <time>2011-02-26T12:30:08Z</time>
      </trkpt>
      <trkpt lat="42.79227" lon="1.39629">
        <ele>1684.37</ele>
        <time>2011-02-26T12:30:19Z</time>
      </trkpt>
      <trkpt lat="42.79232" lon="1.39634">
        <ele>1684.37</ele>
        <time>2011-02-26T12:30:32Z</time>
      </trkpt>
      <trkpt lat="42.79232" lon="1.39635">
        <ele>1684.37</ele>
        <time>2011-02-26T12:30:47Z</time>
      </trkpt>
      <trkpt lat="42.79232" lon="1.39637">
        <ele>1684.85</ele>
        <time>2011-02-26T12:31:04Z</time>
      </trkpt>
      <trkpt lat="42.79233" lon="1.39637">
        <ele>1685.81</ele>
        <time>2011-02-26T12:32:21Z</time>
      </trkpt>
      <trkpt lat="42.79233" lon="1.39637">
        <ele>1685.33</ele>
        <time>2011-02-26T12:33:01Z</time>
      </trkpt>
      <trkpt lat="42.79233" lon="1.39637">
        <ele>1685.33</ele>
        <time>2011-02-26T12:33:24Z</time>
      </trkpt>
      <trkpt lat="42.79234" lon="1.39638">
        <ele>1685.81</ele>
        <time>2011-02-26T12:33:47Z</time>
      </trkpt>
      <trkpt lat="42.79234" lon="1.39638">
        <ele>1686.29</ele>
        <time>2011-02-26T12:33:58Z</time>
      </trkpt>
      <trkpt lat="42.79241" lon="1.39641">
        <ele>1685.81</ele>
        <time>2011-02-26T12:34:10Z</time>
      </trkpt>
      <trkpt lat="42.79242" lon="1.39642">
        <ele>1684.85</ele>
        <time>2011-02-26T12:34:14Z</time>
      </trkpt>
      <trkpt lat="42.79252" lon="1.39651">
        <ele>1685.33</ele>
        <time>2011-02-26T12:34:26Z</time>
      </trkpt>
      <trkpt lat="42.79259" lon="1.39655">
        <ele>1681.96</ele>
        <time>2011-02-26T12:34:32Z</time>
      </trkpt>
      <trkpt lat="42.7927" lon="1.39663">
        <ele>1678.6</ele>
        <time>2011-02-26T12:34:38Z</time>
      </trkpt>
      <trkpt lat="42.79273" lon="1.39666">
        <ele>1676.68</ele>
        <time>2011-02-26T12:34:40Z</time>
      </trkpt>
      <trkpt lat="42.79289" lon="1.39679">
        <ele>1673.31</ele>
        <time>2011-02-26T12:34:51Z</time>
      </trkpt>
      <trkpt lat="42.79295" lon="1.39682">
        <ele>1670.91</ele>
        <time>2011-02-26T12:34:55Z</time>
      </trkpt>
      <trkpt lat="42.79306" lon="1.39686">
        <ele>1668.02</ele>
        <time>2011-02-26T12:34:59Z</time>
      </trkpt>
      <trkpt lat="42.79309" lon="1.39687">
        <ele>1667.54</ele>
        <time>2011-02-26T12:35:00Z</time>
      </trkpt>
      <trkpt lat="42.79319" lon="1.39692">
        <ele>1667.06</ele>
        <time>2011-02-26T12:35:06Z</time>
      </trkpt>
      <trkpt lat="42.79325" lon="1.39697">
        <ele>1666.58</ele>
        <time>2011-02-26T12:35:11Z</time>
      </trkpt>
      <trkpt lat="42.79335" lon="1.39706">
        <ele>1662.26</ele>
        <time>2011-02-26T12:35:15Z</time>
      </trkpt>
      <trkpt lat="42.79345" lon="1.39712">
        <ele>1658.89</ele>
        <time>2011-02-26T12:35:18Z</time>
      </trkpt>
      <trkpt lat="42.79349" lon="1.39713">
        <ele>1658.89</ele>
        <time>2011-02-26T12:35:19Z</time>
      </trkpt>
      <trkpt lat="42.79363" lon="1.39721">
        <ele>1657.45</ele>
        <time>2011-02-26T12:35:28Z</time>
      </trkpt>
      <trkpt lat="42.79376" lon="1.39723">
        <ele>1658.89</ele>
        <time>2011-02-26T12:35:40Z</time>
      </trkpt>
      <trkpt lat="42.79378" lon="1.39724">
        <ele>1658.89</ele>
        <time>2011-02-26T12:35:42Z</time>
      </trkpt>
      <trkpt lat="42.79381" lon="1.39725">
        <ele>1659.37</ele>
        <time>2011-02-26T12:35:45Z</time>
      </trkpt>
      <trkpt lat="42.79388" lon="1.39724">
        <ele>1659.37</ele>
        <time>2011-02-26T12:35:51Z</time>
      </trkpt>
      <trkpt lat="42.79397" lon="1.39723">
        <ele>1660.33</ele>
        <time>2011-02-26T12:35:59Z</time>
      </trkpt>
      <trkpt lat="42.79406" lon="1.39731">
        <ele>1661.78</ele>
        <time>2011-02-26T12:36:09Z</time>
      </trkpt>
      <trkpt lat="42.79415" lon="1.39732">
        <ele>1662.74</ele>
        <time>2011-02-26T12:36:16Z</time>
      </trkpt>
      <trkpt lat="42.79425" lon="1.39743">
        <ele>1663.22</ele>
        <time>2011-02-26T12:36:30Z</time>
      </trkpt>
      <trkpt lat="42.79429" lon="1.39746">
        <ele>1664.18</ele>
        <time>2011-02-26T12:36:34Z</time>
      </trkpt>
      <trkpt lat="42.79431" lon="1.3975">
        <ele>1665.62</ele>
        <time>2011-02-26T12:36:38Z</time>
      </trkpt>
      <trkpt lat="42.79432" lon="1.39757">
        <ele>1665.62</ele>
        <time>2011-02-26T12:36:44Z</time>
      </trkpt>
      <trkpt lat="42.79437" lon="1.39762">
        <ele>1667.06</ele>
        <time>2011-02-26T12:36:51Z</time>
      </trkpt>
      <trkpt lat="42.79437" lon="1.39764">
        <ele>1668.02</ele>
        <time>2011-02-26T12:36:54Z</time>
      </trkpt>
      <trkpt lat="42.79444" lon="1.39774">
        <ele>1668.99</ele>
        <time>2011-02-26T12:37:06Z</time>
      </trkpt>
      <trkpt lat="42.79452" lon="1.39779">
        <ele>1669.95</ele>
        <time>2011-02-26T12:37:17Z</time>
      </trkpt>
      <trkpt lat="42.79461" lon="1.3978">
        <ele>1670.91</ele>
        <time>2011-02-26T12:37:27Z</time>
      </trkpt>
      <trkpt lat="42.79465" lon="1.39783">
        <ele>1671.39</ele>
        <time>2011-02-26T12:37:31Z</time>
      </trkpt>
      <trkpt lat="42.79478" lon="1.3978">
        <ele>1670.91</ele>
        <time>2011-02-26T12:37:45Z</time>
      </trkpt>
      <trkpt lat="42.79486" lon="1.3978">
        <ele>1673.31</ele>
        <time>2011-02-26T12:37:56Z</time>
      </trkpt>
      <trkpt lat="42.79497" lon="1.39779">
        <ele>1673.31</ele>
        <time>2011-02-26T12:38:09Z</time>
      </trkpt>
      <trkpt lat="42.79504" lon="1.39779">
        <ele>1674.75</ele>
        <time>2011-02-26T12:38:21Z</time>
      </trkpt>
      <trkpt lat="42.79511" lon="1.39777">
        <ele>1676.68</ele>
        <time>2011-02-26T12:38:38Z</time>
      </trkpt>
      <trkpt lat="42.79515" lon="1.39779">
        <ele>1678.6</ele>
        <time>2011-02-26T12:38:49Z</time>
      </trkpt>
      <trkpt lat="42.79523" lon="1.39785">
        <ele>1681</ele>
        <time>2011-02-26T12:39:01Z</time>
      </trkpt>
      <trkpt lat="42.79526" lon="1.39789">
        <ele>1681.96</ele>
        <time>2011-02-26T12:39:06Z</time>
      </trkpt>
      <trkpt lat="42.79527" lon="1.39796">
        <ele>1682.93</ele>
        <time>2011-02-26T12:39:12Z</time>
      </trkpt>
      <trkpt lat="42.79531" lon="1.39789">
        <ele>1684.85</ele>
        <time>2011-02-26T12:39:22Z</time>
      </trkpt>
      <trkpt lat="42.79532" lon="1.39781">
        <ele>1686.29</ele>
        <time>2011-02-26T12:39:35Z</time>
      </trkpt>
      <trkpt lat="42.79533" lon="1.39781">
        <ele>1686.29</ele>
        <time>2011-02-26T12:39:36Z</time>
      </trkpt>
      <trkpt lat="42.79538" lon="1.39779">
        <ele>1687.73</ele>
        <time>2011-02-26T12:39:47Z</time>
      </trkpt>
      <trkpt lat="42.7954" lon="1.39778">
        <ele>1688.69</ele>
        <time>2011-02-26T12:39:57Z</time>
      </trkpt>
      <trkpt lat="42.79544" lon="1.39781">
        <ele>1690.14</ele>
        <time>2011-02-26T12:40:08Z</time>
      </trkpt>
      <trkpt lat="42.79551" lon="1.39785">
        <ele>1692.06</ele>
        <time>2011-02-26T12:40:20Z</time>
      </trkpt>
      <trkpt lat="42.79557" lon="1.39789">
        <ele>1693.02</ele>
        <time>2011-02-26T12:40:32Z</time>
      </trkpt>
      <trkpt lat="42.79559" lon="1.39789">
        <ele>1693.5</ele>
        <time>2011-02-26T12:40:34Z</time>
      </trkpt>
      <trkpt lat="42.79568" lon="1.39787">
        <ele>1693.98</ele>
        <time>2011-02-26T12:40:46Z</time>
      </trkpt>
      <trkpt lat="42.7957" lon="1.39787">
        <ele>1693.98</ele>
        <time>2011-02-26T12:40:48Z</time>
      </trkpt>
      <trkpt lat="42.79576" lon="1.39785">
        <ele>1693.5</ele>
        <time>2011-02-26T12:41:00Z</time>
      </trkpt>
      <trkpt lat="42.79577" lon="1.39784">
        <ele>1693.5</ele>
        <time>2011-02-26T12:41:04Z</time>
      </trkpt>
      <trkpt lat="42.79583" lon="1.39779">
        <ele>1693.98</ele>
        <time>2011-02-26T12:41:16Z</time>
      </trkpt>
      <trkpt lat="42.79588" lon="1.39777">
        <ele>1694.94</ele>
        <time>2011-02-26T12:41:21Z</time>
      </trkpt>
      <trkpt lat="42.79599" lon="1.39775">
        <ele>1693.98</ele>
        <time>2011-02-26T12:41:32Z</time>
      </trkpt>
      <trkpt lat="42.79608" lon="1.3977">
        <ele>1695.42</ele>
        <time>2011-02-26T12:41:44Z</time>
      </trkpt>
      <trkpt lat="42.79613" lon="1.39764">
        <ele>1695.9</ele>
        <time>2011-02-26T12:41:54Z</time>
      </trkpt>
      <trkpt lat="42.79615" lon="1.39763">
        <ele>1695.9</ele>
        <time>2011-02-26T12:41:57Z</time>
      </trkpt>
      <trkpt lat="42.79619" lon="1.39761">
        <ele>1695.9</ele>
        <time>2011-02-26T12:42:01Z</time>
      </trkpt>
      <trkpt lat="42.79624" lon="1.39758">
        <ele>1695.9</ele>
        <time>2011-02-26T12:42:06Z</time>
      </trkpt>
      <trkpt lat="42.79628" lon="1.39755">
        <ele>1695.42</ele>
        <time>2011-02-26T12:42:12Z</time>
      </trkpt>
      <trkpt lat="42.79642" lon="1.39752">
        <ele>1693.02</ele>
        <time>2011-02-26T12:42:21Z</time>
      </trkpt>
      <trkpt lat="42.79653" lon="1.39745">
        <ele>1694.94</ele>
        <time>2011-02-26T12:42:34Z</time>
      </trkpt>
      <trkpt lat="42.79654" lon="1.39744">
        <ele>1695.42</ele>
        <time>2011-02-26T12:42:36Z</time>
      </trkpt>
      <trkpt lat="42.79656" lon="1.39743">
        <ele>1695.9</ele>
        <time>2011-02-26T12:42:39Z</time>
      </trkpt>
      <trkpt lat="42.79659" lon="1.3974">
        <ele>1696.86</ele>
        <time>2011-02-26T12:42:57Z</time>
      </trkpt>
      <trkpt lat="42.79661" lon="1.39736">
        <ele>1697.83</ele>
        <time>2011-02-26T12:43:23Z</time>
      </trkpt>
      <trkpt lat="42.79662" lon="1.39735">
        <ele>1697.83</ele>
        <time>2011-02-26T12:43:24Z</time>
      </trkpt>
      <trkpt lat="42.79666" lon="1.39733">
        <ele>1699.75</ele>
        <time>2011-02-26T12:43:35Z</time>
      </trkpt>
      <trkpt lat="42.79666" lon="1.39733">
        <ele>1699.75</ele>
        <time>2011-02-26T12:43:40Z</time>
      </trkpt>
      <trkpt lat="42.79667" lon="1.39736">
        <ele>1701.19</ele>
        <time>2011-02-26T12:43:43Z</time>
      </trkpt>
      <trkpt lat="42.79666" lon="1.39742">
        <ele>1701.19</ele>
        <time>2011-02-26T12:43:49Z</time>
      </trkpt>
      <trkpt lat="42.79665" lon="1.39749">
        <ele>1703.59</ele>
        <time>2011-02-26T12:44:04Z</time>
      </trkpt>
      <trkpt lat="42.79665" lon="1.39756">
        <ele>1705.04</ele>
        <time>2011-02-26T12:44:10Z</time>
      </trkpt>
      <trkpt lat="42.79665" lon="1.39761">
        <ele>1706</ele>
        <time>2011-02-26T12:44:15Z</time>
      </trkpt>
      <trkpt lat="42.7966" lon="1.39777">
        <ele>1708.4</ele>
        <time>2011-02-26T12:44:30Z</time>
      </trkpt>
      <trkpt lat="42.79658" lon="1.39783">
        <ele>1709.36</ele>
        <time>2011-02-26T12:44:38Z</time>
      </trkpt>
      <trkpt lat="42.79656" lon="1.39788">
        <ele>1712.25</ele>
        <time>2011-02-26T12:44:44Z</time>
      </trkpt>
      <trkpt lat="42.79661" lon="1.39797">
        <ele>1713.21</ele>
        <time>2011-02-26T12:44:57Z</time>
      </trkpt>
      <trkpt lat="42.79662" lon="1.39805">
        <ele>1712.25</ele>
        <time>2011-02-26T12:45:05Z</time>
      </trkpt>
      <trkpt lat="42.79662" lon="1.39813">
        <ele>1713.69</ele>
        <time>2011-02-26T12:45:14Z</time>
      </trkpt>
      <trkpt lat="42.79659" lon="1.3982">
        <ele>1715.61</ele>
        <time>2011-02-26T12:45:21Z</time>
      </trkpt>
      <trkpt lat="42.79655" lon="1.3983">
        <ele>1717.53</ele>
        <time>2011-02-26T12:45:31Z</time>
      </trkpt>
      <trkpt lat="42.79656" lon="1.39837">
        <ele>1719.46</ele>
        <time>2011-02-26T12:45:43Z</time>
      </trkpt>
      <trkpt lat="42.79655" lon="1.39836">
        <ele>1721.38</ele>
        <time>2011-02-26T12:45:56Z</time>
      </trkpt>
      <trkpt lat="42.79656" lon="1.39841">
        <ele>1723.78</ele>
        <time>2011-02-26T12:46:05Z</time>
      </trkpt>
      <trkpt lat="42.7966" lon="1.39847">
        <ele>1726.67</ele>
        <time>2011-02-26T12:46:18Z</time>
      </trkpt>
      <trkpt lat="42.79661" lon="1.39853">
        <ele>1729.55</ele>
        <time>2011-02-26T12:46:31Z</time>
      </trkpt>
      <trkpt lat="42.79663" lon="1.3986">
        <ele>1731.95</ele>
        <time>2011-02-26T12:46:45Z</time>
      </trkpt>
      <trkpt lat="42.79669" lon="1.39862">
        <ele>1734.36</ele>
        <time>2011-02-26T12:46:55Z</time>
      </trkpt>
      <trkpt lat="42.79672" lon="1.39864">
        <ele>1736.76</ele>
        <time>2011-02-26T12:47:02Z</time>
      </trkpt>
      <trkpt lat="42.79679" lon="1.39865">
        <ele>1738.68</ele>
        <time>2011-02-26T12:47:12Z</time>
      </trkpt>
      <trkpt lat="42.79685" lon="1.3987">
        <ele>1740.6</ele>
        <time>2011-02-26T12:47:25Z</time>
      </trkpt>
      <trkpt lat="42.79687" lon="1.39872">
        <ele>1740.6</ele>
        <time>2011-02-26T12:47:28Z</time>
      </trkpt>
      <trkpt lat="42.7969" lon="1.39877">
        <ele>1739.64</ele>
        <time>2011-02-26T12:47:32Z</time>
      </trkpt>
      <trkpt lat="42.79693" lon="1.39878">
        <ele>1740.12</ele>
        <time>2011-02-26T12:47:36Z</time>
      </trkpt>
      <trkpt lat="42.79695" lon="1.39879">
        <ele>1740.12</ele>
        <time>2011-02-26T12:47:39Z</time>
      </trkpt>
      <trkpt lat="42.79706" lon="1.39879">
        <ele>1739.64</ele>
        <time>2011-02-26T12:47:51Z</time>
      </trkpt>
      <trkpt lat="42.79713" lon="1.3988">
        <ele>1743.01</ele>
        <time>2011-02-26T12:48:02Z</time>
      </trkpt>
      <trkpt lat="42.79719" lon="1.39881">
        <ele>1743.49</ele>
        <time>2011-02-26T12:48:14Z</time>
      </trkpt>
      <trkpt lat="42.79723" lon="1.39883">
        <ele>1744.93</ele>
        <time>2011-02-26T12:48:24Z</time>
      </trkpt>
      <trkpt lat="42.79723" lon="1.39883">
        <ele>1745.41</ele>
        <time>2011-02-26T12:48:40Z</time>
      </trkpt>
      <trkpt lat="42.79723" lon="1.39883">
        <ele>1745.89</ele>
        <time>2011-02-26T12:48:52Z</time>
      </trkpt>
      <trkpt lat="42.79723" lon="1.39883">
        <ele>1738.68</ele>
        <time>2011-02-26T12:49:18Z</time>
      </trkpt>
      <trkpt lat="42.79723" lon="1.39883">
        <ele>1743.97</ele>
        <time>2011-02-26T12:49:19Z</time>
      </trkpt>
      <trkpt lat="42.79723" lon="1.39882">
        <ele>1742.05</ele>
        <time>2011-02-26T12:49:31Z</time>
      </trkpt>
      <trkpt lat="42.79723" lon="1.39882">
        <ele>1746.85</ele>
        <time>2011-02-26T12:49:32Z</time>
      </trkpt>
      <trkpt lat="42.79722" lon="1.39882">
        <ele>1745.89</ele>
        <time>2011-02-26T12:49:33Z</time>
      </trkpt>
      <trkpt lat="42.79721" lon="1.39882">
        <ele>1744.45</ele>
        <time>2011-02-26T12:50:14Z</time>
      </trkpt>
      <trkpt lat="42.79722" lon="1.39883">
        <ele>1744.45</ele>
        <time>2011-02-26T12:51:03Z</time>
      </trkpt>
      <trkpt lat="42.79722" lon="1.39883">
        <ele>1744.45</ele>
        <time>2011-02-26T12:51:04Z</time>
      </trkpt>
      <trkpt lat="42.79725" lon="1.39889">
        <ele>1744.93</ele>
        <time>2011-02-26T12:51:17Z</time>
      </trkpt>
      <trkpt lat="42.79724" lon="1.39894">
        <ele>1745.89</ele>
        <time>2011-02-26T12:51:25Z</time>
      </trkpt>
      <trkpt lat="42.79726" lon="1.39898">
        <ele>1746.85</ele>
        <time>2011-02-26T12:51:28Z</time>
      </trkpt>
      <trkpt lat="42.79727" lon="1.39901">
        <ele>1748.29</ele>
        <time>2011-02-26T12:51:33Z</time>
      </trkpt>
      <trkpt lat="42.79726" lon="1.39908">
        <ele>1751.18</ele>
        <time>2011-02-26T12:51:48Z</time>
      </trkpt>
      <trkpt lat="42.79725" lon="1.39909">
        <ele>1752.14</ele>
        <time>2011-02-26T12:51:51Z</time>
      </trkpt>
      <trkpt lat="42.79727" lon="1.3991">
        <ele>1752.62</ele>
        <time>2011-02-26T12:51:55Z</time>
      </trkpt>
      <trkpt lat="42.79732" lon="1.39914">
        <ele>1754.54</ele>
        <time>2011-02-26T12:52:02Z</time>
      </trkpt>
      <trkpt lat="42.79733" lon="1.39915">
        <ele>1755.99</ele>
        <time>2011-02-26T12:52:04Z</time>
      </trkpt>
      <trkpt lat="42.79736" lon="1.39916">
        <ele>1757.91</ele>
        <time>2011-02-26T12:52:07Z</time>
      </trkpt>
      <trkpt lat="42.79737" lon="1.3992">
        <ele>1758.39</ele>
        <time>2011-02-26T12:52:19Z</time>
      </trkpt>
      <trkpt lat="42.79738" lon="1.39923">
        <ele>1757.91</ele>
        <time>2011-02-26T12:52:21Z</time>
      </trkpt>
      <trkpt lat="42.79739" lon="1.39927">
        <ele>1759.35</ele>
        <time>2011-02-26T12:52:25Z</time>
      </trkpt>
      <trkpt lat="42.79742" lon="1.39937">
        <ele>1759.35</ele>
        <time>2011-02-26T12:52:35Z</time>
      </trkpt>
      <trkpt lat="42.79742" lon="1.39942">
        <ele>1761.27</ele>
        <time>2011-02-26T12:52:39Z</time>
      </trkpt>
      <trkpt lat="42.79742" lon="1.39953">
        <ele>1762.23</ele>
        <time>2011-02-26T12:52:51Z</time>
      </trkpt>
      <trkpt lat="42.7974" lon="1.39963">
        <ele>1765.12</ele>
        <time>2011-02-26T12:53:05Z</time>
      </trkpt>
      <trkpt lat="42.79742" lon="1.39971">
        <ele>1766.56</ele>
        <time>2011-02-26T12:53:13Z</time>
      </trkpt>
      <trkpt lat="42.79744" lon="1.39975">
        <ele>1768.48</ele>
        <time>2011-02-26T12:53:19Z</time>
      </trkpt>
      <trkpt lat="42.79745" lon="1.39981">
        <ele>1769.44</ele>
        <time>2011-02-26T12:53:28Z</time>
      </trkpt>
      <trkpt lat="42.79745" lon="1.39987">
        <ele>1770.41</ele>
        <time>2011-02-26T12:53:37Z</time>
      </trkpt>
      <trkpt lat="42.79746" lon="1.39989">
        <ele>1773.77</ele>
        <time>2011-02-26T12:53:47Z</time>
      </trkpt>
      <trkpt lat="42.79752" lon="1.4">
        <ele>1775.21</ele>
        <time>2011-02-26T12:54:02Z</time>
      </trkpt>
      <trkpt lat="42.79755" lon="1.40007">
        <ele>1776.65</ele>
        <time>2011-02-26T12:54:13Z</time>
      </trkpt>
      <trkpt lat="42.79753" lon="1.40013">
        <ele>1778.58</ele>
        <time>2011-02-26T12:54:28Z</time>
      </trkpt>
      <trkpt lat="42.79751" lon="1.40016">
        <ele>1780.5</ele>
        <time>2011-02-26T12:54:38Z</time>
      </trkpt>
      <trkpt lat="42.79755" lon="1.40019">
        <ele>1782.42</ele>
        <time>2011-02-26T12:54:50Z</time>
      </trkpt>
      <trkpt lat="42.7976" lon="1.4002">
        <ele>1785.31</ele>
        <time>2011-02-26T12:55:01Z</time>
      </trkpt>
      <trkpt lat="42.79762" lon="1.40022">
        <ele>1786.27</ele>
        <time>2011-02-26T12:55:17Z</time>
      </trkpt>
      <trkpt lat="42.79761" lon="1.40029">
        <ele>1788.19</ele>
        <time>2011-02-26T12:55:24Z</time>
      </trkpt>
      <trkpt lat="42.79759" lon="1.40043">
        <ele>1792.03</ele>
        <time>2011-02-26T12:55:38Z</time>
      </trkpt>
      <trkpt lat="42.79758" lon="1.40043">
        <ele>1793.48</ele>
        <time>2011-02-26T12:55:50Z</time>
      </trkpt>
      <trkpt lat="42.79758" lon="1.40044">
        <ele>1792.52</ele>
        <time>2011-02-26T12:56:05Z</time>
      </trkpt>
      <trkpt lat="42.79759" lon="1.40046">
        <ele>1793.48</ele>
        <time>2011-02-26T12:56:15Z</time>
      </trkpt>
      <trkpt lat="42.7976" lon="1.40049">
        <ele>1794.92</ele>
        <time>2011-02-26T12:56:25Z</time>
      </trkpt>
      <trkpt lat="42.79761" lon="1.40049">
        <ele>1796.36</ele>
        <time>2011-02-26T12:56:29Z</time>
      </trkpt>
      <trkpt lat="42.79764" lon="1.40049">
        <ele>1797.32</ele>
        <time>2011-02-26T12:56:33Z</time>
      </trkpt>
      <trkpt lat="42.79771" lon="1.40053">
        <ele>1798.28</ele>
        <time>2011-02-26T12:56:43Z</time>
      </trkpt>
      <trkpt lat="42.79773" lon="1.40055">
        <ele>1800.21</ele>
        <time>2011-02-26T12:56:52Z</time>
      </trkpt>
      <trkpt lat="42.79775" lon="1.40057">
        <ele>1801.65</ele>
        <time>2011-02-26T12:56:55Z</time>
      </trkpt>
      <trkpt lat="42.79777" lon="1.4006">
        <ele>1802.13</ele>
        <time>2011-02-26T12:56:58Z</time>
      </trkpt>
      <trkpt lat="42.79784" lon="1.40067">
        <ele>1805.01</ele>
        <time>2011-02-26T12:57:10Z</time>
      </trkpt>
      <trkpt lat="42.79785" lon="1.40067">
        <ele>1805.49</ele>
        <time>2011-02-26T12:57:11Z</time>
      </trkpt>
      <trkpt lat="42.79787" lon="1.40068">
        <ele>1805.97</ele>
        <time>2011-02-26T12:57:15Z</time>
      </trkpt>
      <trkpt lat="42.79792" lon="1.4007">
        <ele>1807.9</ele>
        <time>2011-02-26T12:57:23Z</time>
      </trkpt>
      <trkpt lat="42.79797" lon="1.40073">
        <ele>1809.34</ele>
        <time>2011-02-26T12:57:30Z</time>
      </trkpt>
      <trkpt lat="42.798" lon="1.40075">
        <ele>1812.22</ele>
        <time>2011-02-26T12:57:39Z</time>
      </trkpt>
      <trkpt lat="42.79805" lon="1.40075">
        <ele>1814.15</ele>
        <time>2011-02-26T12:57:44Z</time>
      </trkpt>
      <trkpt lat="42.79811" lon="1.40081">
        <ele>1814.63</ele>
        <time>2011-02-26T12:57:57Z</time>
      </trkpt>
      <trkpt lat="42.7981" lon="1.40081">
        <ele>1814.63</ele>
        <time>2011-02-26T12:58:13Z</time>
      </trkpt>
      <trkpt lat="42.7981" lon="1.40082">
        <ele>1812.7</ele>
        <time>2011-02-26T12:58:31Z</time>
      </trkpt>
      <trkpt lat="42.7981" lon="1.40081">
        <ele>1816.07</ele>
        <time>2011-02-26T12:58:35Z</time>
      </trkpt>
      <trkpt lat="42.79811" lon="1.40082">
        <ele>1815.11</ele>
        <time>2011-02-26T12:58:50Z</time>
      </trkpt>
      <trkpt lat="42.79811" lon="1.40082">
        <ele>1814.15</ele>
        <time>2011-02-26T12:58:51Z</time>
      </trkpt>
      <trkpt lat="42.79816" lon="1.40088">
        <ele>1817.99</ele>
        <time>2011-02-26T12:58:59Z</time>
      </trkpt>
      <trkpt lat="42.79821" lon="1.40091">
        <ele>1818.47</ele>
        <time>2011-02-26T12:59:10Z</time>
      </trkpt>
      <trkpt lat="42.79829" lon="1.401">
        <ele>1819.43</ele>
        <time>2011-02-26T12:59:20Z</time>
      </trkpt>
      <trkpt lat="42.79838" lon="1.40111">
        <ele>1820.87</ele>
        <time>2011-02-26T12:59:29Z</time>
      </trkpt>
      <trkpt lat="42.79842" lon="1.40117">
        <ele>1822.32</ele>
        <time>2011-02-26T12:59:33Z</time>
      </trkpt>
      <trkpt lat="42.79847" lon="1.40124">
        <ele>1825.68</ele>
        <time>2011-02-26T12:59:38Z</time>
      </trkpt>
      <trkpt lat="42.79848" lon="1.40125">
        <ele>1825.68</ele>
        <time>2011-02-26T12:59:39Z</time>
      </trkpt>
      <trkpt lat="42.79851" lon="1.40132">
        <ele>1821.84</ele>
        <time>2011-02-26T12:59:42Z</time>
      </trkpt>
      <trkpt lat="42.79852" lon="1.40137">
        <ele>1821.35</ele>
        <time>2011-02-26T12:59:54Z</time>
      </trkpt>
      <trkpt lat="42.79852" lon="1.40137">
        <ele>1818.95</ele>
        <time>2011-02-26T12:59:57Z</time>
      </trkpt>
      <trkpt lat="42.79852" lon="1.40137">
        <ele>1819.91</ele>
        <time>2011-02-26T13:00:10Z</time>
      </trkpt>
      <trkpt lat="42.79851" lon="1.40137">
        <ele>1818.47</ele>
        <time>2011-02-26T13:00:14Z</time>
      </trkpt>
      <trkpt lat="42.7985" lon="1.40138">
        <ele>1816.07</ele>
        <time>2011-02-26T13:00:16Z</time>
      </trkpt>
      <trkpt lat="42.7985" lon="1.40137">
        <ele>1816.55</ele>
        <time>2011-02-26T13:00:30Z</time>
      </trkpt>
      <trkpt lat="42.7985" lon="1.40137">
        <ele>1817.51</ele>
        <time>2011-02-26T13:00:39Z</time>
      </trkpt>
      <trkpt lat="42.7985" lon="1.40137">
        <ele>1821.35</ele>
        <time>2011-02-26T13:00:57Z</time>
      </trkpt>
      <trkpt lat="42.79849" lon="1.40137">
        <ele>1817.99</ele>
        <time>2011-02-26T13:01:03Z</time>
      </trkpt>
      <trkpt lat="42.79849" lon="1.40137">
        <ele>1814.15</ele>
        <time>2011-02-26T13:01:04Z</time>
      </trkpt>
      <trkpt lat="42.79849" lon="1.40137">
        <ele>1817.99</ele>
        <time>2011-02-26T13:01:05Z</time>
      </trkpt>
      <trkpt lat="42.79849" lon="1.40137">
        <ele>1819.43</ele>
        <time>2011-02-26T13:01:08Z</time>
      </trkpt>
      <trkpt lat="42.79849" lon="1.40137">
        <ele>1817.99</ele>
        <time>2011-02-26T13:01:23Z</time>
      </trkpt>
      <trkpt lat="42.79849" lon="1.40137">
        <ele>1814.63</ele>
        <time>2011-02-26T13:02:34Z</time>
      </trkpt>
      <trkpt lat="42.79849" lon="1.40137">
        <ele>1814.63</ele>
        <time>2011-02-26T13:05:55Z</time>
      </trkpt>
      <trkpt lat="42.79849" lon="1.40137">
        <ele>1817.03</ele>
        <time>2011-02-26T13:07:03Z</time>
      </trkpt>
      <trkpt lat="42.79849" lon="1.40137">
        <ele>1814.15</ele>
        <time>2011-02-26T13:07:08Z</time>
      </trkpt>
      <trkpt lat="42.79849" lon="1.40137">
        <ele>1810.78</ele>
        <time>2011-02-26T13:07:09Z</time>
      </trkpt>
      <trkpt lat="42.79849" lon="1.40137">
        <ele>1814.15</ele>
        <time>2011-02-26T13:07:10Z</time>
      </trkpt>
      <trkpt lat="42.79849" lon="1.40137">
        <ele>1815.59</ele>
        <time>2011-02-26T13:07:28Z</time>
      </trkpt>
      <trkpt lat="42.79849" lon="1.40137">
        <ele>1820.39</ele>
        <time>2011-02-26T13:08:01Z</time>
      </trkpt>
      <trkpt lat="42.79849" lon="1.40137">
        <ele>1819.43</ele>
        <time>2011-02-26T13:08:02Z</time>
      </trkpt>
      <trkpt lat="42.7985" lon="1.40137">
        <ele>1817.99</ele>
        <time>2011-02-26T13:08:09Z</time>
      </trkpt>
      <trkpt lat="42.79851" lon="1.40137">
        <ele>1816.55</ele>
        <time>2011-02-26T13:08:26Z</time>
      </trkpt>
      <trkpt lat="42.79851" lon="1.40137">
        <ele>1819.91</ele>
        <time>2011-02-26T13:08:44Z</time>
      </trkpt>
      <trkpt lat="42.79851" lon="1.40137">
        <ele>1819.43</ele>
        <time>2011-02-26T13:08:45Z</time>
      </trkpt>
      <trkpt lat="42.79852" lon="1.40138">
        <ele>1816.55</ele>
        <time>2011-02-26T13:08:47Z</time>
      </trkpt>
      <trkpt lat="42.79851" lon="1.40137">
        <ele>1814.15</ele>
        <time>2011-02-26T13:08:52Z</time>
      </trkpt>
      <trkpt lat="42.79851" lon="1.40137">
        <ele>1817.51</ele>
        <time>2011-02-26T13:09:03Z</time>
      </trkpt>
      <trkpt lat="42.79851" lon="1.40137">
        <ele>1817.03</ele>
        <time>2011-02-26T13:09:12Z</time>
      </trkpt>
      <trkpt lat="42.79851" lon="1.40138">
        <ele>1813.66</ele>
        <time>2011-02-26T13:09:22Z</time>
      </trkpt>
      <trkpt lat="42.79851" lon="1.40138">
        <ele>1814.63</ele>
        <time>2011-02-26T13:09:23Z</time>
      </trkpt>
      <trkpt lat="42.79851" lon="1.40137">
        <ele>1816.55</ele>
        <time>2011-02-26T13:09:26Z</time>
      </trkpt>
      <trkpt lat="42.7985" lon="1.40137">
        <ele>1813.18</ele>
        <time>2011-02-26T13:09:30Z</time>
      </trkpt>
      <trkpt lat="42.79851" lon="1.40137">
        <ele>1815.11</ele>
        <time>2011-02-26T13:09:31Z</time>
      </trkpt>
      <trkpt lat="42.79851" lon="1.40137">
        <ele>1816.07</ele>
        <time>2011-02-26T13:09:33Z</time>
      </trkpt>
      <trkpt lat="42.7985" lon="1.40137">
        <ele>1816.07</ele>
        <time>2011-02-26T13:09:47Z</time>
      </trkpt>
      <trkpt lat="42.79851" lon="1.40137">
        <ele>1815.59</ele>
        <time>2011-02-26T13:09:54Z</time>
      </trkpt>
      <trkpt lat="42.79853" lon="1.40138">
        <ele>1814.63</ele>
        <time>2011-02-26T13:09:59Z</time>
      </trkpt>
      <trkpt lat="42.79861" lon="1.40147">
        <ele>1811.26</ele>
        <time>2011-02-26T13:10:05Z</time>
      </trkpt>
      <trkpt lat="42.7986" lon="1.40153">
        <ele>1809.82</ele>
        <time>2011-02-26T13:10:06Z</time>
      </trkpt>
      <trkpt lat="42.79861" lon="1.40158">
        <ele>1806.45</ele>
        <time>2011-02-26T13:10:07Z</time>
      </trkpt>
      <trkpt lat="42.79865" lon="1.40161">
        <ele>1805.49</ele>
        <time>2011-02-26T13:10:08Z</time>
      </trkpt>
      <trkpt lat="42.7987" lon="1.40162">
        <ele>1804.53</ele>
        <time>2011-02-26T13:10:09Z</time>
      </trkpt>
      <trkpt lat="42.79875" lon="1.4016">
        <ele>1803.09</ele>
        <time>2011-02-26T13:10:10Z</time>
      </trkpt>
      <trkpt lat="42.79878" lon="1.40158">
        <ele>1802.61</ele>
        <time>2011-02-26T13:10:11Z</time>
      </trkpt>
      <trkpt lat="42.7988" lon="1.4016">
        <ele>1799.73</ele>
        <time>2011-02-26T13:10:12Z</time>
      </trkpt>
      <trkpt lat="42.79883" lon="1.40163">
        <ele>1797.32</ele>
        <time>2011-02-26T13:10:13Z</time>
      </trkpt>
      <trkpt lat="42.79886" lon="1.40167">
        <ele>1794.92</ele>
        <time>2011-02-26T13:10:14Z</time>
      </trkpt>
      <trkpt lat="42.79886" lon="1.40174">
        <ele>1791.07</ele>
        <time>2011-02-26T13:10:15Z</time>
      </trkpt>
      <trkpt lat="42.79889" lon="1.40178">
        <ele>1787.23</ele>
        <time>2011-02-26T13:10:16Z</time>
      </trkpt>
      <trkpt lat="42.79892" lon="1.40183">
        <ele>1783.38</ele>
        <time>2011-02-26T13:10:17Z</time>
      </trkpt>
      <trkpt lat="42.79894" lon="1.40188">
        <ele>1782.9</ele>
        <time>2011-02-26T13:10:18Z</time>
      </trkpt>
      <trkpt lat="42.79898" lon="1.40192">
        <ele>1780.02</ele>
        <time>2011-02-26T13:10:19Z</time>
      </trkpt>
      <trkpt lat="42.79901" lon="1.40199">
        <ele>1777.13</ele>
        <time>2011-02-26T13:10:20Z</time>
      </trkpt>
      <trkpt lat="42.79904" lon="1.40206">
        <ele>1774.73</ele>
        <time>2011-02-26T13:10:21Z</time>
      </trkpt>
      <trkpt lat="42.79905" lon="1.40213">
        <ele>1772.81</ele>
        <time>2011-02-26T13:10:22Z</time>
      </trkpt>
      <trkpt lat="42.79905" lon="1.40219">
        <ele>1770.89</ele>
        <time>2011-02-26T13:10:23Z</time>
      </trkpt>
      <trkpt lat="42.79905" lon="1.40223">
        <ele>1770.89</ele>
        <time>2011-02-26T13:10:24Z</time>
      </trkpt>
      <trkpt lat="42.79906" lon="1.40226">
        <ele>1770.41</ele>
        <time>2011-02-26T13:10:25Z</time>
      </trkpt>
      <trkpt lat="42.79908" lon="1.40227">
        <ele>1769.44</ele>
        <time>2011-02-26T13:10:26Z</time>
      </trkpt>
      <trkpt lat="42.79906" lon="1.40228">
        <ele>1768</ele>
        <time>2011-02-26T13:10:35Z</time>
      </trkpt>
      <trkpt lat="42.79905" lon="1.40229">
        <ele>1768.48</ele>
        <time>2011-02-26T13:10:45Z</time>
      </trkpt>
      <trkpt lat="42.79904" lon="1.40229">
        <ele>1771.37</ele>
        <time>2011-02-26T13:11:11Z</time>
      </trkpt>
      <trkpt lat="42.79904" lon="1.40229">
        <ele>1771.37</ele>
        <time>2011-02-26T13:11:12Z</time>
      </trkpt>
      <trkpt lat="42.79904" lon="1.40229">
        <ele>1768</ele>
        <time>2011-02-26T13:12:07Z</time>
      </trkpt>
      <trkpt lat="42.79908" lon="1.4023">
        <ele>1768.48</ele>
        <time>2011-02-26T13:14:58Z</time>
      </trkpt>
      <trkpt lat="42.7991" lon="1.40232">
        <ele>1768.48</ele>
        <time>2011-02-26T13:14:59Z</time>
      </trkpt>
      <trkpt lat="42.79915" lon="1.40243">
        <ele>1767.52</ele>
        <time>2011-02-26T13:15:03Z</time>
      </trkpt>
      <trkpt lat="42.79916" lon="1.40244">
        <ele>1767.52</ele>
        <time>2011-02-26T13:15:04Z</time>
      </trkpt>
      <trkpt lat="42.79925" lon="1.40259">
        <ele>1766.56</ele>
        <time>2011-02-26T13:15:16Z</time>
      </trkpt>
      <trkpt lat="42.79929" lon="1.40262">
        <ele>1765.6</ele>
        <time>2011-02-26T13:15:45Z</time>
      </trkpt>
      <trkpt lat="42.79931" lon="1.40267">
        <ele>1765.6</ele>
        <time>2011-02-26T13:16:02Z</time>
      </trkpt>
      <trkpt lat="42.79932" lon="1.4027">
        <ele>1765.6</ele>
        <time>2011-02-26T13:16:03Z</time>
      </trkpt>
      <trkpt lat="42.79935" lon="1.40275">
        <ele>1765.12</ele>
        <time>2011-02-26T13:16:04Z</time>
      </trkpt>
      <trkpt lat="42.79938" lon="1.40277">
        <ele>1763.2</ele>
        <time>2011-02-26T13:16:05Z</time>
      </trkpt>
      <trkpt lat="42.79942" lon="1.40278">
        <ele>1762.23</ele>
        <time>2011-02-26T13:16:06Z</time>
      </trkpt>
      <trkpt lat="42.79947" lon="1.40281">
        <ele>1759.83</ele>
        <time>2011-02-26T13:16:07Z</time>
      </trkpt>
      <trkpt lat="42.79953" lon="1.40281">
        <ele>1756.95</ele>
        <time>2011-02-26T13:16:08Z</time>
      </trkpt>
      <trkpt lat="42.7996" lon="1.40282">
        <ele>1754.54</ele>
        <time>2011-02-26T13:16:09Z</time>
      </trkpt>
      <trkpt lat="42.79965" lon="1.40283">
        <ele>1752.14</ele>
        <time>2011-02-26T13:16:10Z</time>
      </trkpt>
      <trkpt lat="42.7997" lon="1.40284">
        <ele>1751.18</ele>
        <time>2011-02-26T13:16:11Z</time>
      </trkpt>
      <trkpt lat="42.79974" lon="1.40289">
        <ele>1749.74</ele>
        <time>2011-02-26T13:16:12Z</time>
      </trkpt>
      <trkpt lat="42.79978" lon="1.40292">
        <ele>1746.85</ele>
        <time>2011-02-26T13:16:13Z</time>
      </trkpt>
      <trkpt lat="42.79983" lon="1.40295">
        <ele>1745.89</ele>
        <time>2011-02-26T13:16:14Z</time>
      </trkpt>
      <trkpt lat="42.79988" lon="1.40296">
        <ele>1744.93</ele>
        <time>2011-02-26T13:16:15Z</time>
      </trkpt>
      <trkpt lat="42.79992" lon="1.40297">
        <ele>1743.49</ele>
        <time>2011-02-26T13:16:16Z</time>
      </trkpt>
      <trkpt lat="42.79996" lon="1.40299">
        <ele>1741.57</ele>
        <time>2011-02-26T13:16:17Z</time>
      </trkpt>
      <trkpt lat="42.8" lon="1.403">
        <ele>1740.6</ele>
        <time>2011-02-26T13:16:18Z</time>
      </trkpt>
      <trkpt lat="42.80003" lon="1.40304">
        <ele>1739.64</ele>
        <time>2011-02-26T13:16:19Z</time>
      </trkpt>
      <trkpt lat="42.80005" lon="1.40309">
        <ele>1738.68</ele>
        <time>2011-02-26T13:16:20Z</time>
      </trkpt>
      <trkpt lat="42.80007" lon="1.40314">
        <ele>1737.72</ele>
        <time>2011-02-26T13:16:21Z</time>
      </trkpt>
      <trkpt lat="42.8001" lon="1.40319">
        <ele>1735.8</ele>
        <time>2011-02-26T13:16:22Z</time>
      </trkpt>
      <trkpt lat="42.80019" lon="1.40328">
        <ele>1731.95</ele>
        <time>2011-02-26T13:16:24Z</time>
      </trkpt>
      <trkpt lat="42.80022" lon="1.40333">
        <ele>1730.99</ele>
        <time>2011-02-26T13:16:25Z</time>
      </trkpt>
      <trkpt lat="42.80024" lon="1.40337">
        <ele>1729.07</ele>
        <time>2011-02-26T13:16:26Z</time>
      </trkpt>
      <trkpt lat="42.80025" lon="1.4034">
        <ele>1729.55</ele>
        <time>2011-02-26T13:16:27Z</time>
      </trkpt>
      <trkpt lat="42.80026" lon="1.40343">
        <ele>1728.59</ele>
        <time>2011-02-26T13:16:29Z</time>
      </trkpt>
      <trkpt lat="42.80029" lon="1.40349">
        <ele>1728.11</ele>
        <time>2011-02-26T13:16:43Z</time>
      </trkpt>
      <trkpt lat="42.80035" lon="1.40353">
        <ele>1727.15</ele>
        <time>2011-02-26T13:16:45Z</time>
      </trkpt>
      <trkpt lat="42.8004" lon="1.40357">
        <ele>1725.7</ele>
        <time>2011-02-26T13:16:46Z</time>
      </trkpt>
      <trkpt lat="42.80045" lon="1.40359">
        <ele>1724.26</ele>
        <time>2011-02-26T13:16:47Z</time>
      </trkpt>
      <trkpt lat="42.80051" lon="1.40358">
        <ele>1721.38</ele>
        <time>2011-02-26T13:16:48Z</time>
      </trkpt>
      <trkpt lat="42.80058" lon="1.4036">
        <ele>1718.97</ele>
        <time>2011-02-26T13:16:49Z</time>
      </trkpt>
      <trkpt lat="42.80065" lon="1.40361">
        <ele>1715.13</ele>
        <time>2011-02-26T13:16:50Z</time>
      </trkpt>
      <trkpt lat="42.80072" lon="1.40359">
        <ele>1713.69</ele>
        <time>2011-02-26T13:16:51Z</time>
      </trkpt>
      <trkpt lat="42.8008" lon="1.40356">
        <ele>1709.36</ele>
        <time>2011-02-26T13:16:52Z</time>
      </trkpt>
      <trkpt lat="42.8009" lon="1.40355">
        <ele>1707.44</ele>
        <time>2011-02-26T13:16:53Z</time>
      </trkpt>
      <trkpt lat="42.80099" lon="1.40357">
        <ele>1704.07</ele>
        <time>2011-02-26T13:16:54Z</time>
      </trkpt>
      <trkpt lat="42.80108" lon="1.40358">
        <ele>1701.19</ele>
        <time>2011-02-26T13:16:55Z</time>
      </trkpt>
      <trkpt lat="42.80117" lon="1.40354">
        <ele>1698.79</ele>
        <time>2011-02-26T13:16:56Z</time>
      </trkpt>
      <trkpt lat="42.80127" lon="1.40352">
        <ele>1696.86</ele>
        <time>2011-02-26T13:16:57Z</time>
      </trkpt>
      <trkpt lat="42.80136" lon="1.40353">
        <ele>1693.5</ele>
        <time>2011-02-26T13:16:58Z</time>
      </trkpt>
      <trkpt lat="42.80145" lon="1.40354">
        <ele>1690.62</ele>
        <time>2011-02-26T13:16:59Z</time>
      </trkpt>
      <trkpt lat="42.80154" lon="1.40356">
        <ele>1686.77</ele>
        <time>2011-02-26T13:17:00Z</time>
      </trkpt>
      <trkpt lat="42.80164" lon="1.40357">
        <ele>1687.25</ele>
        <time>2011-02-26T13:17:01Z</time>
      </trkpt>
      <trkpt lat="42.80174" lon="1.40362">
        <ele>1682.93</ele>
        <time>2011-02-26T13:17:02Z</time>
      </trkpt>
      <trkpt lat="42.80192" lon="1.40373">
        <ele>1676.2</ele>
        <time>2011-02-26T13:17:04Z</time>
      </trkpt>
      <trkpt lat="42.80198" lon="1.40376">
        <ele>1676.68</ele>
        <time>2011-02-26T13:17:05Z</time>
      </trkpt>
      <trkpt lat="42.80204" lon="1.40381">
        <ele>1672.83</ele>
        <time>2011-02-26T13:17:06Z</time>
      </trkpt>
      <trkpt lat="42.8021" lon="1.40387">
        <ele>1670.91</ele>
        <time>2011-02-26T13:17:07Z</time>
      </trkpt>
      <trkpt lat="42.80214" lon="1.40394">
        <ele>1669.47</ele>
        <time>2011-02-26T13:17:08Z</time>
      </trkpt>
      <trkpt lat="42.80218" lon="1.404">
        <ele>1669.95</ele>
        <time>2011-02-26T13:17:09Z</time>
      </trkpt>
      <trkpt lat="42.8022" lon="1.40407">
        <ele>1671.39</ele>
        <time>2011-02-26T13:17:16Z</time>
      </trkpt>
      <trkpt lat="42.8022" lon="1.40407">
        <ele>1670.43</ele>
        <time>2011-02-26T13:17:18Z</time>
      </trkpt>
      <trkpt lat="42.80218" lon="1.40409">
        <ele>1670.91</ele>
        <time>2011-02-26T13:17:24Z</time>
      </trkpt>
      <trkpt lat="42.80209" lon="1.4041">
        <ele>1671.87</ele>
        <time>2011-02-26T13:18:11Z</time>
      </trkpt>
      <trkpt lat="42.80202" lon="1.4041">
        <ele>1672.35</ele>
        <time>2011-02-26T13:18:29Z</time>
      </trkpt>
      <trkpt lat="42.802" lon="1.40409">
        <ele>1671.87</ele>
        <time>2011-02-26T13:18:31Z</time>
      </trkpt>
      <trkpt lat="42.80199" lon="1.40408">
        <ele>1671.87</ele>
        <time>2011-02-26T13:18:32Z</time>
      </trkpt>
      <trkpt lat="42.80199" lon="1.40406">
        <ele>1671.87</ele>
        <time>2011-02-26T13:18:33Z</time>
      </trkpt>
      <trkpt lat="42.80198" lon="1.40404">
        <ele>1671.87</ele>
        <time>2011-02-26T13:18:34Z</time>
      </trkpt>
      <trkpt lat="42.80195" lon="1.40393">
        <ele>1671.39</ele>
        <time>2011-02-26T13:18:36Z</time>
      </trkpt>
      <trkpt lat="42.80196" lon="1.40379">
        <ele>1668.02</ele>
        <time>2011-02-26T13:18:38Z</time>
      </trkpt>
      <trkpt lat="42.80196" lon="1.40371">
        <ele>1665.14</ele>
        <time>2011-02-26T13:18:39Z</time>
      </trkpt>
      <trkpt lat="42.80197" lon="1.40363">
        <ele>1663.22</ele>
        <time>2011-02-26T13:18:40Z</time>
      </trkpt>
      <trkpt lat="42.80199" lon="1.40355">
        <ele>1662.26</ele>
        <time>2011-02-26T13:18:41Z</time>
      </trkpt>
      <trkpt lat="42.80201" lon="1.40347">
        <ele>1661.3</ele>
        <time>2011-02-26T13:18:42Z</time>
      </trkpt>
      <trkpt lat="42.80211" lon="1.40337">
        <ele>1657.45</ele>
        <time>2011-02-26T13:18:44Z</time>
      </trkpt>
      <trkpt lat="42.80217" lon="1.40338">
        <ele>1656.97</ele>
        <time>2011-02-26T13:18:45Z</time>
      </trkpt>
      <trkpt lat="42.80232" lon="1.40338">
        <ele>1655.05</ele>
        <time>2011-02-26T13:18:48Z</time>
      </trkpt>
      <trkpt lat="42.80231" lon="1.40336">
        <ele>1655.53</ele>
        <time>2011-02-26T13:18:53Z</time>
      </trkpt>
      <trkpt lat="42.80227" lon="1.40325">
        <ele>1655.53</ele>
        <time>2011-02-26T13:18:59Z</time>
      </trkpt>
      <trkpt lat="42.80228" lon="1.40322">
        <ele>1654.09</ele>
        <time>2011-02-26T13:19:03Z</time>
      </trkpt>
      <trkpt lat="42.80236" lon="1.40318">
        <ele>1650.24</ele>
        <time>2011-02-26T13:19:07Z</time>
      </trkpt>
      <trkpt lat="42.80242" lon="1.40316">
        <ele>1647.36</ele>
        <time>2011-02-26T13:19:08Z</time>
      </trkpt>
      <trkpt lat="42.80254" lon="1.40312">
        <ele>1641.59</ele>
        <time>2011-02-26T13:19:10Z</time>
      </trkpt>
      <trkpt lat="42.80266" lon="1.40298">
        <ele>1634.86</ele>
        <time>2011-02-26T13:19:13Z</time>
      </trkpt>
      <trkpt lat="42.80275" lon="1.40298">
        <ele>1631.01</ele>
        <time>2011-02-26T13:19:15Z</time>
      </trkpt>
      <trkpt lat="42.80278" lon="1.40297">
        <ele>1631.01</ele>
        <time>2011-02-26T13:19:16Z</time>
      </trkpt>
      <trkpt lat="42.8028" lon="1.40296">
        <ele>1629.57</ele>
        <time>2011-02-26T13:19:18Z</time>
      </trkpt>
      <trkpt lat="42.80279" lon="1.40297">
        <ele>1629.57</ele>
        <time>2011-02-26T13:19:22Z</time>
      </trkpt>
      <trkpt lat="42.80278" lon="1.40299">
        <ele>1629.57</ele>
        <time>2011-02-26T13:19:37Z</time>
      </trkpt>
      <trkpt lat="42.80277" lon="1.40298">
        <ele>1629.57</ele>
        <time>2011-02-26T13:19:56Z</time>
      </trkpt>
      <trkpt lat="42.80285" lon="1.40306">
        <ele>1627.17</ele>
        <time>2011-02-26T13:20:00Z</time>
      </trkpt>
      <trkpt lat="42.80299" lon="1.40305">
        <ele>1620.44</ele>
        <time>2011-02-26T13:20:05Z</time>
      </trkpt>
      <trkpt lat="42.803" lon="1.40306">
        <ele>1618.52</ele>
        <time>2011-02-26T13:20:14Z</time>
      </trkpt>
      <trkpt lat="42.80297" lon="1.40305">
        <ele>1619.48</ele>
        <time>2011-02-26T13:20:21Z</time>
      </trkpt>
      <trkpt lat="42.80305" lon="1.40314">
        <ele>1616.59</ele>
        <time>2011-02-26T13:20:27Z</time>
      </trkpt>
      <trkpt lat="42.80313" lon="1.40316">
        <ele>1612.75</ele>
        <time>2011-02-26T13:20:30Z</time>
      </trkpt>
      <trkpt lat="42.8031" lon="1.40314">
        <ele>1609.86</ele>
        <time>2011-02-26T13:20:39Z</time>
      </trkpt>
      <trkpt lat="42.8031" lon="1.40313">
        <ele>1609.38</ele>
        <time>2011-02-26T13:20:43Z</time>
      </trkpt>
      <trkpt lat="42.80311" lon="1.40312">
        <ele>1608.9</ele>
        <time>2011-02-26T13:20:49Z</time>
      </trkpt>
      <trkpt lat="42.80314" lon="1.40307">
        <ele>1606.5</ele>
        <time>2011-02-26T13:20:53Z</time>
      </trkpt>
      <trkpt lat="42.80314" lon="1.40307">
        <ele>1606.5</ele>
        <time>2011-02-26T13:20:54Z</time>
      </trkpt>
      <trkpt lat="42.80322" lon="1.40305">
        <ele>1603.62</ele>
        <time>2011-02-26T13:20:57Z</time>
      </trkpt>
      <trkpt lat="42.80328" lon="1.40295">
        <ele>1599.29</ele>
        <time>2011-02-26T13:21:00Z</time>
      </trkpt>
      <trkpt lat="42.80333" lon="1.40286">
        <ele>1594.96</ele>
        <time>2011-02-26T13:21:02Z</time>
      </trkpt>
      <trkpt lat="42.80339" lon="1.40264">
        <ele>1589.2</ele>
        <time>2011-02-26T13:21:05Z</time>
      </trkpt>
      <trkpt lat="42.80342" lon="1.4026">
        <ele>1581.03</ele>
        <time>2011-02-26T13:21:06Z</time>
      </trkpt>
      <trkpt lat="42.80343" lon="1.40263">
        <ele>1583.43</ele>
        <time>2011-02-26T13:21:12Z</time>
      </trkpt>
      <trkpt lat="42.80352" lon="1.40263">
        <ele>1582.47</ele>
        <time>2011-02-26T13:21:15Z</time>
      </trkpt>
      <trkpt lat="42.80357" lon="1.40262">
        <ele>1579.58</ele>
        <time>2011-02-26T13:21:18Z</time>
      </trkpt>
      <trkpt lat="42.80359" lon="1.40261">
        <ele>1579.1</ele>
        <time>2011-02-26T13:21:31Z</time>
      </trkpt>
      <trkpt lat="42.8036" lon="1.4026">
        <ele>1577.66</ele>
        <time>2011-02-26T13:22:10Z</time>
      </trkpt>
      <trkpt lat="42.80361" lon="1.4026">
        <ele>1579.1</ele>
        <time>2011-02-26T13:22:38Z</time>
      </trkpt>
      <trkpt lat="42.8036" lon="1.40258">
        <ele>1578.14</ele>
        <time>2011-02-26T13:23:15Z</time>
      </trkpt>
      <trkpt lat="42.8036" lon="1.40258">
        <ele>1579.1</ele>
        <time>2011-02-26T13:23:25Z</time>
      </trkpt>
      <trkpt lat="42.8036" lon="1.40258">
        <ele>1579.1</ele>
        <time>2011-02-26T13:23:44Z</time>
      </trkpt>
      <trkpt lat="42.80362" lon="1.40258">
        <ele>1579.1</ele>
        <time>2011-02-26T13:23:57Z</time>
      </trkpt>
      <trkpt lat="42.80362" lon="1.40258">
        <ele>1579.1</ele>
        <time>2011-02-26T13:24:10Z</time>
      </trkpt>
      <trkpt lat="42.80362" lon="1.40258">
        <ele>1579.1</ele>
        <time>2011-02-26T13:24:11Z</time>
      </trkpt>
      <trkpt lat="42.80375" lon="1.4026">
        <ele>1577.18</ele>
        <time>2011-02-26T13:24:15Z</time>
      </trkpt>
      <trkpt lat="42.80391" lon="1.40264">
        <ele>1571.89</ele>
        <time>2011-02-26T13:24:19Z</time>
      </trkpt>
      <trkpt lat="42.80403" lon="1.40288">
        <ele>1569.01</ele>
        <time>2011-02-26T13:24:23Z</time>
      </trkpt>
      <trkpt lat="42.80413" lon="1.40304">
        <ele>1566.12</ele>
        <time>2011-02-26T13:24:28Z</time>
      </trkpt>
      <trkpt lat="42.80418" lon="1.40327">
        <ele>1564.2</ele>
        <time>2011-02-26T13:24:35Z</time>
      </trkpt>
      <trkpt lat="42.80416" lon="1.40337">
        <ele>1564.2</ele>
        <time>2011-02-26T13:24:41Z</time>
      </trkpt>
      <trkpt lat="42.80415" lon="1.40339">
        <ele>1566.12</ele>
        <time>2011-02-26T13:24:43Z</time>
      </trkpt>
      <trkpt lat="42.80414" lon="1.40345">
        <ele>1565.16</ele>
        <time>2011-02-26T13:24:54Z</time>
      </trkpt>
      <trkpt lat="42.80419" lon="1.40355">
        <ele>1564.2</ele>
        <time>2011-02-26T13:25:05Z</time>
      </trkpt>
      <trkpt lat="42.80419" lon="1.40357">
        <ele>1563.72</ele>
        <time>2011-02-26T13:25:15Z</time>
      </trkpt>
      <trkpt lat="42.80426" lon="1.40376">
        <ele>1562.28</ele>
        <time>2011-02-26T13:25:21Z</time>
      </trkpt>
      <trkpt lat="42.80429" lon="1.40373">
        <ele>1558.92</ele>
        <time>2011-02-26T13:25:23Z</time>
      </trkpt>
      <trkpt lat="42.80433" lon="1.40373">
        <ele>1556.03</ele>
        <time>2011-02-26T13:25:24Z</time>
      </trkpt>
      <trkpt lat="42.80443" lon="1.40372">
        <ele>1550.74</ele>
        <time>2011-02-26T13:25:27Z</time>
      </trkpt>
      <trkpt lat="42.80443" lon="1.40362">
        <ele>1547.38</ele>
        <time>2011-02-26T13:25:30Z</time>
      </trkpt>
      <trkpt lat="42.80448" lon="1.40361">
        <ele>1546.42</ele>
        <time>2011-02-26T13:25:32Z</time>
      </trkpt>
      <trkpt lat="42.80451" lon="1.40364">
        <ele>1543.05</ele>
        <time>2011-02-26T13:25:33Z</time>
      </trkpt>
      <trkpt lat="42.80459" lon="1.40362">
        <ele>1540.17</ele>
        <time>2011-02-26T13:25:35Z</time>
      </trkpt>
      <trkpt lat="42.80463" lon="1.40363">
        <ele>1535.84</ele>
        <time>2011-02-26T13:25:36Z</time>
      </trkpt>
      <trkpt lat="42.80473" lon="1.40362">
        <ele>1531.52</ele>
        <time>2011-02-26T13:25:38Z</time>
      </trkpt>
      <trkpt lat="42.8048" lon="1.40365">
        <ele>1526.23</ele>
        <time>2011-02-26T13:25:40Z</time>
      </trkpt>
      <trkpt lat="42.80491" lon="1.40381">
        <ele>1522.39</ele>
        <time>2011-02-26T13:25:43Z</time>
      </trkpt>
      <trkpt lat="42.80493" lon="1.40384">
        <ele>1519.5</ele>
        <time>2011-02-26T13:25:44Z</time>
      </trkpt>
      <trkpt lat="42.80491" lon="1.40382">
        <ele>1519.02</ele>
        <time>2011-02-26T13:25:53Z</time>
      </trkpt>
      <trkpt lat="42.80494" lon="1.40368">
        <ele>1514.21</ele>
        <time>2011-02-26T13:25:56Z</time>
      </trkpt>
      <trkpt lat="42.80495" lon="1.40364">
        <ele>1514.21</ele>
        <time>2011-02-26T13:25:57Z</time>
      </trkpt>
      <trkpt lat="42.80501" lon="1.40357">
        <ele>1512.29</ele>
        <time>2011-02-26T13:26:01Z</time>
      </trkpt>
      <trkpt lat="42.80504" lon="1.4036">
        <ele>1510.85</ele>
        <time>2011-02-26T13:26:02Z</time>
      </trkpt>
      <trkpt lat="42.8051" lon="1.40384">
        <ele>1507.48</ele>
        <time>2011-02-26T13:26:06Z</time>
      </trkpt>
      <trkpt lat="42.80513" lon="1.40412">
        <ele>1504.12</ele>
        <time>2011-02-26T13:26:11Z</time>
      </trkpt>
      <trkpt lat="42.80515" lon="1.40424">
        <ele>1502.2</ele>
        <time>2011-02-26T13:26:13Z</time>
      </trkpt>
      <trkpt lat="42.80517" lon="1.40431">
        <ele>1500.27</ele>
        <time>2011-02-26T13:26:15Z</time>
      </trkpt>
      <trkpt lat="42.80519" lon="1.40434">
        <ele>1499.79</ele>
        <time>2011-02-26T13:26:16Z</time>
      </trkpt>
      <trkpt lat="42.8052" lon="1.40439">
        <ele>1497.87</ele>
        <time>2011-02-26T13:26:17Z</time>
      </trkpt>
      <trkpt lat="42.80519" lon="1.40482">
        <ele>1494.99</ele>
        <time>2011-02-26T13:26:24Z</time>
      </trkpt>
      <trkpt lat="42.80523" lon="1.40523">
        <ele>1490.18</ele>
        <time>2011-02-26T13:26:30Z</time>
      </trkpt>
      <trkpt lat="42.80525" lon="1.40531">
        <ele>1489.22</ele>
        <time>2011-02-26T13:26:31Z</time>
      </trkpt>
      <trkpt lat="42.80528" lon="1.40538">
        <ele>1488.26</ele>
        <time>2011-02-26T13:26:32Z</time>
      </trkpt>
      <trkpt lat="42.80531" lon="1.40546">
        <ele>1487.78</ele>
        <time>2011-02-26T13:26:33Z</time>
      </trkpt>
      <trkpt lat="42.80534" lon="1.40552">
        <ele>1487.3</ele>
        <time>2011-02-26T13:26:34Z</time>
      </trkpt>
      <trkpt lat="42.80536" lon="1.40555">
        <ele>1489.22</ele>
        <time>2011-02-26T13:26:36Z</time>
      </trkpt>
      <trkpt lat="42.80546" lon="1.40569">
        <ele>1488.74</ele>
        <time>2011-02-26T13:26:42Z</time>
      </trkpt>
      <trkpt lat="42.80549" lon="1.40574">
        <ele>1487.78</ele>
        <time>2011-02-26T13:26:43Z</time>
      </trkpt>
      <trkpt lat="42.80553" lon="1.40578">
        <ele>1486.82</ele>
        <time>2011-02-26T13:26:44Z</time>
      </trkpt>
      <trkpt lat="42.80563" lon="1.40605">
        <ele>1484.89</ele>
        <time>2011-02-26T13:26:53Z</time>
      </trkpt>
      <trkpt lat="42.80563" lon="1.40607">
        <ele>1484.89</ele>
        <time>2011-02-26T13:26:54Z</time>
      </trkpt>
      <trkpt lat="42.80563" lon="1.40615">
        <ele>1485.37</ele>
        <time>2011-02-26T13:27:04Z</time>
      </trkpt>
      <trkpt lat="42.80563" lon="1.40617">
        <ele>1483.93</ele>
        <time>2011-02-26T13:27:10Z</time>
      </trkpt>
      <trkpt lat="42.80563" lon="1.40617">
        <ele>1487.3</ele>
        <time>2011-02-26T13:27:14Z</time>
      </trkpt>
      <trkpt lat="42.80563" lon="1.40617">
        <ele>1483.93</ele>
        <time>2011-02-26T13:27:21Z</time>
      </trkpt>
      <trkpt lat="42.80563" lon="1.40617">
        <ele>1484.41</ele>
        <time>2011-02-26T13:27:22Z</time>
      </trkpt>
      <trkpt lat="42.80562" lon="1.40618">
        <ele>1487.78</ele>
        <time>2011-02-26T13:27:26Z</time>
      </trkpt>
      <trkpt lat="42.80562" lon="1.40618">
        <ele>1483.93</ele>
        <time>2011-02-26T13:27:32Z</time>
      </trkpt>
      <trkpt lat="42.80562" lon="1.40618">
        <ele>1486.34</ele>
        <time>2011-02-26T13:27:37Z</time>
      </trkpt>
      <trkpt lat="42.80561" lon="1.40617">
        <ele>1484.41</ele>
        <time>2011-02-26T13:27:47Z</time>
      </trkpt>
      <trkpt lat="42.80561" lon="1.40617">
        <ele>1485.85</ele>
        <time>2011-02-26T13:27:52Z</time>
      </trkpt>
      <trkpt lat="42.80561" lon="1.40616">
        <ele>1488.74</ele>
        <time>2011-02-26T13:27:55Z</time>
      </trkpt>
      <trkpt lat="42.80561" lon="1.40616">
        <ele>1487.3</ele>
        <time>2011-02-26T13:27:56Z</time>
      </trkpt>
      <trkpt lat="42.80561" lon="1.40617">
        <ele>1483.93</ele>
        <time>2011-02-26T13:27:58Z</time>
      </trkpt>
      <trkpt lat="42.80561" lon="1.40617">
        <ele>1487.78</ele>
        <time>2011-02-26T13:27:59Z</time>
      </trkpt>
      <trkpt lat="42.80562" lon="1.40617">
        <ele>1487.3</ele>
        <time>2011-02-26T13:28:00Z</time>
      </trkpt>
      <trkpt lat="42.80562" lon="1.40621">
        <ele>1486.34</ele>
        <time>2011-02-26T13:28:06Z</time>
      </trkpt>
      <trkpt lat="42.80563" lon="1.40632">
        <ele>1487.3</ele>
        <time>2011-02-26T13:28:14Z</time>
      </trkpt>
      <trkpt lat="42.80563" lon="1.40638">
        <ele>1487.3</ele>
        <time>2011-02-26T13:28:18Z</time>
      </trkpt>
      <trkpt lat="42.80562" lon="1.40644">
        <ele>1486.82</ele>
        <time>2011-02-26T13:28:29Z</time>
      </trkpt>
      <trkpt lat="42.80562" lon="1.40643">
        <ele>1487.3</ele>
        <time>2011-02-26T13:28:48Z</time>
      </trkpt>
      <trkpt lat="42.80562" lon="1.40643">
        <ele>1489.22</ele>
        <time>2011-02-26T13:28:51Z</time>
      </trkpt>
      <trkpt lat="42.80562" lon="1.40643">
        <ele>1485.37</ele>
        <time>2011-02-26T13:28:54Z</time>
      </trkpt>
      <trkpt lat="42.80562" lon="1.40644">
        <ele>1488.74</ele>
        <time>2011-02-26T13:28:55Z</time>
      </trkpt>
      <trkpt lat="42.80562" lon="1.40654">
        <ele>1489.22</ele>
        <time>2011-02-26T13:29:01Z</time>
      </trkpt>
      <trkpt lat="42.80564" lon="1.4067">
        <ele>1488.74</ele>
        <time>2011-02-26T13:29:09Z</time>
      </trkpt>
      <trkpt lat="42.80565" lon="1.40672">
        <ele>1488.74</ele>
        <time>2011-02-26T13:29:11Z</time>
      </trkpt>
      <trkpt lat="42.80566" lon="1.4068">
        <ele>1489.7</ele>
        <time>2011-02-26T13:29:17Z</time>
      </trkpt>
      <trkpt lat="42.80571" lon="1.40699">
        <ele>1491.14</ele>
        <time>2011-02-26T13:29:31Z</time>
      </trkpt>
      <trkpt lat="42.80573" lon="1.40715">
        <ele>1491.14</ele>
        <time>2011-02-26T13:29:43Z</time>
      </trkpt>
      <trkpt lat="42.80575" lon="1.40723">
        <ele>1491.62</ele>
        <time>2011-02-26T13:29:48Z</time>
      </trkpt>
      <trkpt lat="42.80577" lon="1.4073">
        <ele>1492.1</ele>
        <time>2011-02-26T13:29:53Z</time>
      </trkpt>
      <trkpt lat="42.80584" lon="1.40749">
        <ele>1494.03</ele>
        <time>2011-02-26T13:30:08Z</time>
      </trkpt>
      <trkpt lat="42.80592" lon="1.40762">
        <ele>1495.47</ele>
        <time>2011-02-26T13:30:19Z</time>
      </trkpt>
      <trkpt lat="42.806" lon="1.40777">
        <ele>1497.39</ele>
        <time>2011-02-26T13:30:31Z</time>
      </trkpt>
      <trkpt lat="42.80601" lon="1.40779">
        <ele>1494.03</ele>
        <time>2011-02-26T13:30:33Z</time>
      </trkpt>
      <trkpt lat="42.80602" lon="1.4078">
        <ele>1497.87</ele>
        <time>2011-02-26T13:30:34Z</time>
      </trkpt>
      <trkpt lat="42.80602" lon="1.40781">
        <ele>1498.35</ele>
        <time>2011-02-26T13:30:35Z</time>
      </trkpt>
      <trkpt lat="42.80603" lon="1.40797">
        <ele>1498.83</ele>
        <time>2011-02-26T13:30:46Z</time>
      </trkpt>
      <trkpt lat="42.80601" lon="1.40824">
        <ele>1499.31</ele>
        <time>2011-02-26T13:31:04Z</time>
      </trkpt>
      <trkpt lat="42.806" lon="1.40832">
        <ele>1499.79</ele>
        <time>2011-02-26T13:31:09Z</time>
      </trkpt>
      <trkpt lat="42.80598" lon="1.40844">
        <ele>1500.76</ele>
        <time>2011-02-26T13:31:16Z</time>
      </trkpt>
      <trkpt lat="42.80598" lon="1.40856">
        <ele>1501.24</ele>
        <time>2011-02-26T13:31:22Z</time>
      </trkpt>
      <trkpt lat="42.80596" lon="1.40862">
        <ele>1501.72</ele>
        <time>2011-02-26T13:31:26Z</time>
      </trkpt>
      <trkpt lat="42.80595" lon="1.40868">
        <ele>1501.72</ele>
        <time>2011-02-26T13:31:30Z</time>
      </trkpt>
      <trkpt lat="42.80594" lon="1.40882">
        <ele>1502.2</ele>
        <time>2011-02-26T13:31:38Z</time>
      </trkpt>
      <trkpt lat="42.80594" lon="1.40886">
        <ele>1503.16</ele>
        <time>2011-02-26T13:31:41Z</time>
      </trkpt>
      <trkpt lat="42.80594" lon="1.40889">
        <ele>1502.68</ele>
        <time>2011-02-26T13:31:43Z</time>
      </trkpt>
      <trkpt lat="42.80596" lon="1.40902">
        <ele>1503.64</ele>
        <time>2011-02-26T13:31:51Z</time>
      </trkpt>
      <trkpt lat="42.80596" lon="1.40908">
        <ele>1504.6</ele>
        <time>2011-02-26T13:31:55Z</time>
      </trkpt>
      <trkpt lat="42.80598" lon="1.40917">
        <ele>1505.56</ele>
        <time>2011-02-26T13:32:01Z</time>
      </trkpt>
      <trkpt lat="42.80599" lon="1.40924">
        <ele>1506.04</ele>
        <time>2011-02-26T13:32:06Z</time>
      </trkpt>
      <trkpt lat="42.80607" lon="1.40939">
        <ele>1508.45</ele>
        <time>2011-02-26T13:32:17Z</time>
      </trkpt>
      <trkpt lat="42.80613" lon="1.40947">
        <ele>1510.37</ele>
        <time>2011-02-26T13:32:25Z</time>
      </trkpt>
      <trkpt lat="42.80617" lon="1.40951">
        <ele>1509.41</ele>
        <time>2011-02-26T13:32:32Z</time>
      </trkpt>
      <trkpt lat="42.80622" lon="1.40954">
        <ele>1511.33</ele>
        <time>2011-02-26T13:32:36Z</time>
      </trkpt>
      <trkpt lat="42.80636" lon="1.40966">
        <ele>1511.81</ele>
        <time>2011-02-26T13:32:50Z</time>
      </trkpt>
      <trkpt lat="42.8064" lon="1.40968">
        <ele>1513.73</ele>
        <time>2011-02-26T13:32:53Z</time>
      </trkpt>
      <trkpt lat="42.80647" lon="1.40972">
        <ele>1513.25</ele>
        <time>2011-02-26T13:33:00Z</time>
      </trkpt>
      <trkpt lat="42.80656" lon="1.40979">
        <ele>1515.66</ele>
        <time>2011-02-26T13:33:08Z</time>
      </trkpt>
      <trkpt lat="42.80667" lon="1.40995">
        <ele>1518.06</ele>
        <time>2011-02-26T13:33:21Z</time>
      </trkpt>
      <trkpt lat="42.80669" lon="1.41006">
        <ele>1518.54</ele>
        <time>2011-02-26T13:33:28Z</time>
      </trkpt>
      <trkpt lat="42.8067" lon="1.4103">
        <ele>1519.5</ele>
        <time>2011-02-26T13:33:42Z</time>
      </trkpt>
      <trkpt lat="42.80667" lon="1.41039">
        <ele>1519.02</ele>
        <time>2011-02-26T13:33:47Z</time>
      </trkpt>
      <trkpt lat="42.80666" lon="1.41045">
        <ele>1519.98</ele>
        <time>2011-02-26T13:33:51Z</time>
      </trkpt>
      <trkpt lat="42.80663" lon="1.41067">
        <ele>1521.9</ele>
        <time>2011-02-26T13:34:04Z</time>
      </trkpt>
      <trkpt lat="42.80658" lon="1.4108">
        <ele>1522.87</ele>
        <time>2011-02-26T13:34:12Z</time>
      </trkpt>
      <trkpt lat="42.80654" lon="1.41092">
        <ele>1523.35</ele>
        <time>2011-02-26T13:34:22Z</time>
      </trkpt>
      <trkpt lat="42.80658" lon="1.41094">
        <ele>1522.39</ele>
        <time>2011-02-26T13:34:26Z</time>
      </trkpt>
      <trkpt lat="42.8066" lon="1.411">
        <ele>1522.39</ele>
        <time>2011-02-26T13:34:30Z</time>
      </trkpt>
      <trkpt lat="42.8066" lon="1.41102">
        <ele>1525.27</ele>
        <time>2011-02-26T13:34:34Z</time>
      </trkpt>
      <trkpt lat="42.8066" lon="1.41102">
        <ele>1521.9</ele>
        <time>2011-02-26T13:34:36Z</time>
      </trkpt>
      <trkpt lat="42.8066" lon="1.41102">
        <ele>1521.9</ele>
        <time>2011-02-26T13:34:37Z</time>
      </trkpt>
      <trkpt lat="42.80661" lon="1.41104">
        <ele>1522.87</ele>
        <time>2011-02-26T13:34:40Z</time>
      </trkpt>
      <trkpt lat="42.80658" lon="1.41111">
        <ele>1522.87</ele>
        <time>2011-02-26T13:34:44Z</time>
      </trkpt>
      <trkpt lat="42.80657" lon="1.41116">
        <ele>1521.9</ele>
        <time>2011-02-26T13:34:47Z</time>
      </trkpt>
      <trkpt lat="42.80654" lon="1.41135">
        <ele>1522.87</ele>
        <time>2011-02-26T13:34:57Z</time>
      </trkpt>
      <trkpt lat="42.80658" lon="1.41153">
        <ele>1522.87</ele>
        <time>2011-02-26T13:35:06Z</time>
      </trkpt>
      <trkpt lat="42.80658" lon="1.41159">
        <ele>1523.35</ele>
        <time>2011-02-26T13:35:10Z</time>
      </trkpt>
      <trkpt lat="42.80654" lon="1.41164">
        <ele>1523.35</ele>
        <time>2011-02-26T13:35:14Z</time>
      </trkpt>
      <trkpt lat="42.80645" lon="1.41178">
        <ele>1521.9</ele>
        <time>2011-02-26T13:35:28Z</time>
      </trkpt>
      <trkpt lat="42.80646" lon="1.41176">
        <ele>1525.27</ele>
        <time>2011-02-26T13:35:40Z</time>
      </trkpt>
      <trkpt lat="42.80645" lon="1.41175">
        <ele>1523.35</ele>
        <time>2011-02-26T13:35:43Z</time>
      </trkpt>
      <trkpt lat="42.80643" lon="1.41172">
        <ele>1518.06</ele>
        <time>2011-02-26T13:35:50Z</time>
      </trkpt>
      <trkpt lat="42.80643" lon="1.41173">
        <ele>1521.9</ele>
        <time>2011-02-26T13:35:51Z</time>
      </trkpt>
      <trkpt lat="42.80642" lon="1.41173">
        <ele>1519.5</ele>
        <time>2011-02-26T13:35:55Z</time>
      </trkpt>
      <trkpt lat="42.80642" lon="1.41173">
        <ele>1521.9</ele>
        <time>2011-02-26T13:36:20Z</time>
      </trkpt>
      <trkpt lat="42.80642" lon="1.41173">
        <ele>1518.06</ele>
        <time>2011-02-26T13:36:33Z</time>
      </trkpt>
      <trkpt lat="42.80642" lon="1.41172">
        <ele>1523.35</ele>
        <time>2011-02-26T13:36:35Z</time>
      </trkpt>
      <trkpt lat="42.80642" lon="1.41172">
        <ele>1521.9</ele>
        <time>2011-02-26T13:37:19Z</time>
      </trkpt>
      <trkpt lat="42.80642" lon="1.41172">
        <ele>1518.54</ele>
        <time>2011-02-26T13:37:22Z</time>
      </trkpt>
      <trkpt lat="42.80642" lon="1.41172">
        <ele>1525.75</ele>
        <time>2011-02-26T13:37:23Z</time>
      </trkpt>
      <trkpt lat="42.80643" lon="1.41172">
        <ele>1524.31</ele>
        <time>2011-02-26T13:37:24Z</time>
      </trkpt>
      <trkpt lat="42.80643" lon="1.41172">
        <ele>1520.94</ele>
        <time>2011-02-26T13:37:26Z</time>
      </trkpt>
      <trkpt lat="42.80643" lon="1.41172">
        <ele>1521.9</ele>
        <time>2011-02-26T13:37:27Z</time>
      </trkpt>
      <trkpt lat="42.80643" lon="1.41172">
        <ele>1524.79</ele>
        <time>2011-02-26T13:37:28Z</time>
      </trkpt>
      <trkpt lat="42.80643" lon="1.41172">
        <ele>1524.31</ele>
        <time>2011-02-26T13:37:29Z</time>
      </trkpt>
      <trkpt lat="42.80643" lon="1.41172">
        <ele>1522.39</ele>
        <time>2011-02-26T13:37:32Z</time>
      </trkpt>
      <trkpt lat="42.80643" lon="1.41172">
        <ele>1516.14</ele>
        <time>2011-02-26T13:37:36Z</time>
      </trkpt>
      <trkpt lat="42.80643" lon="1.41172">
        <ele>1519.5</ele>
        <time>2011-02-26T13:37:38Z</time>
      </trkpt>
      <trkpt lat="42.80643" lon="1.41172">
        <ele>1522.39</ele>
        <time>2011-02-26T13:37:39Z</time>
      </trkpt>
      <trkpt lat="42.80643" lon="1.41172">
        <ele>1522.39</ele>
        <time>2011-02-26T13:37:40Z</time>
      </trkpt>
      <trkpt lat="42.80643" lon="1.41172">
        <ele>1522.87</ele>
        <time>2011-02-26T13:37:49Z</time>
      </trkpt>
      <trkpt lat="42.80643" lon="1.41172">
        <ele>1522.87</ele>
        <time>2011-02-26T13:40:11Z</time>
      </trkpt>
    </trkseg>
  </trk>
</gpx>